Wetterdaten: Samstag, 14.10.2017
Datum Zeit Temp. A. Pool Temp. Feuchte A. Luftdruck Regen Wind Richtung Richtung Sonnenschein ET UV Solar Taupunkt Windchill Windben Empfang
14.10.2017 00:00 10,5 C 11,7 C 91 % 1027,3 hPa 0,0 l/m 6,1 km/h (2 Bft) S-SW 208 0 min 0,000 mm 0,0 UV-I 0 W/m 9,1 C 10,5 C 9,7 km/h (2 Bft) 97,37 %
14.10.2017 00:02 10,5 C 11,7 C 92 % 1027,3 hPa 0,0 l/m 5,0 km/h (1 Bft) S-SW 212 0 min 0,000 mm 0,0 UV-I 0 W/m 9,3 C 10,5 C 8,0 km/h (2 Bft) 100,00 %
14.10.2017 00:04 10,5 C 11,7 C 92 % 1027,3 hPa 0,0 l/m 5,5 km/h (1 Bft) S-SW 205 0 min 0,000 mm 0,0 UV-I 0 W/m 9,3 C 10,5 C 8,0 km/h (2 Bft) 100,00 %
14.10.2017 00:06 10,4 C 11,7 C 92 % 1027,3 hPa 0,0 l/m 5,1 km/h (1 Bft) S-SW 203 0 min 0,000 mm 0,0 UV-I 0 W/m 9,2 C 10,4 C 8,0 km/h (2 Bft) 97,37 %
14.10.2017 00:08 10,4 C 11,7 C 92 % 1027,3 hPa 0,0 l/m 4,0 km/h (1 Bft) S-SW 200 0 min 0,000 mm 0,0 UV-I 0 W/m 9,2 C 10,4 C 6,4 km/h (2 Bft) 100,00 %
14.10.2017 00:10 10,4 C 11,7 C 92 % 1027,3 hPa 0,0 l/m 4,2 km/h (1 Bft) S-SW 198 0 min 0,000 mm 0,0 UV-I 0 W/m 9,2 C 10,4 C 9,7 km/h (2 Bft) 100,00 %
14.10.2017 00:12 10,4 C 11,7 C 92 % 1027,3 hPa 0,0 l/m 4,1 km/h (1 Bft) S-SW 198 0 min 0,000 mm 0,0 UV-I 0 W/m 9,2 C 10,4 C 6,4 km/h (2 Bft) 100,00 %
14.10.2017 00:14 10,4 C 11,7 C 92 % 1027,3 hPa 0,0 l/m 4,7 km/h (1 Bft) S-SW 199 0 min 0,000 mm 0,0 UV-I 0 W/m 9,2 C 10,4 C 8,0 km/h (2 Bft) 100,00 %
14.10.2017 00:16 10,4 C 11,7 C 92 % 1027,3 hPa 0,0 l/m 4,5 km/h (1 Bft) S-SW 202 0 min 0,000 mm 0,0 UV-I 0 W/m 9,2 C 10,4 C 6,4 km/h (2 Bft) 98,36 %
14.10.2017 00:18 10,3 C 11,7 C 92 % 1027,3 hPa 0,0 l/m 4,1 km/h (1 Bft) S 190 0 min 0,000 mm 0,0 UV-I 0 W/m 9,1 C 10,3 C 6,4 km/h (2 Bft) 100,00 %
14.10.2017 00:20 10,3 C 11,7 C 92 % 1027,3 hPa 0,0 l/m 5,1 km/h (1 Bft) S-SW 212 0 min 0,000 mm 0,0 UV-I 0 W/m 9,1 C 10,3 C 8,0 km/h (2 Bft) 100,00 %
14.10.2017 00:22 10,3 C 11,7 C 92 % 1027,3 hPa 0,0 l/m 4,6 km/h (1 Bft) S-SW 199 0 min 0,000 mm 0,0 UV-I 0 W/m 9,1 C 10,3 C 6,4 km/h (2 Bft) 100,00 %
14.10.2017 00:24 10,3 C 11,7 C 92 % 1027,3 hPa 0,0 l/m 5,6 km/h (1 Bft) S-SW 198 0 min 0,000 mm 0,0 UV-I 0 W/m 9,1 C 10,3 C 8,0 km/h (2 Bft) 100,00 %
14.10.2017 00:26 10,2 C 11,7 C 92 % 1027,3 hPa 0,0 l/m 3,9 km/h (1 Bft) S-SW 201 0 min 0,000 mm 0,0 UV-I 0 W/m 9,0 C 10,2 C 6,4 km/h (2 Bft) 97,62 %
14.10.2017 00:28 10,2 C 11,7 C 92 % 1027,3 hPa 0,0 l/m 4,1 km/h (1 Bft) S 174 0 min 0,000 mm 0,0 UV-I 0 W/m 9,0 C 10,2 C 8,0 km/h (2 Bft) 100,00 %
14.10.2017 00:30 10,2 C 11,7 C 92 % 1027,4 hPa 0,0 l/m 3,5 km/h (1 Bft) S 186 0 min 0,000 mm 0,0 UV-I 0 W/m 9,0 C 10,2 C 8,0 km/h (2 Bft) 98,44 %
14.10.2017 00:32 10,2 C 11,7 C 92 % 1027,4 hPa 0,0 l/m 4,7 km/h (1 Bft) S-SW 196 0 min 0,000 mm 0,0 UV-I 0 W/m 9,0 C 10,2 C 8,0 km/h (2 Bft) 97,87 %
14.10.2017 00:34 10,2 C 11,7 C 92 % 1027,4 hPa 0,0 l/m 4,0 km/h (1 Bft) S-SO 165 0 min 0,000 mm 0,0 UV-I 0 W/m 9,0 C 10,2 C 8,0 km/h (2 Bft) 100,00 %
14.10.2017 00:36 10,2 C 11,7 C 92 % 1027,4 hPa 0,0 l/m 4,9 km/h (1 Bft) S 189 0 min 0,000 mm 0,0 UV-I 0 W/m 9,0 C 10,2 C 8,0 km/h (2 Bft) 100,00 %
14.10.2017 00:38 10,2 C 11,7 C 92 % 1027,4 hPa 0,0 l/m 5,4 km/h (1 Bft) S-SW 205 0 min 0,000 mm 0,0 UV-I 0 W/m 9,0 C 10,2 C 8,0 km/h (2 Bft) 100,00 %
14.10.2017 00:40 10,2 C 11,7 C 92 % 1027,3 hPa 0,0 l/m 5,3 km/h (1 Bft) S-SW 201 0 min 0,000 mm 0,0 UV-I 0 W/m 9,0 C 10,2 C 9,7 km/h (2 Bft) 100,00 %
14.10.2017 00:42 10,2 C 11,7 C 93 % 1027,4 hPa 0,0 l/m 5,5 km/h (1 Bft) S-SW 204 0 min 0,000 mm 0,0 UV-I 0 W/m 9,1 C 10,2 C 9,7 km/h (2 Bft) 98,21 %
14.10.2017 00:44 10,2 C 11,7 C 93 % 1027,3 hPa 0,0 l/m 6,1 km/h (2 Bft) S-SW 196 0 min 0,000 mm 0,0 UV-I 0 W/m 9,1 C 10,2 C 9,7 km/h (2 Bft) 97,87 %
14.10.2017 00:46 10,2 C 11,7 C 92 % 1027,4 hPa 0,0 l/m 6,4 km/h (2 Bft) S-SW 200 0 min 0,000 mm 0,0 UV-I 0 W/m 9,0 C 10,2 C 8,0 km/h (2 Bft) 98,00 %
14.10.2017 00:48 10,2 C 11,7 C 92 % 1027,3 hPa 0,0 l/m 5,1 km/h (1 Bft) S-SW 195 0 min 0,000 mm 0,0 UV-I 0 W/m 9,0 C 10,2 C 8,0 km/h (2 Bft) 100,00 %
14.10.2017 00:50 10,1 C 11,7 C 92 % 1027,3 hPa 0,0 l/m 5,2 km/h (1 Bft) S-SW 198 0 min 0,000 mm 0,0 UV-I 0 W/m 8,9 C 10,1 C 8,0 km/h (2 Bft) 100,00 %
14.10.2017 00:52 10,1 C 11,7 C 92 % 1027,2 hPa 0,0 l/m 4,3 km/h (1 Bft) S-SW 196 0 min 0,000 mm 0,0 UV-I 0 W/m 8,9 C 10,1 C 8,0 km/h (2 Bft) 100,00 %
14.10.2017 00:54 10,1 C 11,7 C 93 % 1027,2 hPa 0,0 l/m 5,9 km/h (2 Bft) S-SW 198 0 min 0,000 mm 0,0 UV-I 0 W/m 9,0 C 10,1 C 9,7 km/h (2 Bft) 100,00 %
14.10.2017 00:56 10,1 C 11,7 C 93 % 1027,2 hPa 0,0 l/m 5,2 km/h (1 Bft) S-SW 192 0 min 0,000 mm 0,0 UV-I 0 W/m 9,0 C 10,1 C 8,0 km/h (2 Bft) 100,00 %
14.10.2017 00:58 10,1 C 11,7 C 93 % 1027,2 hPa 0,0 l/m 5,2 km/h (1 Bft) S-SW 198 0 min 0,000 mm 0,0 UV-I 0 W/m 9,0 C 10,1 C 8,0 km/h (2 Bft) 100,00 %
14.10.2017 01:00 10,1 C 11,7 C 93 % 1027,2 hPa 0,0 l/m 4,7 km/h (1 Bft) S 177 0 min 0,000 mm 0,0 UV-I 0 W/m 9,0 C 10,1 C 8,0 km/h (2 Bft) 100,00 %
14.10.2017 01:02 10,1 C 11,7 C 93 % 1027,2 hPa 0,0 l/m 5,2 km/h (1 Bft) S 181 0 min 0,000 mm 0,0 UV-I 0 W/m 9,0 C 10,1 C 8,0 km/h (2 Bft) 97,56 %
14.10.2017 01:04 10,1 C 11,7 C 93 % 1027,2 hPa 0,0 l/m 5,2 km/h (1 Bft) SO 142 0 min 0,000 mm 0,0 UV-I 0 W/m 9,0 C 10,1 C 11,3 km/h (2 Bft) 95,74 %
14.10.2017 01:06 10,2 C 11,7 C 93 % 1027,3 hPa 0,0 l/m 5,3 km/h (1 Bft) S 171 0 min 0,000 mm 0,0 UV-I 0 W/m 9,1 C 10,2 C 8,0 km/h (2 Bft) 100,00 %
14.10.2017 01:08 10,2 C 11,7 C 93 % 1027,3 hPa 0,0 l/m 7,2 km/h (2 Bft) S 182 0 min 0,000 mm 0,0 UV-I 0 W/m 9,1 C 9,6 C 11,3 km/h (2 Bft) 100,00 %
14.10.2017 01:10 10,2 C 11,7 C 93 % 1027,3 hPa 0,0 l/m 5,7 km/h (1 Bft) S 189 0 min 0,000 mm 0,0 UV-I 0 W/m 9,1 C 10,2 C 8,0 km/h (2 Bft) 97,22 %
14.10.2017 01:12 10,2 C 11,7 C 93 % 1027,4 hPa 0,0 l/m 5,2 km/h (1 Bft) S-SW 195 0 min 0,000 mm 0,0 UV-I 0 W/m 9,1 C 10,2 C 8,0 km/h (2 Bft) 96,23 %
14.10.2017 01:14 10,2 C 11,7 C 93 % 1027,4 hPa 0,0 l/m 7,1 km/h (2 Bft) S-SW 208 0 min 0,000 mm 0,0 UV-I 0 W/m 9,1 C 9,7 C 11,3 km/h (2 Bft) 98,11 %
14.10.2017 01:16 10,2 C 11,7 C 93 % 1027,3 hPa 0,0 l/m 5,0 km/h (1 Bft) S 172 0 min 0,000 mm 0,0 UV-I 0 W/m 9,1 C 10,2 C 8,0 km/h (2 Bft) 100,00 %
14.10.2017 01:18 10,2 C 11,7 C 93 % 1027,3 hPa 0,0 l/m 4,9 km/h (1 Bft) S-SW 201 0 min 0,000 mm 0,0 UV-I 0 W/m 9,1 C 10,2 C 8,0 km/h (2 Bft) 100,00 %
14.10.2017 01:20 10,1 C 11,7 C 93 % 1027,4 hPa 0,0 l/m 5,2 km/h (1 Bft) S-SW 199 0 min 0,000 mm 0,0 UV-I 0 W/m 9,0 C 10,1 C 6,4 km/h (2 Bft) 98,11 %
14.10.2017 01:22 10,1 C 11,7 C 92 % 1027,4 hPa 0,0 l/m 4,4 km/h (1 Bft) SW 224 0 min 0,000 mm 0,0 UV-I 0 W/m 8,9 C 10,1 C 8,0 km/h (2 Bft) 100,00 %
14.10.2017 01:24 10,1 C 11,7 C 92 % 1027,4 hPa 0,0 l/m 4,6 km/h (1 Bft) S-SW 211 0 min 0,000 mm 0,0 UV-I 0 W/m 8,9 C 10,1 C 8,0 km/h (2 Bft) 100,00 %
14.10.2017 01:26 10,0 C 11,7 C 92 % 1027,4 hPa 0,0 l/m 4,5 km/h (1 Bft) S-SW 200 0 min 0,000 mm 0,0 UV-I 0 W/m 8,8 C 10,0 C 6,4 km/h (2 Bft) 98,00 %
14.10.2017 01:28 10,0 C 11,7 C 93 % 1027,4 hPa 0,0 l/m 4,8 km/h (1 Bft) S-SW 197 0 min 0,000 mm 0,0 UV-I 0 W/m 8,9 C 10,0 C 6,4 km/h (2 Bft) 96,00 %
14.10.2017 01:30 10,0 C 11,7 C 93 % 1027,4 hPa 0,0 l/m 5,5 km/h (1 Bft) S-SW 200 0 min 0,000 mm 0,0 UV-I 0 W/m 8,9 C 10,0 C 9,7 km/h (2 Bft) 97,87 %
14.10.2017 01:32 9,9 C 11,7 C 93 % 1027,4 hPa 0,0 l/m 5,3 km/h (1 Bft) S-SW 198 0 min 0,000 mm 0,0 UV-I 0 W/m 8,8 C 9,9 C 8,0 km/h (2 Bft) 94,74 %
14.10.2017 01:34 9,9 C 11,7 C 93 % 1027,5 hPa 0,0 l/m 5,1 km/h (1 Bft) S-SW 205 0 min 0,000 mm 0,0 UV-I 0 W/m 8,8 C 9,9 C 8,0 km/h (2 Bft) 98,11 %
14.10.2017 01:36 9,9 C 11,7 C 93 % 1027,5 hPa 0,0 l/m 4,4 km/h (1 Bft) S 188 0 min 0,000 mm 0,0 UV-I 0 W/m 8,8 C 9,9 C 6,4 km/h (2 Bft) 96,23 %
14.10.2017 01:38 9,9 C 11,7 C 93 % 1027,5 hPa 0,0 l/m 4,7 km/h (1 Bft) S 190 0 min 0,000 mm 0,0 UV-I 0 W/m 8,8 C 9,9 C 8,0 km/h (2 Bft) 97,37 %
14.10.2017 01:40 9,9 C 11,7 C 93 % 1027,4 hPa 0,0 l/m 5,8 km/h (2 Bft) SW 215 0 min 0,000 mm 0,0 UV-I 0 W/m 8,8 C 9,9 C 9,7 km/h (2 Bft) 96,00 %
14.10.2017 01:42 9,9 C 11,7 C 93 % 1027,5 hPa 0,0 l/m 4,9 km/h (1 Bft) S-SW 209 0 min 0,000 mm 0,0 UV-I 0 W/m 8,8 C 9,9 C 8,0 km/h (2 Bft) 97,22 %
14.10.2017 01:44 9,8 C 11,7 C 93 % 1027,5 hPa 0,0 l/m 4,3 km/h (1 Bft) S-SW 212 0 min 0,000 mm 0,0 UV-I 0 W/m 8,7 C 9,8 C 6,4 km/h (2 Bft) 96,55 %
14.10.2017 01:46 9,8 C 11,7 C 93 % 1027,5 hPa 0,0 l/m 4,4 km/h (1 Bft) S-SW 212 0 min 0,000 mm 0,0 UV-I 0 W/m 8,7 C 9,8 C 6,4 km/h (2 Bft) 98,00 %
14.10.2017 01:48 9,8 C 11,7 C 93 % 1027,5 hPa 0,0 l/m 4,5 km/h (1 Bft) S-SW 206 0 min 0,000 mm 0,0 UV-I 0 W/m 8,7 C 9,8 C 8,0 km/h (2 Bft) 95,24 %
14.10.2017 01:50 9,8 C 11,7 C 93 % 1027,5 hPa 0,0 l/m 3,0 km/h (1 Bft) S-SW 194 0 min 0,000 mm 0,0 UV-I 0 W/m 8,7 C 9,8 C 4,8 km/h (1 Bft) 98,08 %
14.10.2017 01:52 9,7 C 11,7 C 93 % 1027,6 hPa 0,0 l/m 2,7 km/h (1 Bft) S 185 0 min 0,000 mm 0,0 UV-I 0 W/m 8,6 C 9,7 C 4,8 km/h (1 Bft) 97,44 %
14.10.2017 01:54 9,7 C 11,7 C 93 % 1027,5 hPa 0,0 l/m 3,8 km/h (1 Bft) S-SW 192 0 min 0,000 mm 0,0 UV-I 0 W/m 8,6 C 9,7 C 4,8 km/h (1 Bft) 98,11 %
14.10.2017 01:56 9,7 C 11,7 C 93 % 1027,6 hPa 0,0 l/m 3,8 km/h (1 Bft) S 181 0 min 0,000 mm 0,0 UV-I 0 W/m 8,6 C 9,7 C 6,4 km/h (2 Bft) 94,00 %
14.10.2017 01:58 9,7 C 11,7 C 93 % 1027,6 hPa 0,0 l/m 3,9 km/h (1 Bft) S 190 0 min 0,000 mm 0,0 UV-I 0 W/m 8,6 C 9,7 C 6,4 km/h (2 Bft) 97,87 %
14.10.2017 02:00 9,6 C 11,7 C 93 % 1027,6 hPa 0,0 l/m 4,8 km/h (1 Bft) S-SW 202 0 min 0,000 mm 0,0 UV-I 0 W/m 8,5 C 9,6 C 6,4 km/h (2 Bft) 95,74 %
14.10.2017 02:02 9,6 C 11,7 C 93 % 1027,6 hPa 0,0 l/m 4,2 km/h (1 Bft) S-SW 192 0 min 0,000 mm 0,0 UV-I 0 W/m 8,5 C 9,6 C 6,4 km/h (2 Bft) 97,37 %
14.10.2017 02:04 9,6 C 11,7 C 93 % 1027,6 hPa 0,0 l/m 3,3 km/h (1 Bft) S 191 0 min 0,000 mm 0,0 UV-I 0 W/m 8,5 C 9,6 C 6,4 km/h (2 Bft) 100,00 %
14.10.2017 02:06 9,6 C 11,7 C 94 % 1027,6 hPa 0,0 l/m 3,6 km/h (1 Bft) S 191 0 min 0,000 mm 0,0 UV-I 0 W/m 8,7 C 9,6 C 6,4 km/h (2 Bft) 98,00 %
14.10.2017 02:08 9,6 C 11,7 C 94 % 1027,6 hPa 0,0 l/m 4,0 km/h (1 Bft) S-SW 213 0 min 0,000 mm 0,0 UV-I 0 W/m 8,7 C 9,6 C 6,4 km/h (2 Bft) 100,00 %
14.10.2017 02:10 9,6 C 11,7 C 93 % 1027,6 hPa 0,0 l/m 3,4 km/h (1 Bft) SW 219 0 min 0,000 mm 0,0 UV-I 0 W/m 8,5 C 9,6 C 4,8 km/h (1 Bft) 100,00 %
14.10.2017 02:12 9,6 C 11,7 C 94 % 1027,6 hPa 0,0 l/m 3,7 km/h (1 Bft) SW 219 0 min 0,000 mm 0,0 UV-I 0 W/m 8,7 C 9,6 C 4,8 km/h (1 Bft) 95,74 %
14.10.2017 02:14 9,6 C 11,7 C 94 % 1027,6 hPa 0,0 l/m 3,4 km/h (1 Bft) SW 219 0 min 0,000 mm 0,0 UV-I 0 W/m 8,7 C 9,6 C 4,8 km/h (1 Bft) 97,56 %
14.10.2017 02:16 9,6 C 11,7 C 94 % 1027,6 hPa 0,0 l/m 2,6 km/h (1 Bft) SW 219 0 min 0,000 mm 0,0 UV-I 0 W/m 8,7 C 9,6 C 4,8 km/h (1 Bft) 100,00 %
14.10.2017 02:18 9,6 C 11,7 C 94 % 1027,6 hPa 0,0 l/m 2,5 km/h (1 Bft) SW 219 0 min 0,000 mm 0,0 UV-I 0 W/m 8,7 C 9,6 C 3,2 km/h (1 Bft) 98,00 %
14.10.2017 02:20 9,4 C 11,7 C 94 % 1027,6 hPa 0,0 l/m 1,6 km/h (1 Bft) SW 219 0 min 0,000 mm 0,0 UV-I 0 W/m 8,5 C 9,4 C 3,2 km/h (1 Bft) 100,00 %
14.10.2017 02:22 9,3 C 11,7 C 93 % 1027,6 hPa 0,0 l/m 2,0 km/h (1 Bft) SW 219 0 min 0,000 mm 0,0 UV-I 0 W/m 8,2 C 9,3 C 3,2 km/h (1 Bft) 100,00 %
14.10.2017 02:24 9,2 C 11,7 C 93 % 1027,6 hPa 0,0 l/m 3,1 km/h (1 Bft) SW 219 0 min 0,000 mm 0,0 UV-I 0 W/m 8,1 C 9,2 C 4,8 km/h (1 Bft) 100,00 %
14.10.2017 02:26 9,2 C 11,7 C 94 % 1027,6 hPa 0,0 l/m 3,7 km/h (1 Bft) SW 219 0 min 0,000 mm 0,0 UV-I 0 W/m 8,3 C 9,2 C 4,8 km/h (1 Bft) 100,00 %
14.10.2017 02:28 9,2 C 11,7 C 94 % 1027,5 hPa 0,0 l/m 4,5 km/h (1 Bft) SW 218 0 min 0,000 mm 0,0 UV-I 0 W/m 8,3 C 9,2 C 6,4 km/h (2 Bft) 96,23 %
14.10.2017 02:30 9,1 C 11,7 C 94 % 1027,5 hPa 0,0 l/m 4,5 km/h (1 Bft) S-SW 196 0 min 0,000 mm 0,0 UV-I 0 W/m 8,2 C 9,1 C 6,4 km/h (2 Bft) 98,00 %
14.10.2017 02:32 9,1 C 11,7 C 94 % 1027,5 hPa 0,0 l/m 4,8 km/h (1 Bft) SW 219 0 min 0,000 mm 0,0 UV-I 0 W/m 8,2 C 9,1 C 6,4 km/h (2 Bft) 97,56 %
14.10.2017 02:34 9,1 C 11,7 C 94 % 1027,5 hPa 0,0 l/m 4,7 km/h (1 Bft) S-SW 200 0 min 0,000 mm 0,0 UV-I 0 W/m 8,2 C 9,1 C 6,4 km/h (2 Bft) 96,00 %
14.10.2017 02:36 9,1 C 11,7 C 94 % 1027,5 hPa 0,0 l/m 5,6 km/h (1 Bft) S-SW 213 0 min 0,000 mm 0,0 UV-I 0 W/m 8,2 C 9,1 C 8,0 km/h (2 Bft) 98,00 %
14.10.2017 02:38 9,1 C 11,7 C 94 % 1027,5 hPa 0,0 l/m 5,8 km/h (2 Bft) S-SW 194 0 min 0,000 mm 0,0 UV-I 0 W/m 8,2 C 9,1 C 9,7 km/h (2 Bft) 97,87 %
14.10.2017 02:40 9,2 C 11,7 C 94 % 1027,5 hPa 0,0 l/m 5,4 km/h (1 Bft) SW 214 0 min 0,000 mm 0,0 UV-I 0 W/m 8,3 C 9,2 C 6,4 km/h (2 Bft) 97,56 %
14.10.2017 02:42 9,1 C 11,7 C 94 % 1027,4 hPa 0,0 l/m 4,8 km/h (1 Bft) SW 227 0 min 0,000 mm 0,0 UV-I 0 W/m 8,2 C 9,1 C 6,4 km/h (2 Bft) 97,87 %
14.10.2017 02:44 9,1 C 11,7 C 94 % 1027,4 hPa 0,0 l/m 4,8 km/h (1 Bft) S-SW 207 0 min 0,000 mm 0,0 UV-I 0 W/m 8,2 C 9,1 C 6,4 km/h (2 Bft) 97,87 %
14.10.2017 02:46 9,0 C 11,7 C 94 % 1027,4 hPa 0,0 l/m 5,1 km/h (1 Bft) SW 219 0 min 0,000 mm 0,0 UV-I 0 W/m 8,1 C 9,0 C 6,4 km/h (2 Bft) 96,23 %
14.10.2017 02:48 9,0 C 11,7 C 94 % 1027,4 hPa 0,0 l/m 4,2 km/h (1 Bft) S-SW 196 0 min 0,000 mm 0,0 UV-I 0 W/m 8,1 C 9,0 C 8,0 km/h (2 Bft) 97,62 %
14.10.2017 02:50 9,0 C 11,7 C 95 % 1027,4 hPa 0,0 l/m 4,6 km/h (1 Bft) SW 218 0 min 0,000 mm 0,0 UV-I 0 W/m 8,2 C 9,0 C 6,4 km/h (2 Bft) 95,12 %
14.10.2017 02:52 9,0 C 11,7 C 95 % 1027,4 hPa 0,0 l/m 3,6 km/h (1 Bft) S-SW 205 0 min 0,000 mm 0,0 UV-I 0 W/m 8,2 C 9,0 C 4,8 km/h (1 Bft) 98,00 %
14.10.2017 02:54 9,0 C 11,7 C 95 % 1027,4 hPa 0,0 l/m 4,5 km/h (1 Bft) S-SW 209 0 min 0,000 mm 0,0 UV-I 0 W/m 8,2 C 9,0 C 8,0 km/h (2 Bft) 98,00 %
14.10.2017 02:56 9,0 C 11,7 C 95 % 1027,4 hPa 0,0 l/m 4,8 km/h (1 Bft) SW 219 0 min 0,000 mm 0,0 UV-I 0 W/m 8,2 C 9,0 C 6,4 km/h (2 Bft) 95,12 %
14.10.2017 02:58 9,1 C 11,7 C 95 % 1027,4 hPa 0,0 l/m 3,9 km/h (1 Bft) S-SW 212 0 min 0,000 mm 0,0 UV-I 0 W/m 8,3 C 9,1 C 6,4 km/h (2 Bft) 98,21 %
14.10.2017 03:00 9,1 C 11,7 C 95 % 1027,4 hPa 0,0 l/m 4,5 km/h (1 Bft) SW 219 0 min 0,000 mm 0,0 UV-I 0 W/m 8,3 C 9,1 C 8,0 km/h (2 Bft) 97,56 %
14.10.2017 03:02 9,0 C 11,7 C 95 % 1027,4 hPa 0,0 l/m 4,4 km/h (1 Bft) S-SW 211 0 min 0,000 mm 0,0 UV-I 0 W/m 8,2 C 9,0 C 6,4 km/h (2 Bft) 97,73 %
14.10.2017 03:04 9,0 C 11,7 C 95 % 1027,4 hPa 0,0 l/m 4,3 km/h (1 Bft) S-SW 205 0 min 0,000 mm 0,0 UV-I 0 W/m 8,2 C 9,0 C 6,4 km/h (2 Bft) 98,11 %
14.10.2017 03:06 9,0 C 11,7 C 95 % 1027,4 hPa 0,0 l/m 3,5 km/h (1 Bft) S 188 0 min 0,000 mm 0,0 UV-I 0 W/m 8,2 C 9,0 C 4,8 km/h (1 Bft) 98,00 %
14.10.2017 03:08 8,9 C 11,7 C 95 % 1027,4 hPa 0,0 l/m 3,3 km/h (1 Bft) S-SW 196 0 min 0,000 mm 0,0 UV-I 0 W/m 8,1 C 8,9 C 4,8 km/h (1 Bft) 97,22 %
14.10.2017 03:10 8,9 C 11,7 C 95 % 1027,4 hPa 0,0 l/m 2,9 km/h (1 Bft) S-SW 196 0 min 0,000 mm 0,0 UV-I 0 W/m 8,1 C 8,9 C 4,8 km/h (1 Bft) 96,43 %
14.10.2017 03:12 8,9 C 11,7 C 95 % 1027,4 hPa 0,0 l/m 1,9 km/h (1 Bft) S-SW 195 0 min 0,000 mm 0,0 UV-I 0 W/m 8,1 C 8,9 C 3,2 km/h (1 Bft) 95,74 %
14.10.2017 03:14 8,9 C 11,7 C 95 % 1027,4 hPa 0,0 l/m 3,1 km/h (1 Bft) S-SW 195 0 min 0,000 mm 0,0 UV-I 0 W/m 8,1 C 8,9 C 4,8 km/h (1 Bft) 97,37 %
14.10.2017 03:16 8,8 C 11,7 C 95 % 1027,4 hPa 0,0 l/m 0,7 km/h (0 Bft) S-SW 195 0 min 0,000 mm 0,0 UV-I 0 W/m 8,0 C 8,8 C 3,2 km/h (1 Bft) 96,00 %
14.10.2017 03:18 8,8 C 11,7 C 95 % 1027,4 hPa 0,0 l/m 1,0 km/h (0 Bft) S-SW 196 0 min 0,000 mm 0,0 UV-I 0 W/m 8,0 C 8,8 C 4,8 km/h (1 Bft) 98,11 %
14.10.2017 03:20 8,7 C 11,7 C 95 % 1027,4 hPa 0,0 l/m 1,2 km/h (1 Bft) S-SW 196 0 min 0,000 mm 0,0 UV-I 0 W/m 7,9 C 8,7 C 3,2 km/h (1 Bft) 97,37 %
14.10.2017 03:22 8,7 C 11,7 C 95 % 1027,4 hPa 0,0 l/m 1,4 km/h (1 Bft) S-SW 196 0 min 0,000 mm 0,0 UV-I 0 W/m 7,9 C 8,7 C 3,2 km/h (1 Bft) 97,87 %
14.10.2017 03:24 8,7 C 11,7 C 95 % 1027,4 hPa 0,0 l/m 1,0 km/h (0 Bft) S-SW 196 0 min 0,000 mm 0,0 UV-I 0 W/m 7,9 C 8,7 C 3,2 km/h (1 Bft) 97,87 %
14.10.2017 03:26 8,7 C 11,7 C 95 % 1027,4 hPa 0,0 l/m 0,0 km/h (0 Bft) S-SW 196 0 min 0,000 mm 0,0 UV-I 0 W/m 7,9 C 8,7 C 1,6 km/h (1 Bft) 100,00 %
14.10.2017 03:28 8,7 C 11,7 C 95 % 1027,4 hPa 0,0 l/m 0,0 km/h (0 Bft) S-SW 196 0 min 0,000 mm 0,0 UV-I 0 W/m 7,9 C 8,7 C 0,0 km/h (0 Bft) 100,00 %
14.10.2017 03:30 8,7 C 11,7 C 95 % 1027,4 hPa 0,0 l/m 0,1 km/h (0 Bft) S-SW 196 0 min 0,000 mm 0,0 UV-I 0 W/m 7,9 C 8,7 C 1,6 km/h (1 Bft) 98,11 %
14.10.2017 03:32 8,6 C 11,7 C 95 % 1027,4 hPa 0,0 l/m 0,0 km/h (0 Bft) S-SW 196 0 min 0,000 mm 0,0 UV-I 0 W/m 7,8 C 8,6 C 0,0 km/h (0 Bft) 97,37 %
14.10.2017 03:34 8,6 C 11,7 C 95 % 1027,4 hPa 0,0 l/m 0,4 km/h (0 Bft) S-SW 196 0 min 0,000 mm 0,0 UV-I 0 W/m 7,8 C 8,6 C 1,6 km/h (1 Bft) 100,00 %
14.10.2017 03:36 8,6 C 11,7 C 95 % 1027,4 hPa 0,0 l/m 0,0 km/h (0 Bft) S-SW 196 0 min 0,000 mm 0,0 UV-I 0 W/m 7,8 C 8,6 C 1,6 km/h (1 Bft) 98,00 %
14.10.2017 03:38 8,5 C 11,7 C 95 % 1027,4 hPa 0,0 l/m 0,2 km/h (0 Bft) S-SW 196 0 min 0,000 mm 0,0 UV-I 0 W/m 7,7 C 8,5 C 1,6 km/h (1 Bft) 97,87 %
14.10.2017 03:40 8,6 C 11,7 C 95 % 1027,4 hPa 0,0 l/m 0,5 km/h (0 Bft) S-SW 196 0 min 0,000 mm 0,0 UV-I 0 W/m 7,8 C 8,6 C 1,6 km/h (1 Bft) 97,56 %
14.10.2017 03:42 8,5 C 11,7 C 95 % 1027,4 hPa 0,0 l/m 0,2 km/h (0 Bft) S-SW 196 0 min 0,000 mm 0,0 UV-I 0 W/m 7,7 C 8,5 C 1,6 km/h (1 Bft) 97,87 %
14.10.2017 03:44 8,5 C 11,7 C 95 % 1027,3 hPa 0,0 l/m 0,6 km/h (0 Bft) S-SW 196 0 min 0,000 mm 0,0 UV-I 0 W/m 7,7 C 8,5 C 1,6 km/h (1 Bft) 93,75 %
14.10.2017 03:46 8,4 C 11,7 C 95 % 1027,4 hPa 0,0 l/m 1,2 km/h (1 Bft) S-SW 196 0 min 0,000 mm 0,0 UV-I 0 W/m 7,6 C 8,4 C 3,2 km/h (1 Bft) 95,74 %
14.10.2017 03:48 8,4 C 11,7 C 95 % 1027,4 hPa 0,0 l/m 0,0 km/h (0 Bft) S-SW 196 0 min 0,000 mm 0,0 UV-I 0 W/m 7,6 C 8,4 C 0,0 km/h (0 Bft) 96,00 %
14.10.2017 03:50 8,4 C 11,7 C 95 % 1027,4 hPa 0,0 l/m 2,0 km/h (1 Bft) S-SW 196 0 min 0,000 mm 0,0 UV-I 0 W/m 7,6 C 8,4 C 3,2 km/h (1 Bft) 97,56 %
14.10.2017 03:52 8,4 C 11,7 C 95 % 1027,4 hPa 0,0 l/m 2,1 km/h (1 Bft) S-SW 196 0 min 0,000 mm 0,0 UV-I 0 W/m 7,6 C 8,4 C 3,2 km/h (1 Bft) 97,87 %
14.10.2017 03:54 8,4 C 11,7 C 95 % 1027,3 hPa 0,0 l/m 2,7 km/h (1 Bft) S-SW 196 0 min 0,000 mm 0,0 UV-I 0 W/m 7,6 C 8,4 C 3,2 km/h (1 Bft) 98,00 %
14.10.2017 03:56 8,3 C 11,7 C 95 % 1027,4 hPa 0,0 l/m 1,8 km/h (1 Bft) S-SW 196 0 min 0,000 mm 0,0 UV-I 0 W/m 7,5 C 8,3 C 3,2 km/h (1 Bft) 97,87 %
14.10.2017 03:58 8,3 C 11,7 C 95 % 1027,4 hPa 0,0 l/m 1,2 km/h (1 Bft) S-SW 196 0 min 0,000 mm 0,0 UV-I 0 W/m 7,5 C 8,3 C 3,2 km/h (1 Bft) 98,00 %
14.10.2017 04:00 8,2 C 11,7 C 95 % 1027,4 hPa 0,0 l/m 0,4 km/h (0 Bft) S-SW 196 0 min 0,000 mm 0,0 UV-I 0 W/m 7,4 C 8,2 C 1,6 km/h (1 Bft) 95,45 %
14.10.2017 04:02 8,1 C 11,7 C 95 % 1027,5 hPa 0,0 l/m 0,0 km/h (0 Bft) S-SW 196 0 min 0,000 mm 0,0 UV-I 0 W/m 7,3 C 8,1 C 0,0 km/h (0 Bft) 88,89 %
14.10.2017 04:04 8,1 C 11,7 C 95 % 1027,5 hPa 0,0 l/m 0,0 km/h (0 Bft) S-SW 196 0 min 0,000 mm 0,0 UV-I 0 W/m 7,3 C 8,1 C 0,0 km/h (0 Bft) 98,11 %
14.10.2017 04:06 8,0 C 11,7 C 95 % 1027,4 hPa 0,0 l/m 0,0 km/h (0 Bft) S-SW 196 0 min 0,000 mm 0,0 UV-I 0 W/m 7,2 C 8,0 C 0,0 km/h (0 Bft) 97,37 %
14.10.2017 04:08 7,9 C 11,7 C 95 % 1027,4 hPa 0,0 l/m 0,0 km/h (0 Bft) S-SW 196 0 min 0,000 mm 0,0 UV-I 0 W/m 7,1 C 7,9 C 0,0 km/h (0 Bft) 98,00 %
14.10.2017 04:10 7,8 C 11,7 C 95 % 1027,5 hPa 0,0 l/m 1,8 km/h (1 Bft) S-SW 196 0 min 0,000 mm 0,0 UV-I 0 W/m 7,0 C 7,8 C 3,2 km/h (1 Bft) 97,14 %
14.10.2017 04:12 7,8 C 11,7 C 95 % 1027,4 hPa 0,0 l/m 1,3 km/h (1 Bft) S-SW 196 0 min 0,000 mm 0,0 UV-I 0 W/m 7,0 C 7,8 C 3,2 km/h (1 Bft) 98,21 %
14.10.2017 04:14 7,9 C 11,7 C 96 % 1027,4 hPa 0,0 l/m 0,0 km/h (0 Bft) S-SW 196 0 min 0,000 mm 0,0 UV-I 0 W/m 7,3 C 7,9 C 1,6 km/h (1 Bft) 98,00 %
14.10.2017 04:16 7,9 C 11,7 C 96 % 1027,4 hPa 0,0 l/m 0,0 km/h (0 Bft) S-SW 196 0 min 0,000 mm 0,0 UV-I 0 W/m 7,3 C 7,9 C 0,0 km/h (0 Bft) 98,00 %
14.10.2017 04:18 7,8 C 11,7 C 96 % 1027,4 hPa 0,0 l/m 0,0 km/h (0 Bft) S-SW 196 0 min 0,000 mm 0,0 UV-I 0 W/m 7,2 C 7,8 C 0,0 km/h (0 Bft) 100,00 %
14.10.2017 04:20 7,8 C 11,7 C 95 % 1027,5 hPa 0,0 l/m 0,0 km/h (0 Bft) S-SW 196 0 min 0,000 mm 0,0 UV-I 0 W/m 7,0 C 7,8 C 0,0 km/h (0 Bft) 98,00 %
14.10.2017 04:22 7,7 C 11,7 C 95 % 1027,4 hPa 0,0 l/m 0,1 km/h (0 Bft) S-SW 196 0 min 0,000 mm 0,0 UV-I 0 W/m 7,0 C 7,7 C 1,6 km/h (1 Bft) 97,87 %
14.10.2017 04:24 7,7 C 11,7 C 95 % 1027,4 hPa 0,0 l/m 0,2 km/h (0 Bft) S-SW 196 0 min 0,000 mm 0,0 UV-I 0 W/m 7,0 C 7,7 C 1,6 km/h (1 Bft) 100,00 %
14.10.2017 04:26 7,7 C 11,7 C 95 % 1027,5 hPa 0,0 l/m 0,0 km/h (0 Bft) S-SW 196 0 min 0,000 mm 0,0 UV-I 0 W/m 7,0 C 7,7 C 1,6 km/h (1 Bft) 97,87 %
14.10.2017 04:28 7,6 C 11,7 C 95 % 1027,5 hPa 0,0 l/m 0,0 km/h (0 Bft) S-SW 196 0 min 0,000 mm 0,0 UV-I 0 W/m 6,9 C 7,6 C 0,0 km/h (0 Bft) 97,87 %
14.10.2017 04:30 7,4 C 11,7 C 95 % 1027,5 hPa 0,0 l/m 0,0 km/h (0 Bft) S-SW 196 0 min 0,000 mm 0,0 UV-I 0 W/m 6,7 C 7,4 C 0,0 km/h (0 Bft) 100,00 %
14.10.2017 04:32 7,4 C 11,7 C 96 % 1027,5 hPa 0,0 l/m 0,0 km/h (0 Bft) S-SW 196 0 min 0,000 mm 0,0 UV-I 0 W/m 6,8 C 7,4 C 0,0 km/h (0 Bft) 100,00 %
14.10.2017 04:34 7,4 C 11,7 C 95 % 1027,5 hPa 0,0 l/m 0,0 km/h (0 Bft) S-SW 196 0 min 0,000 mm 0,0 UV-I 0 W/m 6,7 C 7,4 C 0,0 km/h (0 Bft) 100,00 %
14.10.2017 04:36 7,4 C 11,7 C 96 % 1027,6 hPa 0,0 l/m 0,0 km/h (0 Bft) S-SW 196 0 min 0,000 mm 0,0 UV-I 0 W/m 6,8 C 7,4 C 0,0 km/h (0 Bft) 100,00 %
14.10.2017 04:38 7,4 C 11,7 C 96 % 1027,6 hPa 0,0 l/m 0,0 km/h (0 Bft) S-SW 196 0 min 0,000 mm 0,0 UV-I 0 W/m 6,8 C 7,4 C 0,0 km/h (0 Bft) 100,00 %
14.10.2017 04:40 7,4 C 11,7 C 96 % 1027,6 hPa 0,0 l/m 0,0 km/h (0 Bft) S-SW 196 0 min 0,000 mm 0,0 UV-I 0 W/m 6,8 C 7,4 C 0,0 km/h (0 Bft) 100,00 %
14.10.2017 04:42 7,4 C 11,7 C 96 % 1027,6 hPa 0,0 l/m 0,0 km/h (0 Bft) S-SW 196 0 min 0,000 mm 0,0 UV-I 0 W/m 6,8 C 7,4 C 0,0 km/h (0 Bft) 100,00 %
14.10.2017 04:44 7,4 C 11,7 C 96 % 1027,6 hPa 0,0 l/m 0,0 km/h (0 Bft) S-SW 196 0 min 0,000 mm 0,0 UV-I 0 W/m 6,8 C 7,4 C 0,0 km/h (0 Bft) 100,00 %
14.10.2017 04:46 7,3 C 11,7 C 96 % 1027,6 hPa 0,0 l/m 0,0 km/h (0 Bft) S-SW 196 0 min 0,000 mm 0,0 UV-I 0 W/m 6,7 C 7,3 C 0,0 km/h (0 Bft) 100,00 %
14.10.2017 04:48 7,4 C 11,7 C 96 % 1027,6 hPa 0,0 l/m 0,0 km/h (0 Bft) S-SW 196 0 min 0,000 mm 0,0 UV-I 0 W/m 6,8 C 7,4 C 0,0 km/h (0 Bft) 100,00 %
14.10.2017 04:50 7,4 C 11,7 C 96 % 1027,7 hPa 0,0 l/m 0,0 km/h (0 Bft) S-SW 196 0 min 0,000 mm 0,0 UV-I 0 W/m 6,8 C 7,4 C 0,0 km/h (0 Bft) 100,00 %
14.10.2017 04:52 7,3 C 11,7 C 96 % 1027,7 hPa 0,0 l/m 0,2 km/h (0 Bft) S-SW 196 0 min 0,000 mm 0,0 UV-I 0 W/m 6,7 C 7,3 C 1,6 km/h (1 Bft) 100,00 %
14.10.2017 04:54 7,3 C 11,7 C 96 % 1027,7 hPa 0,0 l/m 0,2 km/h (0 Bft) S-SW 196 0 min 0,000 mm 0,0 UV-I 0 W/m 6,7 C 7,3 C 1,6 km/h (1 Bft) 100,00 %
14.10.2017 04:56 7,3 C 11,7 C 96 % 1027,7 hPa 0,0 l/m 0,0 km/h (0 Bft) S-SW 196 0 min 0,000 mm 0,0 UV-I 0 W/m 6,7 C 7,3 C 1,6 km/h (1 Bft) 98,00 %
14.10.2017 04:58 7,3 C 11,7 C 96 % 1027,7 hPa 0,0 l/m 0,0 km/h (0 Bft) S-SW 196 0 min 0,000 mm 0,0 UV-I 0 W/m 6,7 C 7,3 C 0,0 km/h (0 Bft) 100,00 %
14.10.2017 05:00 7,3 C 11,7 C 96 % 1027,7 hPa 0,0 l/m 0,0 km/h (0 Bft) S-SW 196 0 min 0,000 mm 0,0 UV-I 0 W/m 6,7 C 7,3 C 0,0 km/h (0 Bft) 100,00 %
14.10.2017 05:02 7,3 C 11,7 C 96 % 1027,7 hPa 0,0 l/m 0,0 km/h (0 Bft) S-SW 196 0 min 0,000 mm 0,0 UV-I 0 W/m 6,7 C 7,3 C 0,0 km/h (0 Bft) 100,00 %
14.10.2017 05:04 7,3 C 11,7 C 96 % 1027,7 hPa 0,0 l/m 0,4 km/h (0 Bft) S-SW 196 0 min 0,000 mm 0,0 UV-I 0 W/m 6,7 C 7,3 C 1,6 km/h (1 Bft) 100,00 %
14.10.2017 05:06 7,3 C 11,7 C 96 % 1027,7 hPa 0,0 l/m 0,8 km/h (0 Bft) S-SW 196 0 min 0,000 mm 0,0 UV-I 0 W/m 6,7 C 7,3 C 1,6 km/h (1 Bft) 100,00 %
14.10.2017 05:08 7,2 C 11,7 C 96 % 1027,7 hPa 0,0 l/m 1,7 km/h (1 Bft) W-SW 255 0 min 0,000 mm 0,0 UV-I 0 W/m 6,6 C 7,2 C 4,8 km/h (1 Bft) 100,00 %
14.10.2017 05:10 7,2 C 11,7 C 96 % 1027,7 hPa 0,0 l/m 1,5 km/h (1 Bft) W-SW 255 0 min 0,000 mm 0,0 UV-I 0 W/m 6,6 C 7,2 C 3,2 km/h (1 Bft) 100,00 %
14.10.2017 05:12 7,2 C 11,7 C 96 % 1027,8 hPa 0,0 l/m 0,4 km/h (0 Bft) W-SW 255 0 min 0,000 mm 0,0 UV-I 0 W/m 6,6 C 7,2 C 1,6 km/h (1 Bft) 98,11 %
14.10.2017 05:14 7,2 C 11,7 C 96 % 1027,8 hPa 0,0 l/m 1,1 km/h (1 Bft) W-SW 255 0 min 0,000 mm 0,0 UV-I 0 W/m 6,6 C 7,2 C 3,2 km/h (1 Bft) 100,00 %
14.10.2017 05:16 7,2 C 11,7 C 96 % 1027,8 hPa 0,0 l/m 2,8 km/h (1 Bft) W-SW 255 0 min 0,000 mm 0,0 UV-I 0 W/m 6,6 C 7,2 C 4,8 km/h (1 Bft) 100,00 %
14.10.2017 05:18 7,2 C 11,7 C 96 % 1027,8 hPa 0,0 l/m 2,6 km/h (1 Bft) W-SW 255 0 min 0,000 mm 0,0 UV-I 0 W/m 6,6 C 7,2 C 4,8 km/h (1 Bft) 100,00 %
14.10.2017 05:20 7,2 C 11,7 C 96 % 1027,8 hPa 0,0 l/m 0,8 km/h (0 Bft) W-SW 255 0 min 0,000 mm 0,0 UV-I 0 W/m 6,6 C 7,2 C 1,6 km/h (1 Bft) 100,00 %
14.10.2017 05:22 7,1 C 11,7 C 96 % 1027,8 hPa 0,0 l/m 2,7 km/h (1 Bft) S 180 0 min 0,000 mm 0,0 UV-I 0 W/m 6,5 C 7,1 C 4,8 km/h (1 Bft) 100,00 %
14.10.2017 05:24 6,9 C 11,7 C 96 % 1027,8 hPa 0,0 l/m 3,0 km/h (1 Bft) S-SW 192 0 min 0,000 mm 0,0 UV-I 0 W/m 6,3 C 6,9 C 4,8 km/h (1 Bft) 100,00 %
14.10.2017 05:26 6,9 C 11,7 C 96 % 1027,8 hPa 0,0 l/m 2,5 km/h (1 Bft) S 191 0 min 0,000 mm 0,0 UV-I 0 W/m 6,3 C 6,9 C 6,4 km/h (2 Bft) 100,00 %
14.10.2017 05:28 7,1 C 11,7 C 96 % 1027,8 hPa 0,0 l/m 1,7 km/h (1 Bft) S 191 0 min 0,000 mm 0,0 UV-I 0 W/m 6,5 C 7,1 C 3,2 km/h (1 Bft) 98,00 %
14.10.2017 05:30 7,1 C 11,7 C 96 % 1027,8 hPa 0,0 l/m 2,5 km/h (1 Bft) S 190 0 min 0,000 mm 0,0 UV-I 0 W/m 6,5 C 7,1 C 4,8 km/h (1 Bft) 100,00 %
14.10.2017 05:32 7,2 C 11,7 C 96 % 1027,8 hPa 0,0 l/m 2,8 km/h (1 Bft) S 190 0 min 0,000 mm 0,0 UV-I 0 W/m 6,6 C 7,2 C 4,8 km/h (1 Bft) 100,00 %
14.10.2017 05:34 7,2 C 11,7 C 96 % 1027,8 hPa 0,0 l/m 1,6 km/h (1 Bft) S 190 0 min 0,000 mm 0,0 UV-I 0 W/m 6,6 C 7,2 C 3,2 km/h (1 Bft) 100,00 %
14.10.2017 05:36 7,3 C 11,7 C 96 % 1027,8 hPa 0,0 l/m 2,3 km/h (1 Bft) S 190 0 min 0,000 mm 0,0 UV-I 0 W/m 6,7 C 7,3 C 4,8 km/h (1 Bft) 100,00 %
14.10.2017 05:38 7,3 C 11,7 C 96 % 1027,8 hPa 0,0 l/m 2,2 km/h (1 Bft) S 189 0 min 0,000 mm 0,0 UV-I 0 W/m 6,7 C 7,3 C 4,8 km/h (1 Bft) 97,87 %
14.10.2017 05:40 7,4 C 11,7 C 96 % 1027,9 hPa 0,0 l/m 2,0 km/h (1 Bft) S 186 0 min 0,000 mm 0,0 UV-I 0 W/m 6,8 C 7,4 C 4,8 km/h (1 Bft) 100,00 %
14.10.2017 05:42 7,5 C 11,7 C 97 % 1027,8 hPa 0,0 l/m 2,0 km/h (1 Bft) S-SW 202 0 min 0,000 mm 0,0 UV-I 0 W/m 7,1 C 7,5 C 4,8 km/h (1 Bft) 98,11 %
14.10.2017 05:44 7,4 C 11,7 C 96 % 1027,9 hPa 0,0 l/m 2,7 km/h (1 Bft) S 187 0 min 0,000 mm 0,0 UV-I 0 W/m 6,8 C 7,4 C 6,4 km/h (2 Bft) 97,44 %
14.10.2017 05:46 7,4 C 11,7 C 96 % 1027,9 hPa 0,0 l/m 3,0 km/h (1 Bft) S 172 0 min 0,000 mm 0,0 UV-I 0 W/m 6,8 C 7,4 C 6,4 km/h (2 Bft) 94,55 %
14.10.2017 05:48 7,4 C 11,7 C 96 % 1027,9 hPa 0,0 l/m 1,6 km/h (1 Bft) S 183 0 min 0,000 mm 0,0 UV-I 0 W/m 6,8 C 7,4 C 4,8 km/h (1 Bft) 97,92 %
14.10.2017 05:50 7,4 C 11,7 C 96 % 1027,9 hPa 0,0 l/m 1,9 km/h (1 Bft) S 182 0 min 0,000 mm 0,0 UV-I 0 W/m 6,8 C 7,4 C 4,8 km/h (1 Bft) 97,14 %
14.10.2017 05:52 7,4 C 11,7 C 96 % 1028,0 hPa 0,0 l/m 1,5 km/h (1 Bft) S 182 0 min 0,000 mm 0,0 UV-I 0 W/m 6,8 C 7,4 C 3,2 km/h (1 Bft) 98,00 %
14.10.2017 05:54 7,4 C 11,7 C 96 % 1028,0 hPa 0,0 l/m 0,8 km/h (0 Bft) S 182 0 min 0,000 mm 0,0 UV-I 0 W/m 6,8 C 7,4 C 1,6 km/h (1 Bft) 93,62 %
14.10.2017 05:56 7,4 C 11,7 C 96 % 1028,0 hPa 0,0 l/m 1,4 km/h (1 Bft) S 182 0 min 0,000 mm 0,0 UV-I 0 W/m 6,8 C 7,4 C 3,2 km/h (1 Bft) 96,00 %
14.10.2017 05:58 7,6 C 11,7 C 96 % 1028,1 hPa 0,0 l/m 1,2 km/h (1 Bft) S 181 0 min 0,000 mm 0,0 UV-I 0 W/m 7,0 C 7,6 C 3,2 km/h (1 Bft) 92,68 %
14.10.2017 06:00 7,6 C 11,7 C 96 % 1028,0 hPa 0,0 l/m 1,2 km/h (1 Bft) S 180 0 min 0,000 mm 0,0 UV-I 0 W/m 7,0 C 7,6 C 3,2 km/h (1 Bft) 94,00 %
14.10.2017 06:02 7,7 C 11,7 C 97 % 1028,1 hPa 0,0 l/m 1,9 km/h (1 Bft) S 177 0 min 0,000 mm 0,0 UV-I 0 W/m 7,3 C 7,7 C 4,8 km/h (1 Bft) 93,62 %
14.10.2017 06:04 7,7 C 11,7 C 97 % 1028,0 hPa 0,0 l/m 2,0 km/h (1 Bft) S 175 0 min 0,000 mm 0,0 UV-I 0 W/m 7,3 C 7,7 C 3,2 km/h (1 Bft) 95,74 %
14.10.2017 06:06 7,7 C 11,7 C 97 % 1028,1 hPa 0,0 l/m 1,1 km/h (1 Bft) S 175 0 min 0,000 mm 0,0 UV-I 0 W/m 7,3 C 7,7 C 3,2 km/h (1 Bft) 94,34 %
14.10.2017 06:08 7,7 C 11,7 C 97 % 1028,1 hPa 0,0 l/m 0,7 km/h (0 Bft) S 175 0 min 0,000 mm 0,0 UV-I 0 W/m 7,3 C 7,7 C 1,6 km/h (1 Bft) 94,74 %
14.10.2017 06:10 7,7 C 11,7 C 97 % 1028,1 hPa 0,0 l/m 0,2 km/h (0 Bft) S 175 0 min 0,000 mm 0,0 UV-I 0 W/m 7,3 C 7,7 C 1,6 km/h (1 Bft) 96,00 %
14.10.2017 06:12 7,7 C 11,7 C 96 % 1028,2 hPa 0,0 l/m 1,1 km/h (1 Bft) S 175 0 min 0,000 mm 0,0 UV-I 0 W/m 7,1 C 7,7 C 3,2 km/h (1 Bft) 96,23 %
14.10.2017 06:14 7,6 C 11,7 C 96 % 1028,1 hPa 0,0 l/m 1,7 km/h (1 Bft) S 175 0 min 0,000 mm 0,0 UV-I 0 W/m 7,0 C 7,6 C 3,2 km/h (1 Bft) 97,37 %
14.10.2017 06:16 7,5 C 11,7 C 96 % 1028,1 hPa 0,0 l/m 1,5 km/h (1 Bft) S 175 0 min 0,000 mm 0,0 UV-I 0 W/m 6,9 C 7,5 C 4,8 km/h (1 Bft) 96,23 %
14.10.2017 06:18 7,4 C 11,7 C 96 % 1028,2 hPa 0,0 l/m 2,0 km/h (1 Bft) S 175 0 min 0,000 mm 0,0 UV-I 0 W/m 6,8 C 7,4 C 3,2 km/h (1 Bft) 92,00 %
14.10.2017 06:20 7,3 C 11,7 C 96 % 1028,2 hPa 0,0 l/m 3,1 km/h (1 Bft) S 176 0 min 0,000 mm 0,0 UV-I 0 W/m 6,7 C 7,3 C 4,8 km/h (1 Bft) 95,74 %
14.10.2017 06:22 7,3 C 11,7 C 96 % 1028,2 hPa 0,0 l/m 2,3 km/h (1 Bft) S 176 0 min 0,000 mm 0,0 UV-I 0 W/m 6,7 C 7,3 C 4,8 km/h (1 Bft) 94,87 %
14.10.2017 06:24 7,3 C 11,7 C 96 % 1028,2 hPa 0,0 l/m 1,7 km/h (1 Bft) S 176 0 min 0,000 mm 0,0 UV-I 0 W/m 6,7 C 7,3 C 3,2 km/h (1 Bft) 94,00 %
14.10.2017 06:26 7,4 C 11,7 C 96 % 1028,2 hPa 0,0 l/m 1,5 km/h (1 Bft) S 176 0 min 0,000 mm 0,0 UV-I 0 W/m 6,8 C 7,4 C 3,2 km/h (1 Bft) 93,18 %
14.10.2017 06:28 7,4 C 11,7 C 97 % 1028,2 hPa 0,0 l/m 2,0 km/h (1 Bft) S 176 0 min 0,000 mm 0,0 UV-I 0 W/m 7,0 C 7,4 C 3,2 km/h (1 Bft) 92,45 %
14.10.2017 06:30 7,3 C 11,7 C 96 % 1028,2 hPa 0,0 l/m 1,5 km/h (1 Bft) S 176 0 min 0,000 mm 0,0 UV-I 0 W/m 6,7 C 7,3 C 3,2 km/h (1 Bft) 97,37 %
14.10.2017 06:32 7,3 C 11,7 C 96 % 1028,2 hPa 0,0 l/m 1,8 km/h (1 Bft) S 176 0 min 0,000 mm 0,0 UV-I 0 W/m 6,7 C 7,3 C 3,2 km/h (1 Bft) 94,74 %
14.10.2017 06:34 7,3 C 11,7 C 96 % 1028,2 hPa 0,0 l/m 2,0 km/h (1 Bft) S 176 0 min 0,000 mm 0,0 UV-I 0 W/m 6,7 C 7,3 C 3,2 km/h (1 Bft) 98,39 %
14.10.2017 06:36 7,3 C 11,7 C 96 % 1028,2 hPa 0,0 l/m 1,5 km/h (1 Bft) S 176 0 min 0,000 mm 0,0 UV-I 0 W/m 6,7 C 7,3 C 3,2 km/h (1 Bft) 97,87 %
14.10.2017 06:38 7,2 C 11,7 C 96 % 1028,2 hPa 0,0 l/m 1,0 km/h (0 Bft) S 176 0 min 0,000 mm 0,0 UV-I 0 W/m 6,6 C 7,2 C 3,2 km/h (1 Bft) 95,12 %
14.10.2017 06:40 7,1 C 11,7 C 96 % 1028,2 hPa 0,0 l/m 0,8 km/h (0 Bft) S 176 0 min 0,000 mm 0,0 UV-I 0 W/m 6,5 C 7,1 C 3,2 km/h (1 Bft) 96,00 %
14.10.2017 06:42 7,0 C 11,7 C 96 % 1028,2 hPa 0,0 l/m 1,1 km/h (1 Bft) S 176 0 min 0,000 mm 0,0 UV-I 0 W/m 6,4 C 7,0 C 3,2 km/h (1 Bft) 98,00 %
14.10.2017 06:44 6,9 C 11,7 C 96 % 1028,2 hPa 0,0 l/m 1,1 km/h (1 Bft) S 175 0 min 0,000 mm 0,0 UV-I 0 W/m 6,3 C 6,9 C 1,6 km/h (1 Bft) 100,00 %
14.10.2017 06:46 6,9 C 11,7 C 96 % 1028,1 hPa 0,0 l/m 2,3 km/h (1 Bft) S 176 0 min 0,000 mm 0,0 UV-I 0 W/m 6,3 C 6,9 C 4,8 km/h (1 Bft) 100,00 %
14.10.2017 06:48 6,8 C 11,7 C 96 % 1028,1 hPa 0,0 l/m 1,8 km/h (1 Bft) S 176 0 min 0,000 mm 0,0 UV-I 0 W/m 6,2 C 6,8 C 3,2 km/h (1 Bft) 98,00 %
14.10.2017 06:50 6,8 C 11,7 C 96 % 1028,1 hPa 0,0 l/m 0,8 km/h (0 Bft) S 176 0 min 0,000 mm 0,0 UV-I 0 W/m 6,2 C 6,8 C 1,6 km/h (1 Bft) 100,00 %
14.10.2017 06:52 6,8 C 11,7 C 96 % 1028,1 hPa 0,0 l/m 0,3 km/h (0 Bft) S 176 0 min 0,000 mm 0,0 UV-I 0 W/m 6,2 C 6,8 C 1,6 km/h (1 Bft) 100,00 %
14.10.2017 06:54 6,8 C 11,7 C 96 % 1028,2 hPa 0,0 l/m 0,5 km/h (0 Bft) S 175 0 min 0,000 mm 0,0 UV-I 0 W/m 6,2 C 6,8 C 1,6 km/h (1 Bft) 100,00 %
14.10.2017 06:56 6,8 C 11,7 C 96 % 1028,2 hPa 0,0 l/m 0,4 km/h (0 Bft) S 175 0 min 0,000 mm 0,0 UV-I 0 W/m 6,2 C 6,8 C 1,6 km/h (1 Bft) 100,00 %
14.10.2017 06:58 6,8 C 11,7 C 96 % 1028,1 hPa 0,0 l/m 1,6 km/h (1 Bft) S 175 0 min 0,000 mm 0,0 UV-I 0 W/m 6,2 C 6,8 C 3,2 km/h (1 Bft) 97,73 %
14.10.2017 07:00 6,8 C 11,7 C 96 % 1028,2 hPa 0,0 l/m 1,4 km/h (1 Bft) S 176 0 min 0,000 mm 0,0 UV-I 0 W/m 6,2 C 6,8 C 3,2 km/h (1 Bft) 100,00 %
14.10.2017 07:02 6,8 C 11,7 C 96 % 1028,1 hPa 0,0 l/m 1,5 km/h (1 Bft) S 176 0 min 0,000 mm 0,0 UV-I 0 W/m 6,2 C 6,8 C 3,2 km/h (1 Bft) 98,53 %
14.10.2017 07:04 6,8 C 11,7 C 96 % 1028,2 hPa 0,0 l/m 1,3 km/h (1 Bft) S 176 0 min 0,000 mm 0,0 UV-I 0 W/m 6,2 C 6,8 C 3,2 km/h (1 Bft) 100,00 %
14.10.2017 07:06 6,8 C 11,7 C 96 % 1028,3 hPa 0,0 l/m 0,5 km/h (0 Bft) S 176 0 min 0,000 mm 0,0 UV-I 0 W/m 6,2 C 6,8 C 3,2 km/h (1 Bft) 100,00 %
14.10.2017 07:08 6,8 C 11,7 C 96 % 1028,2 hPa 0,0 l/m 0,0 km/h (0 Bft) S 176 0 min 0,000 mm 0,0 UV-I 0 W/m 6,2 C 6,8 C 0,0 km/h (0 Bft) 100,00 %
14.10.2017 07:10 6,8 C 11,7 C 96 % 1028,2 hPa 0,0 l/m 0,0 km/h (0 Bft) S 176 0 min 0,000 mm 0,0 UV-I 0 W/m 6,2 C 6,8 C 0,0 km/h (0 Bft) 100,00 %
14.10.2017 07:12 6,8 C 11,7 C 96 % 1028,3 hPa 0,0 l/m 0,0 km/h (0 Bft) S 176 0 min 0,000 mm 0,0 UV-I 2 W/m 6,2 C 6,8 C 0,0 km/h (0 Bft) 100,00 %
14.10.2017 07:14 6,8 C 11,7 C 96 % 1028,3 hPa 0,0 l/m 0,0 km/h (0 Bft) S 176 0 min 0,000 mm 0,0 UV-I 5 W/m 6,2 C 6,8 C 0,0 km/h (0 Bft) 100,00 %
14.10.2017 07:16 6,7 C 11,7 C 96 % 1028,3 hPa 0,0 l/m 0,0 km/h (0 Bft) S 176 0 min 0,000 mm 0,0 UV-I 5 W/m 6,1 C 6,7 C 0,0 km/h (0 Bft) 100,00 %
14.10.2017 07:18 6,7 C 11,7 C 96 % 1028,3 hPa 0,0 l/m 0,0 km/h (0 Bft) S 176 0 min 0,000 mm 0,0 UV-I 5 W/m 6,1 C 6,7 C 0,0 km/h (0 Bft) 100,00 %
14.10.2017 07:20 6,6 C 11,7 C 96 % 1028,3 hPa 0,0 l/m 0,0 km/h (0 Bft) S 176 0 min 0,000 mm 0,0 UV-I 5 W/m 6,0 C 6,6 C 0,0 km/h (0 Bft) 100,00 %
14.10.2017 07:22 6,4 C 11,7 C 96 % 1028,4 hPa 0,0 l/m 0,0 km/h (0 Bft) S 176 0 min 0,000 mm 0,0 UV-I 7 W/m 5,8 C 6,4 C 0,0 km/h (0 Bft) 100,00 %
14.10.2017 07:24 6,3 C 11,7 C 96 % 1028,4 hPa 0,0 l/m 0,0 km/h (0 Bft) S 176 0 min 0,000 mm 0,0 UV-I 7 W/m 5,7 C 6,3 C 0,0 km/h (0 Bft) 100,00 %
14.10.2017 07:26 6,3 C 11,7 C 96 % 1028,4 hPa 0,0 l/m 0,0 km/h (0 Bft) S 176 0 min 0,000 mm 0,0 UV-I 7 W/m 5,7 C 6,3 C 0,0 km/h (0 Bft) 100,00 %
14.10.2017 07:28 6,4 C 11,7 C 96 % 1028,4 hPa 0,0 l/m 0,0 km/h (0 Bft) S 176 0 min 0,000 mm 0,0 UV-I 9 W/m 5,8 C 6,4 C 0,0 km/h (0 Bft) 100,00 %
14.10.2017 07:30 6,3 C 11,7 C 96 % 1028,4 hPa 0,0 l/m 0,0 km/h (0 Bft) S 176 0 min 0,000 mm 0,0 UV-I 9 W/m 5,7 C 6,3 C 0,0 km/h (0 Bft) 100,00 %
14.10.2017 07:32 6,3 C 11,7 C 96 % 1028,5 hPa 0,0 l/m 0,0 km/h (0 Bft) S 176 2 min 0,000 mm 0,0 UV-I 10 W/m 5,7 C 6,3 C 0,0 km/h (0 Bft) 100,00 %
14.10.2017 07:34 6,2 C 11,7 C 96 % 1028,4 hPa 0,0 l/m 0,0 km/h (0 Bft) S 176 0 min 0,000 mm 0,0 UV-I 11 W/m 5,6 C 6,2 C 0,0 km/h (0 Bft) 100,00 %
14.10.2017 07:36 6,1 C 11,7 C 96 % 1028,5 hPa 0,0 l/m 0,0 km/h (0 Bft) S 176 0 min 0,000 mm 0,0 UV-I 11 W/m 5,5 C 6,1 C 0,0 km/h (0 Bft) 98,11 %
14.10.2017 07:38 5,9 C 11,7 C 96 % 1028,5 hPa 0,0 l/m 0,0 km/h (0 Bft) S 176 0 min 0,000 mm 0,0 UV-I 12 W/m 5,3 C 5,9 C 0,0 km/h (0 Bft) 100,00 %
14.10.2017 07:40 5,9 C 11,7 C 96 % 1028,6 hPa 0,0 l/m 0,0 km/h (0 Bft) S 176 0 min 0,000 mm 0,0 UV-I 12 W/m 5,3 C 5,9 C 0,0 km/h (0 Bft) 97,87 %
14.10.2017 07:42 5,9 C 11,7 C 96 % 1028,6 hPa 0,0 l/m 0,0 km/h (0 Bft) S 176 0 min 0,000 mm 0,0 UV-I 14 W/m 5,3 C 5,9 C 0,0 km/h (0 Bft) 100,00 %
14.10.2017 07:44 6,0 C 11,7 C 97 % 1028,5 hPa 0,0 l/m 0,0 km/h (0 Bft) S 175 0 min 0,000 mm 0,0 UV-I 14 W/m 5,6 C 6,0 C 0,0 km/h (0 Bft) 100,00 %
14.10.2017 07:46 6,1 C 11,7 C 97 % 1028,5 hPa 0,0 l/m 0,0 km/h (0 Bft) S 175 0 min 0,000 mm 0,0 UV-I 16 W/m 5,7 C 6,1 C 0,0 km/h (0 Bft) 100,00 %
14.10.2017 07:48 6,2 C 11,7 C 97 % 1028,6 hPa 0,0 l/m 0,0 km/h (0 Bft) S 175 0 min 0,000 mm 0,0 UV-I 18 W/m 5,8 C 6,2 C 0,0 km/h (0 Bft) 100,00 %
14.10.2017 07:50 6,3 C 11,7 C 97 % 1028,6 hPa 0,0 l/m 0,0 km/h (0 Bft) S 175 0 min 0,000 mm 0,0 UV-I 22 W/m 5,9 C 6,3 C 0,0 km/h (0 Bft) 100,00 %
14.10.2017 07:52 6,4 C 11,7 C 97 % 1028,6 hPa 0,0 l/m 0,0 km/h (0 Bft) S 175 0 min 0,000 mm 0,0 UV-I 28 W/m 6,0 C 6,4 C 0,0 km/h (0 Bft) 100,00 %
14.10.2017 07:54 6,4 C 11,7 C 97 % 1028,7 hPa 0,0 l/m 0,0 km/h (0 Bft) S 175 0 min 0,000 mm 0,0 UV-I 38 W/m 6,0 C 6,4 C 0,0 km/h (0 Bft) 98,00 %
14.10.2017 07:56 6,3 C 11,7 C 97 % 1028,7 hPa 0,0 l/m 0,0 km/h (0 Bft) S 175 2 min 0,000 mm 0,0 UV-I 47 W/m 5,9 C 6,3 C 0,0 km/h (0 Bft) 100,00 %
14.10.2017 07:58 6,2 C 11,7 C 96 % 1028,7 hPa 0,0 l/m 0,0 km/h (0 Bft) S 175 2 min 0,000 mm 0,0 UV-I 53 W/m 5,6 C 6,2 C 0,0 km/h (0 Bft) 100,00 %
14.10.2017 08:00 6,1 C 11,7 C 96 % 1028,7 hPa 0,0 l/m 0,0 km/h (0 Bft) S 175 2 min 0,000 mm 0,0 UV-I 53 W/m 5,5 C 6,1 C 0,0 km/h (0 Bft) 95,74 %
14.10.2017 08:02 6,0 C 11,7 C 96 % 1028,7 hPa 0,0 l/m 0,0 km/h (0 Bft) S 175 0 min 0,000 mm 0,0 UV-I 51 W/m 5,4 C 6,0 C 0,0 km/h (0 Bft) 100,00 %
14.10.2017 08:04 5,9 C 11,7 C 96 % 1028,7 hPa 0,0 l/m 0,0 km/h (0 Bft) S 175 2 min 0,000 mm 0,0 UV-I 59 W/m 5,3 C 5,9 C 0,0 km/h (0 Bft) 100,00 %
14.10.2017 08:06 5,9 C 11,7 C 96 % 1028,7 hPa 0,0 l/m 0,3 km/h (0 Bft) S 175 2 min 0,000 mm 0,0 UV-I 73 W/m 5,3 C 5,9 C 3,2 km/h (1 Bft) 100,00 %
14.10.2017 08:08 6,0 C 11,7 C 96 % 1028,8 hPa 0,0 l/m 0,4 km/h (0 Bft) S 175 2 min 0,000 mm 0,0 UV-I 84 W/m 5,4 C 6,0 C 1,6 km/h (1 Bft) 100,00 %
14.10.2017 08:10 6,1 C 11,7 C 97 % 1028,7 hPa 0,0 l/m 0,0 km/h (0 Bft) S 176 2 min 0,000 mm 0,0 UV-I 89 W/m 5,7 C 6,1 C 0,0 km/h (0 Bft) 97,56 %
14.10.2017 08:12 6,2 C 11,7 C 97 % 1028,7 hPa 0,0 l/m 0,0 km/h (0 Bft) S 175 2 min 0,000 mm 0,0 UV-I 95 W/m 5,8 C 6,2 C 1,6 km/h (1 Bft) 98,00 %
14.10.2017 08:14 6,3 C 11,7 C 97 % 1028,8 hPa 0,0 l/m 0,0 km/h (0 Bft) S 176 2 min 0,000 mm 0,0 UV-I 98 W/m 5,9 C 6,3 C 1,6 km/h (1 Bft) 97,56 %
14.10.2017 08:16 6,4 C 11,7 C 97 % 1028,7 hPa 0,0 l/m 0,5 km/h (0 Bft) S 176 2 min 0,000 mm 0,0 UV-I 103 W/m 6,0 C 6,4 C 3,2 km/h (1 Bft) 98,00 %
14.10.2017 08:18 6,5 C 11,7 C 97 % 1028,8 hPa 0,0 l/m 1,1 km/h (1 Bft) S 176 2 min 0,000 mm 0,0 UV-I 97 W/m 6,1 C 6,5 C 3,2 km/h (1 Bft) 97,44 %
14.10.2017 08:20 6,6 C 11,7 C 97 % 1028,8 hPa 0,0 l/m 1,7 km/h (1 Bft) S 176 2 min 0,000 mm 0,0 UV-I 107 W/m 6,2 C 6,6 C 3,2 km/h (1 Bft) 96,00 %
14.10.2017 08:22 6,6 C 11,7 C 97 % 1028,7 hPa 0,2 l/m 1,8 km/h (1 Bft) S 175 2 min 0,000 mm 0,0 UV-I 121 W/m 6,2 C 6,6 C 3,2 km/h (1 Bft) 96,23 %
14.10.2017 08:24 6,7 C 11,7 C 97 % 1028,7 hPa 0,0 l/m 2,4 km/h (1 Bft) S 176 2 min 0,000 mm 0,0 UV-I 128 W/m 6,3 C 6,7 C 4,8 km/h (1 Bft) 97,37 %
14.10.2017 08:26 6,8 C 11,7 C 97 % 1028,7 hPa 0,0 l/m 1,3 km/h (1 Bft) S 176 2 min 0,000 mm 0,0 UV-I 132 W/m 6,4 C 6,8 C 3,2 km/h (1 Bft) 98,21 %
14.10.2017 08:28 6,9 C 11,7 C 97 % 1028,6 hPa 0,0 l/m 1,1 km/h (1 Bft) S 175 2 min 0,000 mm 0,0 UV-I 136 W/m 6,5 C 6,9 C 3,2 km/h (1 Bft) 98,00 %
14.10.2017 08:30 7,2 C 11,7 C 97 % 1028,6 hPa 0,0 l/m 1,9 km/h (1 Bft) S 175 2 min 0,000 mm 0,0 UV-I 140 W/m 6,8 C 7,2 C 3,2 km/h (1 Bft) 97,56 %
14.10.2017 08:32 7,4 C 11,7 C 97 % 1028,7 hPa 0,0 l/m 1,6 km/h (1 Bft) S 175 2 min 0,000 mm 0,0 UV-I 144 W/m 7,0 C 7,4 C 3,2 km/h (1 Bft) 95,74 %
14.10.2017 08:34 7,6 C 11,7 C 97 % 1028,6 hPa 0,0 l/m 0,8 km/h (0 Bft) S 175 2 min 0,000 mm 0,0 UV-I 149 W/m 7,2 C 7,6 C 1,6 km/h (1 Bft) 98,00 %
14.10.2017 08:36 7,7 C 11,7 C 97 % 1028,6 hPa 0,0 l/m 1,5 km/h (1 Bft) S 175 2 min 0,000 mm 0,0 UV-I 153 W/m 7,3 C 7,7 C 4,8 km/h (1 Bft) 96,00 %
14.10.2017 08:38 7,7 C 11,7 C 97 % 1028,7 hPa 0,0 l/m 1,4 km/h (1 Bft) S 175 2 min 0,000 mm 0,0 UV-I 158 W/m 7,3 C 7,7 C 3,2 km/h (1 Bft) 100,00 %
14.10.2017 08:40 7,9 C 11,7 C 97 % 1028,7 hPa 0,0 l/m 2,2 km/h (1 Bft) S 175 2 min 0,000 mm 0,0 UV-I 162 W/m 7,5 C 7,9 C 4,8 km/h (1 Bft) 97,56 %
14.10.2017 08:43 8,2 C 11,7 C 97 % 1028,7 hPa 0,0 l/m 2,1 km/h (1 Bft) S 175 3 min 0,000 mm 0,0 UV-I 169 W/m 7,8 C 8,2 C 3,2 km/h (1 Bft) 97,56 %
14.10.2017 08:44 8,2 C 11,7 C 97 % 1028,7 hPa 0,0 l/m 2,9 km/h (1 Bft) S 175 1 min 0,000 mm 0,0 UV-I 173 W/m 7,8 C 8,2 C 4,8 km/h (1 Bft) 95,83 %
14.10.2017 08:46 8,4 C 11,7 C 97 % 1028,7 hPa 0,0 l/m 1,6 km/h (1 Bft) S 176 2 min 0,000 mm 0,0 UV-I 177 W/m 8,0 C 8,4 C 3,2 km/h (1 Bft) 97,87 %
14.10.2017 08:48 8,6 C 11,7 C 97 % 1028,7 hPa 0,0 l/m 2,8 km/h (1 Bft) SW 232 2 min 0,000 mm 0,0 UV-I 182 W/m 8,2 C 8,6 C 4,8 km/h (1 Bft) 97,37 %
14.10.2017 08:50 8,7 C 11,7 C 97 % 1028,7 hPa 0,0 l/m 3,4 km/h (1 Bft) SW 220 2 min 0,000 mm 0,0 UV-I 186 W/m 8,3 C 8,7 C 4,8 km/h (1 Bft) 100,00 %
14.10.2017 08:52 8,8 C 11,7 C 97 % 1028,7 hPa 0,0 l/m 3,9 km/h (1 Bft) SW 220 2 min 0,000 mm 0,0 UV-I 191 W/m 8,4 C 8,8 C 4,8 km/h (1 Bft) 100,00 %
14.10.2017 08:54 8,9 C 11,7 C 97 % 1028,7 hPa 0,0 l/m 3,9 km/h (1 Bft) S-SW 211 2 min 0,000 mm 0,0 UV-I 196 W/m 8,4 C 8,9 C 4,8 km/h (1 Bft) 100,00 %
14.10.2017 08:56 9,1 C 11,7 C 97 % 1028,8 hPa 0,0 l/m 1,1 km/h (1 Bft) S-SW 211 2 min 0,000 mm 0,0 UV-I 200 W/m 8,6 C 9,1 C 3,2 km/h (1 Bft) 96,72 %
14.10.2017 08:58 9,3 C 11,7 C 97 % 1028,7 hPa 0,0 l/m 1,9 km/h (1 Bft) S 174 2 min 0,000 mm 0,0 UV-I 205 W/m 8,8 C 9,3 C 3,2 km/h (1 Bft) 97,87 %
14.10.2017 09:00 9,5 C 11,7 C 97 % 1028,7 hPa 0,0 l/m 1,7 km/h (1 Bft) S 172 2 min 0,051 mm 0,0 UV-I 208 W/m 9,0 C 9,5 C 4,8 km/h (1 Bft) 97,22 %
14.10.2017 09:02 9,7 C 11,7 C 97 % 1028,8 hPa 0,0 l/m 3,7 km/h (1 Bft) S 175 2 min 0,000 mm 0,0 UV-I 213 W/m 9,2 C 9,7 C 6,4 km/h (2 Bft) 98,00 %
14.10.2017 09:04 9,8 C 11,7 C 96 % 1028,8 hPa 0,0 l/m 4,5 km/h (1 Bft) S-SW 192 2 min 0,000 mm 0,0 UV-I 219 W/m 9,2 C 9,8 C 6,4 km/h (2 Bft) 94,34 %
14.10.2017 09:06 10,0 C 11,7 C 96 % 1028,8 hPa 0,0 l/m 3,3 km/h (1 Bft) SW 220 2 min 0,000 mm 0,0 UV-I 225 W/m 9,4 C 10,0 C 4,8 km/h (1 Bft) 97,37 %
14.10.2017 09:08 10,1 C 11,7 C 96 % 1028,8 hPa 0,0 l/m 2,1 km/h (1 Bft) SW 217 2 min 0,000 mm 0,0 UV-I 229 W/m 9,5 C 10,1 C 4,8 km/h (1 Bft) 98,00 %
14.10.2017 09:10 10,2 C 11,7 C 96 % 1028,8 hPa 0,0 l/m 3,1 km/h (1 Bft) W-SW 238 2 min 0,000 mm 0,4 UV-I 233 W/m 9,6 C 10,2 C 4,8 km/h (1 Bft) 94,00 %
14.10.2017 09:12 10,2 C 11,7 C 95 % 1028,9 hPa 0,0 l/m 3,4 km/h (1 Bft) W-SW 238 2 min 0,000 mm 0,5 UV-I 238 W/m 9,4 C 10,2 C 6,4 km/h (2 Bft) 100,00 %
14.10.2017 09:14 10,3 C 11,7 C 95 % 1028,9 hPa 0,0 l/m 3,3 km/h (1 Bft) W-SW 239 2 min 0,000 mm 0,5 UV-I 243 W/m 9,5 C 10,3 C 4,8 km/h (1 Bft) 96,00 %
14.10.2017 09:16 10,4 C 11,7 C 95 % 1028,9 hPa 0,0 l/m 4,1 km/h (1 Bft) W-SW 239 2 min 0,000 mm 0,5 UV-I 248 W/m 9,6 C 10,4 C 4,8 km/h (1 Bft) 98,00 %
14.10.2017 09:18 10,6 C 11,7 C 94 % 1028,9 hPa 0,0 l/m 3,4 km/h (1 Bft) W-SW 239 2 min 0,000 mm 0,5 UV-I 253 W/m 9,7 C 10,6 C 4,8 km/h (1 Bft) 98,00 %
14.10.2017 09:20 10,7 C 11,7 C 94 % 1028,8 hPa 0,0 l/m 2,4 km/h (1 Bft) W-SW 239 2 min 0,000 mm 0,6 UV-I 260 W/m 9,8 C 10,7 C 4,8 km/h (1 Bft) 96,00 %
14.10.2017 09:22 10,8 C 11,7 C 94 % 1028,8 hPa 0,0 l/m 3,3 km/h (1 Bft) W-SW 250 2 min 0,000 mm 0,6 UV-I 268 W/m 9,9 C 10,8 C 6,4 km/h (2 Bft) 97,14 %
14.10.2017 09:24 10,9 C 11,7 C 94 % 1028,9 hPa 0,0 l/m 3,5 km/h (1 Bft) W-SW 250 2 min 0,000 mm 0,6 UV-I 272 W/m 10,0 C 10,9 C 4,8 km/h (1 Bft) 97,37 %
14.10.2017 09:26 10,9 C 11,7 C 93 % 1028,8 hPa 0,0 l/m 3,0 km/h (1 Bft) W-SW 250 2 min 0,000 mm 0,6 UV-I 274 W/m 9,8 C 10,9 C 4,8 km/h (1 Bft) 98,46 %
14.10.2017 09:28 11,1 C 11,7 C 93 % 1028,8 hPa 0,0 l/m 2,3 km/h (1 Bft) W-SW 250 2 min 0,000 mm 0,6 UV-I 286 W/m 10,0 C 11,1 C 4,8 km/h (1 Bft) 97,37 %
14.10.2017 09:30 11,2 C 11,7 C 93 % 1028,8 hPa 0,0 l/m 1,3 km/h (1 Bft) W-SW 250 2 min 0,000 mm 0,7 UV-I 294 W/m 10,1 C 11,2 C 4,8 km/h (1 Bft) 96,43 %
14.10.2017 09:32 11,3 C 11,7 C 93 % 1028,8 hPa 0,0 l/m 2,5 km/h (1 Bft) W-SW 246 2 min 0,000 mm 0,7 UV-I 300 W/m 10,2 C 11,3 C 4,8 km/h (1 Bft) 97,37 %
14.10.2017 09:34 11,3 C 11,7 C 93 % 1028,8 hPa 0,0 l/m 1,1 km/h (1 Bft) W-SW 246 2 min 0,000 mm 0,7 UV-I 305 W/m 10,2 C 11,3 C 3,2 km/h (1 Bft) 96,00 %
14.10.2017 09:36 11,4 C 11,7 C 93 % 1028,9 hPa 0,0 l/m 0,6 km/h (0 Bft) W-NW 293 2 min 0,000 mm 0,7 UV-I 309 W/m 10,3 C 11,4 C 1,6 km/h (1 Bft) 98,00 %
14.10.2017 09:38 11,6 C 11,7 C 92 % 1029,0 hPa 0,0 l/m 0,2 km/h (0 Bft) W-NW 293 2 min 0,000 mm 0,8 UV-I 315 W/m 10,3 C 11,6 C 1,6 km/h (1 Bft) 96,00 %
14.10.2017 09:40 11,7 C 11,7 C 92 % 1028,9 hPa 0,0 l/m 0,8 km/h (0 Bft) W-NW 295 2 min 0,000 mm 0,8 UV-I 319 W/m 10,4 C 11,7 C 3,2 km/h (1 Bft) 97,87 %
14.10.2017 09:42 11,8 C 11,7 C 92 % 1029,0 hPa 0,0 l/m 0,4 km/h (0 Bft) W-NW 297 2 min 0,000 mm 0,8 UV-I 323 W/m 10,5 C 11,8 C 3,2 km/h (1 Bft) 97,87 %
14.10.2017 09:44 11,9 C 11,7 C 91 % 1029,0 hPa 0,0 l/m 0,3 km/h (0 Bft) W-NW 297 2 min 0,000 mm 0,8 UV-I 329 W/m 10,5 C 11,9 C 1,6 km/h (1 Bft) 97,44 %
14.10.2017 09:46 12,1 C 11,7 C 91 % 1029,0 hPa 0,0 l/m 0,9 km/h (0 Bft) N 355 2 min 0,000 mm 0,9 UV-I 331 W/m 10,7 C 12,1 C 4,8 km/h (1 Bft) 98,00 %
14.10.2017 09:48 12,1 C 11,7 C 91 % 1029,0 hPa 0,0 l/m 2,7 km/h (1 Bft) N-NO 32 2 min 0,000 mm 0,9 UV-I 336 W/m 10,7 C 12,1 C 6,4 km/h (2 Bft) 97,56 %
14.10.2017 09:50 11,9 C 11,7 C 91 % 1029,1 hPa 0,0 l/m 5,0 km/h (1 Bft) N-NO 26 2 min 0,000 mm 0,9 UV-I 341 W/m 10,5 C 11,9 C 6,4 km/h (2 Bft) 98,11 %
14.10.2017 09:52 11,9 C 11,7 C 91 % 1029,0 hPa 0,0 l/m 3,4 km/h (1 Bft) N-NO 33 2 min 0,000 mm 0,9 UV-I 345 W/m 10,5 C 11,9 C 4,8 km/h (1 Bft) 94,00 %
14.10.2017 09:54 11,8 C 11,7 C 91 % 1029,0 hPa 0,0 l/m 5,8 km/h (2 Bft) N-NO 24 2 min 0,000 mm 0,9 UV-I 348 W/m 10,4 C 11,8 C 8,0 km/h (2 Bft) 95,74 %
14.10.2017 09:56 11,7 C 11,7 C 91 % 1029,1 hPa 0,0 l/m 6,1 km/h (2 Bft) N-NO 26 2 min 0,000 mm 1,0 UV-I 352 W/m 10,3 C 11,7 C 8,0 km/h (2 Bft) 95,12 %
14.10.2017 09:58 11,6 C 11,7 C 91 % 1029,1 hPa 0,0 l/m 5,5 km/h (1 Bft) N-NO 30 2 min 0,000 mm 1,0 UV-I 356 W/m 10,2 C 11,6 C 8,0 km/h (2 Bft) 97,87 %
14.10.2017 10:00 11,6 C 11,7 C 91 % 1029,1 hPa 0,0 l/m 4,6 km/h (1 Bft) NO 36 2 min 0,000 mm 1,0 UV-I 360 W/m 10,2 C 11,6 C 6,4 km/h (2 Bft) 95,74 %
14.10.2017 10:02 11,4 C 11,7 C 91 % 1029,1 hPa 0,0 l/m 5,6 km/h (1 Bft) NO 50 2 min 0,127 mm 1,0 UV-I 366 W/m 10,0 C 11,4 C 6,4 km/h (2 Bft) 95,45 %
14.10.2017 10:04 11,4 C 11,7 C 91 % 1029,1 hPa 0,0 l/m 4,1 km/h (1 Bft) NO 40 2 min 0,000 mm 1,0 UV-I 370 W/m 10,0 C 11,4 C 8,0 km/h (2 Bft) 94,34 %
14.10.2017 10:06 11,4 C 11,7 C 92 % 1029,1 hPa 0,0 l/m 2,7 km/h (1 Bft) NO 39 2 min 0,000 mm 1,1 UV-I 374 W/m 10,1 C 11,4 C 4,8 km/h (1 Bft) 95,45 %
14.10.2017 10:08 11,6 C 11,7 C 92 % 1029,2 hPa 0,0 l/m 3,3 km/h (1 Bft) NO 40 2 min 0,000 mm 1,1 UV-I 378 W/m 10,3 C 11,6 C 6,4 km/h (2 Bft) 96,00 %
14.10.2017 10:10 11,7 C 11,7 C 91 % 1029,1 hPa 0,0 l/m 4,4 km/h (1 Bft) NO 49 2 min 0,000 mm 1,1 UV-I 383 W/m 10,3 C 11,7 C 6,4 km/h (2 Bft) 95,74 %
14.10.2017 10:12 11,7 C 11,7 C 91 % 1029,1 hPa 0,0 l/m 4,2 km/h (1 Bft) NO 49 2 min 0,000 mm 1,1 UV-I 387 W/m 10,3 C 11,7 C 6,4 km/h (2 Bft) 95,74 %
14.10.2017 10:14 11,7 C 11,7 C 91 % 1029,1 hPa 0,0 l/m 4,2 km/h (1 Bft) NO 49 2 min 0,000 mm 1,2 UV-I 391 W/m 10,3 C 11,7 C 6,4 km/h (2 Bft) 93,62 %
14.10.2017 10:16 11,8 C 11,7 C 91 % 1029,1 hPa 0,0 l/m 3,4 km/h (1 Bft) NO 44 2 min 0,000 mm 1,2 UV-I 395 W/m 10,4 C 11,8 C 4,8 km/h (1 Bft) 93,62 %
14.10.2017 10:18 11,8 C 11,7 C 91 % 1029,1 hPa 0,0 l/m 4,0 km/h (1 Bft) NO 40 2 min 0,000 mm 1,2 UV-I 399 W/m 10,4 C 11,8 C 6,4 km/h (2 Bft) 97,44 %
14.10.2017 10:20 11,8 C 11,7 C 91 % 1029,1 hPa 0,0 l/m 4,0 km/h (1 Bft) NO 34 2 min 0,000 mm 1,2 UV-I 403 W/m 10,4 C 11,8 C 6,4 km/h (2 Bft) 92,45 %
14.10.2017 10:22 11,8 C 11,7 C 91 % 1029,1 hPa 0,0 l/m 2,8 km/h (1 Bft) NO 34 2 min 0,000 mm 1,3 UV-I 407 W/m 10,4 C 11,8 C 4,8 km/h (1 Bft) 93,75 %
14.10.2017 10:24 11,8 C 11,7 C 91 % 1029,1 hPa 0,0 l/m 1,1 km/h (1 Bft) NO 34 2 min 0,000 mm 1,3 UV-I 411 W/m 10,4 C 11,8 C 3,2 km/h (1 Bft) 96,00 %
14.10.2017 10:26 12,0 C 11,7 C 91 % 1029,0 hPa 0,0 l/m 0,5 km/h (0 Bft) NO 34 2 min 0,000 mm 1,3 UV-I 415 W/m 10,6 C 12,0 C 3,2 km/h (1 Bft) 97,37 %
14.10.2017 10:28 12,1 C 11,7 C 91 % 1029,0 hPa 0,0 l/m 1,6 km/h (1 Bft) NO 34 2 min 0,000 mm 1,3 UV-I 418 W/m 10,7 C 12,1 C 3,2 km/h (1 Bft) 98,11 %
14.10.2017 10:30 12,2 C 11,7 C 90 % 1029,0 hPa 0,0 l/m 2,5 km/h (1 Bft) NO 34 2 min 0,000 mm 1,4 UV-I 424 W/m 10,6 C 12,2 C 4,8 km/h (1 Bft) 94,74 %
14.10.2017 10:32 12,2 C 11,7 C 90 % 1029,1 hPa 0,0 l/m 1,4 km/h (1 Bft) NO 34 2 min 0,000 mm 1,4 UV-I 428 W/m 10,6 C 12,2 C 4,8 km/h (1 Bft) 98,11 %
14.10.2017 10:34 12,2 C 11,7 C 90 % 1029,1 hPa 0,0 l/m 1,3 km/h (1 Bft) NO 34 2 min 0,000 mm 1,4 UV-I 431 W/m 10,6 C 12,2 C 4,8 km/h (1 Bft) 98,00 %
14.10.2017 10:36 12,3 C 11,7 C 90 % 1029,1 hPa 0,0 l/m 2,8 km/h (1 Bft) NO 34 2 min 0,000 mm 1,5 UV-I 432 W/m 10,7 C 12,3 C 4,8 km/h (1 Bft) 97,87 %
14.10.2017 10:38 12,4 C 11,7 C 90 % 1029,1 hPa 0,0 l/m 2,5 km/h (1 Bft) NO 34 2 min 0,000 mm 1,5 UV-I 437 W/m 10,8 C 12,4 C 4,8 km/h (1 Bft) 97,62 %
14.10.2017 10:40 12,5 C 11,7 C 89 % 1029,1 hPa 0,0 l/m 0,9 km/h (0 Bft) NO 34 2 min 0,000 mm 1,5 UV-I 441 W/m 10,7 C 12,5 C 3,2 km/h (1 Bft) 96,00 %
14.10.2017 10:42 12,7 C 11,7 C 90 % 1029,0 hPa 0,0 l/m 3,0 km/h (1 Bft) NO 34 2 min 0,000 mm 1,5 UV-I 444 W/m 11,1 C 12,7 C 4,8 km/h (1 Bft) 97,92 %
14.10.2017 10:44 12,8 C 11,7 C 89 % 1029,0 hPa 0,0 l/m 1,6 km/h (1 Bft) NO 34 2 min 0,000 mm 1,6 UV-I 447 W/m 11,0 C 12,8 C 3,2 km/h (1 Bft) 97,56 %
14.10.2017 10:46 12,9 C 11,7 C 89 % 1029,0 hPa 0,0 l/m 1,5 km/h (1 Bft) NO 34 2 min 0,000 mm 1,6 UV-I 452 W/m 11,1 C 12,9 C 3,2 km/h (1 Bft) 98,00 %
14.10.2017 10:48 13,1 C 11,7 C 89 % 1029,0 hPa 0,0 l/m 0,4 km/h (0 Bft) NO 34 2 min 0,000 mm 1,6 UV-I 454 W/m 11,3 C 13,1 C 3,2 km/h (1 Bft) 96,00 %
14.10.2017 10:50 13,2 C 11,7 C 89 % 1029,0 hPa 0,0 l/m 2,6 km/h (1 Bft) NO 34 2 min 0,000 mm 1,7 UV-I 458 W/m 11,4 C 13,2 C 3,2 km/h (1 Bft) 97,37 %
14.10.2017 10:52 13,3 C 11,7 C 88 % 1029,0 hPa 0,0 l/m 2,2 km/h (1 Bft) NO 34 2 min 0,000 mm 1,7 UV-I 460 W/m 11,4 C 13,3 C 4,8 km/h (1 Bft) 98,00 %
14.10.2017 10:54 13,3 C 11,7 C 87 % 1029,0 hPa 0,0 l/m 1,5 km/h (1 Bft) NO 34 2 min 0,000 mm 1,7 UV-I 464 W/m 11,2 C 13,3 C 4,8 km/h (1 Bft) 98,00 %
14.10.2017 10:56 13,3 C 11,7 C 87 % 1029,0 hPa 0,0 l/m 0,3 km/h (0 Bft) NO 34 2 min 0,000 mm 1,7 UV-I 468 W/m 11,2 C 13,3 C 3,2 km/h (1 Bft) 97,87 %
14.10.2017 10:58 13,3 C 11,7 C 87 % 1029,0 hPa 0,0 l/m 0,5 km/h (0 Bft) NO 34 2 min 0,000 mm 1,8 UV-I 469 W/m 11,2 C 13,3 C 3,2 km/h (1 Bft) 96,00 %
14.10.2017 11:00 13,4 C 11,7 C 87 % 1029,0 hPa 0,0 l/m 0,1 km/h (0 Bft) NO 34 2 min 0,203 mm 1,8 UV-I 473 W/m 11,3 C 13,4 C 1,6 km/h (1 Bft) 97,44 %
14.10.2017 11:02 13,5 C 11,7 C 87 % 1028,9 hPa 0,0 l/m 0,6 km/h (0 Bft) NO 34 2 min 0,000 mm 1,9 UV-I 475 W/m 11,4 C 13,5 C 1,6 km/h (1 Bft) 95,74 %
14.10.2017 11:04 13,6 C 11,7 C 87 % 1028,9 hPa 0,0 l/m 0,4 km/h (0 Bft) NO 34 2 min 0,000 mm 1,9 UV-I 477 W/m 11,5 C 13,6 C 1,6 km/h (1 Bft) 96,23 %
14.10.2017 11:06 13,9 C 11,7 C 87 % 1028,9 hPa 0,0 l/m 0,2 km/h (0 Bft) NO 34 2 min 0,000 mm 1,9 UV-I 481 W/m 11,8 C 13,9 C 1,6 km/h (1 Bft) 97,87 %
14.10.2017 11:08 14,1 C 11,7 C 86 % 1028,9 hPa 0,0 l/m 0,7 km/h (0 Bft) NO 34 2 min 0,000 mm 2,0 UV-I 484 W/m 11,8 C 14,1 C 3,2 km/h (1 Bft) 96,00 %
14.10.2017 11:10 14,1 C 11,7 C 85 % 1028,9 hPa 0,0 l/m 1,2 km/h (1 Bft) NO 34 2 min 0,000 mm 2,0 UV-I 487 W/m 11,6 C 14,1 C 3,2 km/h (1 Bft) 97,87 %
14.10.2017 11:12 14,2 C 11,7 C 86 % 1028,9 hPa 0,0 l/m 1,8 km/h (1 Bft) NO 34 2 min 0,000 mm 2,0 UV-I 491 W/m 11,9 C 14,2 C 3,2 km/h (1 Bft) 94,74 %
14.10.2017 11:14 14,2 C 11,7 C 85 % 1028,8 hPa 0,0 l/m 2,6 km/h (1 Bft) NO 34 2 min 0,000 mm 2,0 UV-I 491 W/m 11,7 C 14,2 C 4,8 km/h (1 Bft) 98,00 %
14.10.2017 11:16 14,2 C 11,7 C 85 % 1028,8 hPa 0,0 l/m 3,5 km/h (1 Bft) NO 34 2 min 0,000 mm 2,0 UV-I 494 W/m 11,7 C 14,2 C 4,8 km/h (1 Bft) 97,56 %
14.10.2017 11:18 14,4 C 11,7 C 87 % 1028,8 hPa 0,0 l/m 3,2 km/h (1 Bft) NO 34 2 min 0,000 mm 2,1 UV-I 496 W/m 12,3 C 14,4 C 6,4 km/h (2 Bft) 98,11 %
14.10.2017 11:20 14,6 C 11,7 C 85 % 1028,8 hPa 0,0 l/m 2,6 km/h (1 Bft) NO 34 2 min 0,000 mm 2,1 UV-I 499 W/m 12,1 C 14,6 C 4,8 km/h (1 Bft) 97,37 %
14.10.2017 11:22 14,5 C 11,7 C 83 % 1028,8 hPa 0,0 l/m 4,0 km/h (1 Bft) NO 53 2 min 0,000 mm 2,1 UV-I 503 W/m 11,6 C 14,5 C 4,8 km/h (1 Bft) 98,21 %
14.10.2017 11:24 14,5 C 11,7 C 85 % 1028,8 hPa 0,0 l/m 2,5 km/h (1 Bft) NO 53 2 min 0,000 mm 2,1 UV-I 505 W/m 12,0 C 14,5 C 4,8 km/h (1 Bft) 97,56 %
14.10.2017 11:26 14,6 C 11,7 C 84 % 1028,8 hPa 0,0 l/m 1,7 km/h (1 Bft) NO 53 2 min 0,000 mm 2,1 UV-I 507 W/m 11,9 C 14,6 C 3,2 km/h (1 Bft) 94,00 %
14.10.2017 11:28 14,6 C 11,7 C 85 % 1028,8 hPa 0,0 l/m 2,2 km/h (1 Bft) NO 49 2 min 0,000 mm 2,2 UV-I 509 W/m 12,1 C 14,6 C 6,4 km/h (2 Bft) 95,74 %
14.10.2017 11:30 14,7 C 11,7 C 84 % 1028,8 hPa 0,0 l/m 2,7 km/h (1 Bft) NO 49 2 min 0,000 mm 2,2 UV-I 511 W/m 12,0 C 14,7 C 4,8 km/h (1 Bft) 95,74 %
14.10.2017 11:32 14,8 C 11,7 C 83 % 1028,9 hPa 0,0 l/m 2,8 km/h (1 Bft) NO 45 2 min 0,000 mm 2,2 UV-I 512 W/m 11,9 C 14,8 C 4,8 km/h (1 Bft) 93,62 %
14.10.2017 11:34 14,8 C 11,7 C 82 % 1028,8 hPa 0,0 l/m 1,6 km/h (1 Bft) NO 45 2 min 0,000 mm 2,2 UV-I 515 W/m 11,8 C 14,8 C 3,2 km/h (1 Bft) 96,00 %
14.10.2017 11:36 15,0 C 11,7 C 84 % 1028,9 hPa 0,0 l/m 1,1 km/h (1 Bft) NO 45 2 min 0,000 mm 2,2 UV-I 517 W/m 12,3 C 15,0 C 3,2 km/h (1 Bft) 95,45 %
14.10.2017 11:38 15,2 C 11,7 C 82 % 1028,9 hPa 0,0 l/m 3,7 km/h (1 Bft) NO 45 2 min 0,000 mm 2,3 UV-I 520 W/m 12,1 C 15,2 C 4,8 km/h (1 Bft) 96,00 %
14.10.2017 11:40 15,2 C 11,7 C 81 % 1028,9 hPa 0,0 l/m 0,7 km/h (0 Bft) NO 45 2 min 0,000 mm 2,3 UV-I 521 W/m 12,0 C 15,2 C 1,6 km/h (1 Bft) 94,44 %
14.10.2017 11:42 15,2 C 11,7 C 81 % 1028,9 hPa 0,0 l/m 3,0 km/h (1 Bft) NO 45 2 min 0,000 mm 2,3 UV-I 522 W/m 12,0 C 15,2 C 4,8 km/h (1 Bft) 94,74 %
14.10.2017 11:44 15,3 C 11,7 C 81 % 1028,9 hPa 0,0 l/m 2,3 km/h (1 Bft) NO 45 2 min 0,000 mm 2,3 UV-I 525 W/m 12,1 C 15,3 C 4,8 km/h (1 Bft) 95,74 %
14.10.2017 11:46 15,2 C 11,7 C 80 % 1028,9 hPa 0,0 l/m 1,2 km/h (1 Bft) NO 45 2 min 0,000 mm 2,3 UV-I 527 W/m 11,8 C 15,2 C 3,2 km/h (1 Bft) 93,62 %
14.10.2017 11:48 15,2 C 11,7 C 82 % 1028,9 hPa 0,0 l/m 1,5 km/h (1 Bft) N 5 2 min 0,000 mm 2,3 UV-I 527 W/m 12,1 C 15,2 C 3,2 km/h (1 Bft) 90,91 %
14.10.2017 11:50 15,2 C 11,7 C 80 % 1028,9 hPa 0,0 l/m 1,5 km/h (1 Bft) N 5 2 min 0,000 mm 2,4 UV-I 528 W/m 11,8 C 15,2 C 4,8 km/h (1 Bft) 95,74 %
14.10.2017 11:52 15,3 C 11,7 C 81 % 1028,8 hPa 0,0 l/m 1,3 km/h (1 Bft) N-NO 33 2 min 0,000 mm 2,4 UV-I 531 W/m 12,1 C 15,3 C 3,2 km/h (1 Bft) 96,23 %
14.10.2017 11:54 15,6 C 11,7 C 83 % 1028,8 hPa 0,0 l/m 1,8 km/h (1 Bft) N-NO 33 2 min 0,000 mm 2,4 UV-I 533 W/m 12,7 C 15,6 C 4,8 km/h (1 Bft) 97,56 %
14.10.2017 11:56 15,7 C 11,7 C 80 % 1028,9 hPa 0,0 l/m 0,2 km/h (0 Bft) O-NO 76 2 min 0,000 mm 2,4 UV-I 536 W/m 12,3 C 15,7 C 3,2 km/h (1 Bft) 95,74 %
14.10.2017 11:58 15,7 C 11,7 C 78 % 1028,9 hPa 0,0 l/m 1,5 km/h (1 Bft) N-NO 22 2 min 0,000 mm 2,4 UV-I 536 W/m 11,9 C 15,7 C 4,8 km/h (1 Bft) 95,12 %
14.10.2017 12:00 15,9 C 11,7 C 79 % 1028,9 hPa 0,0 l/m 3,3 km/h (1 Bft) NO 47 2 min 0,254 mm 2,4 UV-I 537 W/m 12,3 C 15,9 C 4,8 km/h (1 Bft) 98,21 %
14.10.2017 12:02 15,9 C 11,7 C 77 % 1028,9 hPa 0,0 l/m 1,1 km/h (1 Bft) NO 48 2 min 0,000 mm 2,5 UV-I 538 W/m 11,9 C 15,9 C 3,2 km/h (1 Bft) 94,74 %
14.10.2017 12:04 16,1 C 11,7 C 80 % 1028,9 hPa 0,0 l/m 1,6 km/h (1 Bft) W-NW 303 2 min 0,000 mm 2,5 UV-I 537 W/m 12,6 C 16,1 C 3,2 km/h (1 Bft) 94,00 %
14.10.2017 12:06 16,1 C 11,7 C 79 % 1028,8 hPa 0,0 l/m 1,0 km/h (0 Bft) NW 304 2 min 0,000 mm 2,5 UV-I 539 W/m 12,5 C 16,1 C 3,2 km/h (1 Bft) 98,11 %
14.10.2017 12:08 16,1 C 11,7 C 78 % 1028,8 hPa 0,0 l/m 1,1 km/h (1 Bft) NW 306 2 min 0,000 mm 2,5 UV-I 538 W/m 12,3 C 16,1 C 3,2 km/h (1 Bft) 93,62 %
14.10.2017 12:10 16,0 C 11,7 C 80 % 1028,8 hPa 0,0 l/m 1,3 km/h (1 Bft) N 5 2 min 0,000 mm 2,5 UV-I 539 W/m 12,5 C 16,0 C 3,2 km/h (1 Bft) 97,87 %
14.10.2017 12:12 15,9 C 11,7 C 77 % 1028,8 hPa 0,0 l/m 1,0 km/h (0 Bft) N 5 2 min 0,000 mm 2,5 UV-I 540 W/m 11,9 C 15,9 C 4,8 km/h (1 Bft) 97,22 %
14.10.2017 12:14 16,0 C 11,7 C 80 % 1028,8 hPa 0,0 l/m 4,8 km/h (1 Bft) N-NO 24 2 min 0,000 mm 2,5 UV-I 544 W/m 12,5 C 16,0 C 6,4 km/h (2 Bft) 96,36 %
14.10.2017 12:16 16,2 C 11,7 C 78 % 1028,8 hPa 0,0 l/m 4,7 km/h (1 Bft) NO 36 2 min 0,000 mm 2,5 UV-I 544 W/m 12,4 C 16,2 C 8,0 km/h (2 Bft) 97,62 %
14.10.2017 12:18 16,3 C 11,7 C 76 % 1028,8 hPa 0,0 l/m 2,3 km/h (1 Bft) NO 36 2 min 0,000 mm 2,5 UV-I 547 W/m 12,1 C 16,3 C 3,2 km/h (1 Bft) 97,56 %
14.10.2017 12:20 16,5 C 11,7 C 78 % 1028,8 hPa 0,0 l/m 3,6 km/h (1 Bft) NO 50 2 min 0,000 mm 2,6 UV-I 547 W/m 12,6 C 16,5 C 6,4 km/h (2 Bft) 98,11 %
14.10.2017 12:22 16,4 C 11,7 C 75 % 1028,8 hPa 0,0 l/m 2,5 km/h (1 Bft) NO 51 2 min 0,000 mm 2,6 UV-I 549 W/m 12,0 C 16,4 C 3,2 km/h (1 Bft) 98,00 %
14.10.2017 12:24 16,4 C 11,7 C 76 % 1028,7 hPa 0,0 l/m 0,9 km/h (0 Bft) N-NW 331 2 min 0,000 mm 2,6 UV-I 550 W/m 12,2 C 16,4 C 3,2 km/h (1 Bft) 97,37 %
14.10.2017 12:26 16,4 C 11,7 C 76 % 1028,8 hPa 0,0 l/m 0,3 km/h (0 Bft) NW 322 2 min 0,000 mm 2,6 UV-I 548 W/m 12,2 C 16,4 C 1,6 km/h (1 Bft) 98,00 %
14.10.2017 12:28 16,5 C 11,7 C 75 % 1028,7 hPa 0,0 l/m 1,0 km/h (0 Bft) N-NW 327 2 min 0,000 mm 2,6 UV-I 550 W/m 12,1 C 16,5 C 3,2 km/h (1 Bft) 98,00 %
14.10.2017 12:30 16,4 C 11,7 C 76 % 1028,6 hPa 0,0 l/m 1,7 km/h (1 Bft) N-NO 13 2 min 0,000 mm 2,6 UV-I 549 W/m 12,2 C 16,4 C 3,2 km/h (1 Bft) 96,00 %
14.10.2017 12:32 16,4 C 11,7 C 76 % 1028,7 hPa 0,0 l/m 1,5 km/h (1 Bft) NO 43 2 min 0,000 mm 2,6 UV-I 550 W/m 12,2 C 16,4 C 4,8 km/h (1 Bft) 97,14 %
14.10.2017 12:34 16,6 C 11,7 C 79 % 1028,6 hPa 0,0 l/m 3,2 km/h (1 Bft) N-NO 19 2 min 0,000 mm 2,6 UV-I 554 W/m 12,9 C 16,6 C 6,4 km/h (2 Bft) 94,92 %
14.10.2017 12:36 16,4 C 11,7 C 77 % 1028,6 hPa 0,0 l/m 0,7 km/h (0 Bft) N-NO 15 2 min 0,000 mm 2,6 UV-I 554 W/m 12,4 C 16,4 C 3,2 km/h (1 Bft) 95,74 %
14.10.2017 12:38 16,4 C 11,7 C 76 % 1028,7 hPa 0,0 l/m 1,7 km/h (1 Bft) NW 321 2 min 0,000 mm 2,6 UV-I 552 W/m 12,2 C 16,4 C 4,8 km/h (1 Bft) 97,56 %
14.10.2017 12:40 16,5 C 11,7 C 75 % 1028,6 hPa 0,0 l/m 0,7 km/h (0 Bft) NW 323 2 min 0,000 mm 2,6 UV-I 554 W/m 12,1 C 16,5 C 1,6 km/h (1 Bft) 95,74 %
14.10.2017 12:42 16,5 C 11,7 C 78 % 1028,6 hPa 0,0 l/m 1,0 km/h (0 Bft) NO 38 2 min 0,000 mm 2,6 UV-I 554 W/m 12,6 C 16,5 C 3,2 km/h (1 Bft) 96,23 %
14.10.2017 12:44 16,4 C 11,7 C 76 % 1028,6 hPa 0,0 l/m 0,8 km/h (0 Bft) N 350 2 min 0,000 mm 2,6 UV-I 554 W/m 12,2 C 16,4 C 4,8 km/h (1 Bft) 97,56 %
14.10.2017 12:46 16,4 C 11,7 C 75 % 1028,6 hPa 0,0 l/m 1,3 km/h (1 Bft) N-NW 348 2 min 0,000 mm 2,6 UV-I 552 W/m 12,0 C 16,4 C 3,2 km/h (1 Bft) 98,11 %
14.10.2017 12:48 16,4 C 11,7 C 74 % 1028,5 hPa 0,0 l/m 2,2 km/h (1 Bft) N-NO 15 2 min 0,000 mm 2,6 UV-I 553 W/m 11,8 C 16,4 C 6,4 km/h (2 Bft) 97,56 %
14.10.2017 12:50 16,7 C 11,7 C 78 % 1028,5 hPa 0,0 l/m 3,1 km/h (1 Bft) N 10 2 min 0,000 mm 2,6 UV-I 555 W/m 12,8 C 16,7 C 4,8 km/h (1 Bft) 98,21 %
14.10.2017 12:52 16,7 C 11,7 C 73 % 1028,5 hPa 0,0 l/m 0,9 km/h (0 Bft) N-NO 15 2 min 0,000 mm 2,6 UV-I 553 W/m 11,8 C 16,7 C 1,6 km/h (1 Bft) 97,56 %
14.10.2017 12:54 16,6 C 11,7 C 76 % 1028,5 hPa 0,0 l/m 1,0 km/h (0 Bft) N-NW 348 2 min 0,000 mm 2,6 UV-I 551 W/m 12,3 C 16,6 C 3,2 km/h (1 Bft) 91,49 %
14.10.2017 12:56 16,7 C 11,7 C 75 % 1028,5 hPa 0,0 l/m 4,5 km/h (1 Bft) N-NO 17 2 min 0,000 mm 2,6 UV-I 551 W/m 12,2 C 16,7 C 12,9 km/h (3 Bft) 98,00 %
14.10.2017 12:58 16,9 C 11,7 C 75 % 1028,4 hPa 0,0 l/m 5,0 km/h (1 Bft) NO 51 2 min 0,000 mm 2,6 UV-I 550 W/m 12,4 C 16,9 C 11,3 km/h (2 Bft) 97,44 %
14.10.2017 13:00 17,1 C 11,7 C 75 % 1028,4 hPa 0,0 l/m 5,6 km/h (1 Bft) O-NO 69 2 min 0,000 mm 2,6 UV-I 549 W/m 12,6 C 17,1 C 8,0 km/h (2 Bft) 96,00 %
14.10.2017 13:02 16,9 C 11,7 C 70 % 1028,4 hPa 0,0 l/m 3,3 km/h (1 Bft) O-NO 67 2 min 0,305 mm 2,6 UV-I 549 W/m 11,4 C 16,9 C 4,8 km/h (1 Bft) 98,11 %
14.10.2017 13:04 16,9 C 11,7 C 74 % 1028,5 hPa 0,0 l/m 3,6 km/h (1 Bft) O-NO 62 2 min 0,000 mm 2,6 UV-I 551 W/m 12,2 C 16,9 C 4,8 km/h (1 Bft) 97,87 %
14.10.2017 13:06 16,8 C 11,7 C 70 % 1028,4 hPa 0,0 l/m 3,0 km/h (1 Bft) O 82 2 min 0,000 mm 2,6 UV-I 547 W/m 11,3 C 16,8 C 4,8 km/h (1 Bft) 97,14 %
14.10.2017 13:08 16,9 C 11,7 C 73 % 1028,4 hPa 0,0 l/m 2,4 km/h (1 Bft) NW 319 2 min 0,000 mm 2,6 UV-I 548 W/m 12,0 C 16,9 C 6,4 km/h (2 Bft) 98,11 %
14.10.2017 13:10 16,8 C 11,7 C 73 % 1028,5 hPa 0,0 l/m 1,2 km/h (1 Bft) NW 319 2 min 0,000 mm 2,6 UV-I 547 W/m 11,9 C 16,8 C 3,2 km/h (1 Bft) 100,00 %
14.10.2017 13:12 16,8 C 11,7 C 72 % 1028,4 hPa 0,0 l/m 0,2 km/h (0 Bft) NW 321 2 min 0,000 mm 2,6 UV-I 543 W/m 11,7 C 16,8 C 1,6 km/h (1 Bft) 95,74 %
14.10.2017 13:14 16,9 C 11,7 C 73 % 1028,4 hPa 0,0 l/m 0,3 km/h (0 Bft) NW 321 2 min 0,000 mm 2,6 UV-I 544 W/m 12,0 C 16,9 C 1,6 km/h (1 Bft) 96,00 %
14.10.2017 13:16 17,3 C 11,7 C 75 % 1028,4 hPa 0,0 l/m 3,4 km/h (1 Bft) NO 52 2 min 0,000 mm 2,6 UV-I 530 W/m 12,8 C 17,3 C 8,0 km/h (2 Bft) 100,00 %
14.10.2017 13:18 17,3 C 11,7 C 70 % 1028,4 hPa 0,0 l/m 4,6 km/h (1 Bft) NO 47 2 min 0,000 mm 2,6 UV-I 530 W/m 11,8 C 17,3 C 6,4 km/h (2 Bft) 92,00 %
14.10.2017 13:20 17,3 C 11,7 C 71 % 1028,4 hPa 0,0 l/m 2,4 km/h (1 Bft) NO 42 2 min 0,000 mm 2,6 UV-I 540 W/m 12,0 C 17,3 C 4,8 km/h (1 Bft) 95,12 %
14.10.2017 13:22 17,4 C 11,7 C 73 % 1028,4 hPa 0,0 l/m 3,3 km/h (1 Bft) NO 41 2 min 0,000 mm 2,6 UV-I 541 W/m 12,5 C 17,4 C 6,4 km/h (2 Bft) 94,34 %
14.10.2017 13:24 17,4 C 11,7 C 70 % 1028,3 hPa 0,0 l/m 4,6 km/h (1 Bft) NO 36 2 min 0,000 mm 2,6 UV-I 542 W/m 11,9 C 17,4 C 8,0 km/h (2 Bft) 96,00 %
14.10.2017 13:26 17,3 C 11,7 C 69 % 1028,3 hPa 0,0 l/m 0,6 km/h (0 Bft) NO 36 2 min 0,000 mm 2,6 UV-I 541 W/m 11,6 C 17,3 C 1,6 km/h (1 Bft) 95,12 %
14.10.2017 13:28 17,2 C 11,7 C 69 % 1028,3 hPa 0,0 l/m 2,0 km/h (1 Bft) N-NO 33 2 min 0,000 mm 2,6 UV-I 541 W/m 11,5 C 17,2 C 4,8 km/h (1 Bft) 95,24 %
14.10.2017 13:30 17,2 C 11,7 C 71 % 1028,3 hPa 0,0 l/m 3,8 km/h (1 Bft) N-NO 31 2 min 0,000 mm 2,6 UV-I 538 W/m 11,9 C 17,2 C 4,8 km/h (1 Bft) 94,23 %
14.10.2017 13:32 17,1 C 11,7 C 70 % 1028,2 hPa 0,0 l/m 1,3 km/h (1 Bft) N-NO 31 2 min 0,000 mm 2,5 UV-I 536 W/m 11,6 C 17,1 C 3,2 km/h (1 Bft) 95,56 %
14.10.2017 13:34 17,3 C 11,7 C 71 % 1028,1 hPa 0,0 l/m 4,3 km/h (1 Bft) O-NO 63 2 min 0,000 mm 2,5 UV-I 537 W/m 12,0 C 17,3 C 9,7 km/h (2 Bft) 94,00 %
14.10.2017 13:36 17,3 C 11,7 C 69 % 1028,2 hPa 0,0 l/m 2,8 km/h (1 Bft) NO 38 2 min 0,000 mm 2,5 UV-I 533 W/m 11,6 C 17,3 C 6,4 km/h (2 Bft) 93,62 %
14.10.2017 13:38 17,3 C 11,7 C 67 % 1028,2 hPa 0,0 l/m 0,5 km/h (0 Bft) NO 38 2 min 0,000 mm 2,5 UV-I 529 W/m 11,1 C 17,3 C 1,6 km/h (1 Bft) 95,74 %
14.10.2017 13:40 17,3 C 11,7 C 69 % 1028,2 hPa 0,0 l/m 3,7 km/h (1 Bft) N-NO 28 2 min 0,000 mm 2,5 UV-I 531 W/m 11,6 C 17,3 C 9,7 km/h (2 Bft) 94,34 %
14.10.2017 13:42 17,5 C 11,7 C 70 % 1028,1 hPa 0,0 l/m 5,0 km/h (1 Bft) NO 36 2 min 0,000 mm 2,5 UV-I 533 W/m 12,0 C 17,5 C 6,4 km/h (2 Bft) 93,62 %
14.10.2017 13:44 17,6 C 11,7 C 72 % 1028,2 hPa 0,0 l/m 4,6 km/h (1 Bft) N-NO 13 2 min 0,000 mm 2,5 UV-I 532 W/m 12,5 C 17,6 C 9,7 km/h (2 Bft) 94,74 %
14.10.2017 13:46 17,5 C 11,7 C 70 % 1028,1 hPa 0,0 l/m 0,2 km/h (0 Bft) N 11 2 min 0,000 mm 2,5 UV-I 529 W/m 12,0 C 17,5 C 1,6 km/h (1 Bft) 94,34 %
14.10.2017 13:48 17,6 C 11,7 C 72 % 1028,1 hPa 0,0 l/m 5,2 km/h (1 Bft) O-NO 57 2 min 0,000 mm 2,4 UV-I 527 W/m 12,5 C 17,6 C 9,7 km/h (2 Bft) 95,45 %
14.10.2017 13:50 17,6 C 11,7 C 69 % 1028,0 hPa 0,0 l/m 7,1 km/h (2 Bft) NO 42 2 min 0,000 mm 2,4 UV-I 524 W/m 11,8 C 17,3 C 9,7 km/h (2 Bft) 95,74 %
14.10.2017 13:52 17,6 C 11,7 C 67 % 1028,1 hPa 0,0 l/m 2,0 km/h (1 Bft) O 79 2 min 0,000 mm 2,4 UV-I 519 W/m 11,4 C 17,6 C 6,4 km/h (2 Bft) 96,00 %
14.10.2017 13:54 17,6 C 11,7 C 67 % 1028,0 hPa 0,0 l/m 5,2 km/h (1 Bft) NO 53 2 min 0,000 mm 2,4 UV-I 519 W/m 11,4 C 17,6 C 8,0 km/h (2 Bft) 97,44 %
14.10.2017 13:56 17,6 C 11,7 C 67 % 1028,0 hPa 0,0 l/m 4,7 km/h (1 Bft) NO 48 2 min 0,000 mm 2,3 UV-I 518 W/m 11,4 C 17,6 C 6,4 km/h (2 Bft) 96,23 %
14.10.2017 13:58 17,7 C 11,7 C 67 % 1028,0 hPa 0,0 l/m 3,7 km/h (1 Bft) O-NO 67 2 min 0,000 mm 2,3 UV-I 519 W/m 11,5 C 17,7 C 6,4 km/h (2 Bft) 97,56 %
14.10.2017 14:00 17,6 C 11,7 C 65 % 1028,0 hPa 0,0 l/m 2,8 km/h (1 Bft) O-NO 67 2 min 0,000 mm 2,3 UV-I 517 W/m 10,9 C 17,6 C 4,8 km/h (1 Bft) 92,68 %
14.10.2017 14:02 17,6 C 11,7 C 66 % 1028,0 hPa 0,0 l/m 4,0 km/h (1 Bft) O-NO 67 2 min 0,305 mm 2,3 UV-I 516 W/m 11,2 C 17,6 C 6,4 km/h (2 Bft) 96,77 %
14.10.2017 14:04 17,4 C 11,7 C 64 % 1028,0 hPa 0,0 l/m 1,9 km/h (1 Bft) O-NO 67 2 min 0,000 mm 2,3 UV-I 513 W/m 10,5 C 17,4 C 3,2 km/h (1 Bft) 97,56 %
14.10.2017 14:06 17,4 C 11,7 C 64 % 1027,9 hPa 0,0 l/m 0,7 km/h (0 Bft) O-NO 67 2 min 0,000 mm 2,3 UV-I 514 W/m 10,5 C 17,4 C 3,2 km/h (1 Bft) 100,00 %
14.10.2017 14:08 17,5 C 11,7 C 64 % 1027,9 hPa 0,0 l/m 0,9 km/h (0 Bft) S-SO 162 2 min 0,000 mm 2,3 UV-I 512 W/m 10,6 C 17,5 C 3,2 km/h (1 Bft) 94,64 %
14.10.2017 14:10 17,6 C 11,7 C 65 % 1027,9 hPa 0,0 l/m 1,5 km/h (1 Bft) SO 136 2 min 0,000 mm 2,3 UV-I 509 W/m 10,9 C 17,6 C 6,4 km/h (2 Bft) 98,11 %
14.10.2017 14:12 17,8 C 11,7 C 66 % 1027,9 hPa 0,0 l/m 3,2 km/h (1 Bft) O-SO 110 2 min 0,000 mm 2,2 UV-I 508 W/m 11,4 C 17,8 C 6,4 km/h (2 Bft) 97,44 %
14.10.2017 14:14 17,8 C 11,7 C 65 % 1027,9 hPa 0,0 l/m 1,9 km/h (1 Bft) O-SO 110 2 min 0,000 mm 2,2 UV-I 505 W/m 11,1 C 17,8 C 4,8 km/h (1 Bft) 98,18 %
14.10.2017 14:16 17,7 C 11,7 C 64 % 1027,9 hPa 0,0 l/m 1,2 km/h (1 Bft) O-SO 110 2 min 0,000 mm 2,2 UV-I 500 W/m 10,8 C 17,7 C 3,2 km/h (1 Bft) 97,44 %
14.10.2017 14:18 17,6 C 11,7 C 65 % 1027,9 hPa 0,0 l/m 0,5 km/h (0 Bft) O-SO 110 2 min 0,000 mm 2,2 UV-I 496 W/m 10,9 C 17,6 C 3,2 km/h (1 Bft) 96,00 %
14.10.2017 14:20 17,7 C 11,7 C 65 % 1027,9 hPa 0,0 l/m 1,3 km/h (1 Bft) O-SO 110 2 min 0,000 mm 2,1 UV-I 492 W/m 11,0 C 17,7 C 3,2 km/h (1 Bft) 98,00 %
14.10.2017 14:22 17,8 C 11,7 C 65 % 1027,8 hPa 0,0 l/m 1,1 km/h (1 Bft) O-SO 110 2 min 0,000 mm 2,1 UV-I 487 W/m 11,1 C 17,8 C 3,2 km/h (1 Bft) 93,62 %
14.10.2017 14:24 17,9 C 11,7 C 64 % 1027,8 hPa 0,0 l/m 0,8 km/h (0 Bft) O-SO 110 2 min 0,000 mm 2,1 UV-I 485 W/m 11,0 C 17,9 C 3,2 km/h (1 Bft) 97,37 %
14.10.2017 14:26 17,8 C 11,7 C 63 % 1027,8 hPa 0,0 l/m 0,8 km/h (0 Bft) O-SO 110 2 min 0,000 mm 2,1 UV-I 487 W/m 10,7 C 17,8 C 3,2 km/h (1 Bft) 96,00 %
14.10.2017 14:28 17,8 C 11,7 C 66 % 1027,7 hPa 0,0 l/m 3,0 km/h (1 Bft) O-SO 109 2 min 0,000 mm 2,1 UV-I 488 W/m 11,4 C 17,8 C 4,8 km/h (1 Bft) 98,00 %
14.10.2017 14:30 18,0 C 11,7 C 66 % 1027,7 hPa 0,0 l/m 3,2 km/h (1 Bft) O 85 2 min 0,000 mm 2,0 UV-I 483 W/m 11,6 C 18,0 C 4,8 km/h (1 Bft) 94,00 %
14.10.2017 14:32 17,9 C 11,7 C 64 % 1027,7 hPa 0,0 l/m 4,4 km/h (1 Bft) O-NO 74 2 min 0,000 mm 2,0 UV-I 481 W/m 11,0 C 17,9 C 6,4 km/h (2 Bft) 95,74 %
14.10.2017 14:34 17,9 C 11,7 C 64 % 1027,7 hPa 0,0 l/m 0,7 km/h (0 Bft) O-NO 74 2 min 0,000 mm 2,0 UV-I 473 W/m 11,0 C 17,9 C 3,2 km/h (1 Bft) 95,74 %
14.10.2017 14:36 18,0 C 11,7 C 67 % 1027,7 hPa 0,0 l/m 1,1 km/h (1 Bft) O-NO 74 2 min 0,000 mm 2,0 UV-I 469 W/m 11,8 C 18,0 C 3,2 km/h (1 Bft) 97,87 %
14.10.2017 14:38 17,9 C 11,7 C 65 % 1027,7 hPa 0,0 l/m 1,8 km/h (1 Bft) N-NO 17 2 min 0,000 mm 1,9 UV-I 468 W/m 11,2 C 17,9 C 3,2 km/h (1 Bft) 95,83 %
14.10.2017 14:40 17,8 C 11,7 C 64 % 1027,6 hPa 0,0 l/m 0,4 km/h (0 Bft) N-NO 17 2 min 0,000 mm 1,9 UV-I 467 W/m 10,9 C 17,8 C 1,6 km/h (1 Bft) 98,57 %
14.10.2017 14:42 17,9 C 11,7 C 63 % 1027,6 hPa 0,0 l/m 1,3 km/h (1 Bft) N-NO 17 2 min 0,000 mm 1,9 UV-I 465 W/m 10,8 C 17,9 C 3,2 km/h (1 Bft) 97,56 %
14.10.2017 14:44 17,9 C 11,7 C 63 % 1027,6 hPa 0,0 l/m 2,0 km/h (1 Bft) N-NO 25 2 min 0,000 mm 1,9 UV-I 462 W/m 10,8 C 17,9 C 4,8 km/h (1 Bft) 97,87 %
14.10.2017 14:46 18,1 C 11,7 C 67 % 1027,6 hPa 0,0 l/m 0,9 km/h (0 Bft) N-NO 25 2 min 0,000 mm 1,8 UV-I 460 W/m 11,9 C 18,1 C 3,2 km/h (1 Bft) 96,00 %
14.10.2017 14:48 18,1 C 11,7 C 66 % 1027,6 hPa 0,0 l/m 2,5 km/h (1 Bft) N-NO 26 2 min 0,000 mm 1,8 UV-I 433 W/m 11,6 C 18,1 C 6,4 km/h (2 Bft) 95,12 %
14.10.2017 14:50 18,2 C 11,7 C 65 % 1027,5 hPa 0,0 l/m 4,3 km/h (1 Bft) O-NO 69 2 min 0,000 mm 1,8 UV-I 447 W/m 11,5 C 18,2 C 4,8 km/h (1 Bft) 96,00 %
14.10.2017 14:52 18,2 C 11,7 C 62 % 1027,5 hPa 0,0 l/m 4,6 km/h (1 Bft) O 94 2 min 0,000 mm 1,7 UV-I 445 W/m 10,8 C 18,2 C 6,4 km/h (2 Bft) 97,62 %
14.10.2017 14:54 18,1 C 11,7 C 65 % 1027,5 hPa 0,0 l/m 2,4 km/h (1 Bft) O 92 2 min 0,000 mm 1,7 UV-I 438 W/m 11,4 C 18,1 C 4,8 km/h (1 Bft) 98,00 %
14.10.2017 14:56 18,2 C 11,7 C 65 % 1027,5 hPa 0,0 l/m 0,6 km/h (0 Bft) S 184 2 min 0,000 mm 1,7 UV-I 437 W/m 11,5 C 18,2 C 3,2 km/h (1 Bft) 97,87 %
14.10.2017 14:58 18,3 C 11,7 C 63 % 1027,5 hPa 0,0 l/m 1,5 km/h (1 Bft) W-SW 237 2 min 0,000 mm 1,7 UV-I 435 W/m 11,1 C 18,3 C 3,2 km/h (1 Bft) 97,87 %
14.10.2017 15:00 18,3 C 11,7 C 63 % 1027,5 hPa 0,0 l/m 0,8 km/h (0 Bft) W 281 2 min 0,000 mm 1,6 UV-I 357 W/m 11,1 C 18,3 C 3,2 km/h (1 Bft) 95,45 %
14.10.2017 15:02 18,3 C 11,7 C 63 % 1027,4 hPa 0,0 l/m 3,0 km/h (1 Bft) N-NW 346 2 min 0,279 mm 1,6 UV-I 340 W/m 11,1 C 18,3 C 6,4 km/h (2 Bft) 96,00 %
14.10.2017 15:04 18,2 C 11,7 C 65 % 1027,5 hPa 0,0 l/m 3,0 km/h (1 Bft) NW 304 2 min 0,000 mm 1,6 UV-I 324 W/m 11,5 C 18,2 C 6,4 km/h (2 Bft) 97,56 %
14.10.2017 15:06 18,2 C 11,7 C 63 % 1027,4 hPa 0,0 l/m 3,4 km/h (1 Bft) W-NW 295 2 min 0,000 mm 1,5 UV-I 341 W/m 11,0 C 18,2 C 6,4 km/h (2 Bft) 98,21 %
14.10.2017 15:08 18,1 C 11,7 C 62 % 1027,4 hPa 0,0 l/m 1,9 km/h (1 Bft) W-NW 294 2 min 0,000 mm 1,5 UV-I 403 W/m 10,7 C 18,1 C 4,8 km/h (1 Bft) 97,87 %
14.10.2017 15:10 18,1 C 11,7 C 63 % 1027,4 hPa 0,0 l/m 1,2 km/h (1 Bft) W-NW 294 2 min 0,000 mm 1,5 UV-I 395 W/m 10,9 C 18,1 C 4,8 km/h (1 Bft) 100,00 %
14.10.2017 15:12 18,1 C 11,7 C 65 % 1027,3 hPa 0,0 l/m 1,7 km/h (1 Bft) N 350 2 min 0,000 mm 1,4 UV-I 392 W/m 11,4 C 18,1 C 3,2 km/h (1 Bft) 97,56 %
14.10.2017 15:14 18,1 C 11,7 C 63 % 1027,3 hPa 0,0 l/m 2,4 km/h (1 Bft) S-SO 168 2 min 0,000 mm 1,4 UV-I 376 W/m 10,9 C 18,1 C 6,4 km/h (2 Bft) 96,23 %
14.10.2017 15:16 18,2 C 11,7 C 63 % 1027,3 hPa 0,0 l/m 1,8 km/h (1 Bft) S 189 2 min 0,000 mm 1,4 UV-I 366 W/m 11,0 C 18,2 C 6,4 km/h (2 Bft) 100,00 %
14.10.2017 15:18 18,1 C 11,7 C 63 % 1027,2 hPa 0,0 l/m 2,7 km/h (1 Bft) S-SO 161 2 min 0,000 mm 1,4 UV-I 358 W/m 10,9 C 18,1 C 6,4 km/h (2 Bft) 96,23 %
14.10.2017 15:20 18,2 C 11,7 C 63 % 1027,2 hPa 0,0 l/m 3,0 km/h (1 Bft) O-SO 118 2 min 0,000 mm 0,8 UV-I 384 W/m 11,0 C 18,2 C 6,4 km/h (2 Bft) 98,00 %
14.10.2017 15:22 18,2 C 11,7 C 65 % 1027,2 hPa 0,0 l/m 0,8 km/h (0 Bft) O-SO 118 2 min 0,000 mm 1,0 UV-I 378 W/m 11,5 C 18,2 C 3,2 km/h (1 Bft) 97,37 %
14.10.2017 15:24 18,3 C 11,7 C 63 % 1027,2 hPa 0,0 l/m 0,5 km/h (0 Bft) W-SW 244 2 min 0,000 mm 1,3 UV-I 328 W/m 11,1 C 18,3 C 3,2 km/h (1 Bft) 98,11 %
14.10.2017 15:26 18,4 C 11,7 C 64 % 1027,2 hPa 0,0 l/m 2,0 km/h (1 Bft) W-SW 238 2 min 0,000 mm 1,3 UV-I 361 W/m 11,5 C 18,4 C 4,8 km/h (1 Bft) 97,56 %
14.10.2017 15:28 18,3 C 11,7 C 63 % 1027,2 hPa 0,0 l/m 4,1 km/h (1 Bft) W-SW 241 2 min 0,000 mm 1,2 UV-I 352 W/m 11,1 C 18,3 C 6,4 km/h (2 Bft) 98,00 %
14.10.2017 15:30 18,2 C 11,7 C 63 % 1027,2 hPa 0,0 l/m 2,4 km/h (1 Bft) W-SW 241 2 min 0,000 mm 1,2 UV-I 342 W/m 11,0 C 18,2 C 4,8 km/h (1 Bft) 97,92 %
14.10.2017 15:32 18,2 C 11,7 C 63 % 1027,2 hPa 0,0 l/m 0,7 km/h (0 Bft) W-SW 241 2 min 0,000 mm 1,2 UV-I 319 W/m 11,0 C 18,2 C 3,2 km/h (1 Bft) 96,15 %
14.10.2017 15:34 18,2 C 11,7 C 65 % 1027,2 hPa 0,0 l/m 1,1 km/h (1 Bft) W-SW 242 2 min 0,000 mm 1,2 UV-I 335 W/m 11,5 C 18,2 C 3,2 km/h (1 Bft) 100,00 %
14.10.2017 15:36 18,3 C 11,7 C 66 % 1027,2 hPa 0,0 l/m 0,4 km/h (0 Bft) W-NW 284 2 min 0,000 mm 1,1 UV-I 334 W/m 11,8 C 18,3 C 1,6 km/h (1 Bft) 96,00 %
14.10.2017 15:38 18,3 C 11,7 C 64 % 1027,2 hPa 0,0 l/m 1,0 km/h (0 Bft) NW 321 2 min 0,000 mm 1,1 UV-I 340 W/m 11,4 C 18,3 C 3,2 km/h (1 Bft) 98,11 %
14.10.2017 15:40 18,3 C 11,7 C 65 % 1027,2 hPa 0,0 l/m 0,1 km/h (0 Bft) NW 321 2 min 0,000 mm 1,1 UV-I 337 W/m 11,6 C 18,3 C 1,6 km/h (1 Bft) 97,87 %
14.10.2017 15:42 18,3 C 11,7 C 65 % 1027,2 hPa 0,0 l/m 0,0 km/h (0 Bft) NW 321 2 min 0,000 mm 1,1 UV-I 337 W/m 11,6 C 18,3 C 1,6 km/h (1 Bft) 97,37 %
14.10.2017 15:44 18,3 C 11,7 C 69 % 1027,2 hPa 0,0 l/m 0,4 km/h (0 Bft) N 5 2 min 0,000 mm 1,1 UV-I 325 W/m 12,5 C 18,3 C 3,2 km/h (1 Bft) 100,00 %
14.10.2017 15:46 18,3 C 11,7 C 67 % 1027,1 hPa 0,0 l/m 0,7 km/h (0 Bft) N-NO 12 2 min 0,000 mm 1,0 UV-I 321 W/m 12,1 C 18,3 C 4,8 km/h (1 Bft) 100,00 %
14.10.2017 15:48 18,3 C 11,7 C 67 % 1027,2 hPa 0,0 l/m 2,6 km/h (1 Bft) N 11 2 min 0,000 mm 1,0 UV-I 322 W/m 12,1 C 18,3 C 4,8 km/h (1 Bft) 97,14 %
14.10.2017 15:50 18,3 C 11,7 C 66 % 1027,2 hPa 0,0 l/m 0,7 km/h (0 Bft) N 11 2 min 0,000 mm 1,0 UV-I 309 W/m 11,8 C 18,3 C 1,6 km/h (1 Bft) 100,00 %
14.10.2017 15:52 18,3 C 11,7 C 64 % 1027,2 hPa 0,0 l/m 2,5 km/h (1 Bft) N-NW 333 2 min 0,000 mm 0,9 UV-I 310 W/m 11,4 C 18,3 C 4,8 km/h (1 Bft) 100,00 %
14.10.2017 15:54 18,3 C 11,7 C 64 % 1027,2 hPa 0,0 l/m 0,8 km/h (0 Bft) N-NW 333 2 min 0,000 mm 0,9 UV-I 308 W/m 11,4 C 18,3 C 3,2 km/h (1 Bft) 100,00 %
14.10.2017 15:56 18,3 C 11,7 C 65 % 1027,1 hPa 0,0 l/m 1,9 km/h (1 Bft) NW 326 2 min 0,000 mm 0,9 UV-I 297 W/m 11,6 C 18,3 C 4,8 km/h (1 Bft) 97,87 %
14.10.2017 15:58 18,3 C 11,7 C 63 % 1027,1 hPa 0,0 l/m 1,3 km/h (1 Bft) NW 326 2 min 0,000 mm 0,9 UV-I 295 W/m 11,1 C 18,3 C 3,2 km/h (1 Bft) 100,00 %
14.10.2017 16:00 18,3 C 11,7 C 65 % 1027,0 hPa 0,0 l/m 1,8 km/h (1 Bft) NW 325 2 min 0,000 mm 0,9 UV-I 293 W/m 11,6 C 18,3 C 3,2 km/h (1 Bft) 100,00 %
14.10.2017 16:02 18,3 C 11,7 C 65 % 1027,1 hPa 0,0 l/m 1,8 km/h (1 Bft) NW 319 2 min 0,203 mm 0,8 UV-I 291 W/m 11,6 C 18,3 C 3,2 km/h (1 Bft) 100,00 %
14.10.2017 16:04 18,2 C 11,7 C 63 % 1027,1 hPa 0,0 l/m 1,6 km/h (1 Bft) NW 316 2 min 0,000 mm 0,8 UV-I 282 W/m 11,0 C 18,2 C 3,2 km/h (1 Bft) 100,00 %
14.10.2017 16:06 18,2 C 11,7 C 66 % 1027,1 hPa 0,0 l/m 0,6 km/h (0 Bft) NW 316 2 min 0,000 mm 0,8 UV-I 279 W/m 11,7 C 18,2 C 1,6 km/h (1 Bft) 98,00 %
14.10.2017 16:08 18,2 C 11,7 C 66 % 1027,1 hPa 0,0 l/m 2,1 km/h (1 Bft) NW 318 2 min 0,000 mm 0,8 UV-I 275 W/m 11,7 C 18,2 C 3,2 km/h (1 Bft) 98,11 %
14.10.2017 16:10 18,1 C 11,7 C 65 % 1027,1 hPa 0,0 l/m 1,1 km/h (1 Bft) NW 318 2 min 0,000 mm 0,7 UV-I 274 W/m 11,4 C 18,1 C 3,2 km/h (1 Bft) 100,00 %
14.10.2017 16:12 18,1 C 11,7 C 65 % 1027,0 hPa 0,0 l/m 0,6 km/h (0 Bft) NW 318 2 min 0,000 mm 0,7 UV-I 264 W/m 11,4 C 18,1 C 3,2 km/h (1 Bft) 100,00 %
14.10.2017 16:14 18,1 C 11,7 C 67 % 1027,1 hPa 0,0 l/m 0,4 km/h (0 Bft) NW 318 2 min 0,000 mm 0,7 UV-I 257 W/m 11,9 C 18,1 C 3,2 km/h (1 Bft) 98,11 %
14.10.2017 16:16 18,1 C 11,7 C 65 % 1027,1 hPa 0,0 l/m 0,4 km/h (0 Bft) NW 318 2 min 0,000 mm 0,7 UV-I 258 W/m 11,4 C 18,1 C 1,6 km/h (1 Bft) 100,00 %
14.10.2017 16:18 18,1 C 11,7 C 64 % 1027,0 hPa 0,0 l/m 1,0 km/h (0 Bft) NW 318 2 min 0,000 mm 0,7 UV-I 254 W/m 11,2 C 18,1 C 3,2 km/h (1 Bft) 100,00 %
14.10.2017 16:20 18,1 C 11,7 C 64 % 1027,0 hPa 0,0 l/m 0,8 km/h (0 Bft) NW 318 2 min 0,000 mm 0,6 UV-I 243 W/m 11,2 C 18,1 C 1,6 km/h (1 Bft) 100,00 %
14.10.2017 16:22 18,1 C 11,7 C 65 % 1027,0 hPa 0,0 l/m 1,5 km/h (1 Bft) NW 318 2 min 0,000 mm 0,6 UV-I 238 W/m 11,4 C 18,1 C 3,2 km/h (1 Bft) 100,00 %
14.10.2017 16:24 18,0 C 11,7 C 65 % 1027,0 hPa 0,0 l/m 0,4 km/h (0 Bft) NW 318 2 min 0,000 mm 0,6 UV-I 234 W/m 11,3 C 18,0 C 1,6 km/h (1 Bft) 97,56 %
14.10.2017 16:26 18,0 C 11,7 C 65 % 1027,0 hPa 0,0 l/m 1,5 km/h (1 Bft) NW 318 2 min 0,000 mm 0,6 UV-I 226 W/m 11,3 C 18,0 C 3,2 km/h (1 Bft) 100,00 %
14.10.2017 16:28 18,0 C 11,7 C 66 % 1027,0 hPa 0,0 l/m 0,6 km/h (0 Bft) NW 318 2 min 0,000 mm 0,5 UV-I 227 W/m 11,6 C 18,0 C 3,2 km/h (1 Bft) 97,87 %
14.10.2017 16:30 18,0 C 11,7 C 65 % 1027,0 hPa 0,0 l/m 0,1 km/h (0 Bft) NW 318 2 min 0,000 mm 0,5 UV-I 217 W/m 11,3 C 18,0 C 1,6 km/h (1 Bft) 100,00 %
14.10.2017 16:32 17,9 C 11,7 C 65 % 1027,0 hPa 0,0 l/m 0,0 km/h (0 Bft) NW 318 2 min 0,000 mm 0,5 UV-I 217 W/m 11,2 C 17,9 C 0,0 km/h (0 Bft) 97,87 %
14.10.2017 16:34 17,9 C 11,7 C 66 % 1027,0 hPa 0,0 l/m 1,4 km/h (1 Bft) NW 318 2 min 0,000 mm 0,5 UV-I 213 W/m 11,5 C 17,9 C 4,8 km/h (1 Bft) 100,00 %
14.10.2017 16:36 17,9 C 11,7 C 65 % 1027,0 hPa 0,0 l/m 0,7 km/h (0 Bft) NW 318 2 min 0,000 mm 0,5 UV-I 208 W/m 11,2 C 17,9 C 1,6 km/h (1 Bft) 100,00 %
14.10.2017 16:38 17,9 C 11,7 C 65 % 1027,0 hPa 0,0 l/m 1,9 km/h (1 Bft) NW 322 2 min 0,000 mm 0,2 UV-I 203 W/m 11,2 C 17,9 C 4,8 km/h (1 Bft) 100,00 %
14.10.2017 16:40 17,9 C 11,7 C 67 % 1027,0 hPa 0,0 l/m 0,5 km/h (0 Bft) NW 322 2 min 0,000 mm 0,0 UV-I 198 W/m 11,7 C 17,9 C 1,6 km/h (1 Bft) 100,00 %
14.10.2017 16:42 17,8 C 11,7 C 68 % 1027,0 hPa 0,0 l/m 0,0 km/h (0 Bft) NW 322 2 min 0,000 mm 0,0 UV-I 191 W/m 11,8 C 17,8 C 1,6 km/h (1 Bft) 100,00 %
14.10.2017 16:44 17,8 C 11,7 C 69 % 1027,0 hPa 0,0 l/m 0,2 km/h (0 Bft) NW 322 2 min 0,000 mm 0,0 UV-I 186 W/m 12,0 C 17,8 C 1,6 km/h (1 Bft) 100,00 %
14.10.2017 16:46 17,7 C 11,7 C 69 % 1027,0 hPa 0,0 l/m 0,3 km/h (0 Bft) N-NW 329 2 min 0,000 mm 0,0 UV-I 182 W/m 11,9 C 17,7 C 3,2 km/h (1 Bft) 100,00 %
14.10.2017 16:48 17,6 C 11,7 C 70 % 1027,0 hPa 0,0 l/m 1,0 km/h (0 Bft) N-NW 329 2 min 0,000 mm 0,0 UV-I 178 W/m 12,1 C 17,6 C 3,2 km/h (1 Bft) 100,00 %
14.10.2017 16:50 17,6 C 11,7 C 68 % 1027,0 hPa 0,0 l/m 1,3 km/h (1 Bft) N-NW 329 2 min 0,000 mm 0,0 UV-I 173 W/m 11,6 C 17,6 C 3,2 km/h (1 Bft) 100,00 %
14.10.2017 16:52 17,6 C 11,7 C 68 % 1027,0 hPa 0,0 l/m 1,0 km/h (0 Bft) NW 326 2 min 0,000 mm 0,0 UV-I 168 W/m 11,6 C 17,6 C 3,2 km/h (1 Bft) 100,00 %
14.10.2017 16:54 17,7 C 11,7 C 67 % 1027,0 hPa 0,0 l/m 1,1 km/h (1 Bft) NW 326 2 min 0,000 mm 0,0 UV-I 163 W/m 11,5 C 17,7 C 3,2 km/h (1 Bft) 100,00 %
14.10.2017 16:56 17,7 C 11,7 C 66 % 1027,0 hPa 0,0 l/m 0,0 km/h (0 Bft) NW 326 2 min 0,000 mm 0,0 UV-I 158 W/m 11,3 C 17,7 C 1,6 km/h (1 Bft) 100,00 %
14.10.2017 16:58 17,7 C 11,7 C 69 % 1027,0 hPa 0,0 l/m 0,0 km/h (0 Bft) N-NW 329 2 min 0,000 mm 0,0 UV-I 153 W/m 11,9 C 17,7 C 1,6 km/h (1 Bft) 100,00 %
14.10.2017 17:00 17,6 C 11,7 C 68 % 1027,1 hPa 0,0 l/m 0,3 km/h (0 Bft) N-NW 333 2 min 0,127 mm 0,0 UV-I 149 W/m 11,6 C 17,6 C 1,6 km/h (1 Bft) 97,87 %
14.10.2017 17:02 17,6 C 11,7 C 69 % 1027,1 hPa 0,0 l/m 1,1 km/h (1 Bft) N-NW 335 2 min 0,000 mm 0,0 UV-I 144 W/m 11,8 C 17,6 C 3,2 km/h (1 Bft) 100,00 %
14.10.2017 17:04 17,4 C 11,7 C 70 % 1027,0 hPa 0,0 l/m 0,4 km/h (0 Bft) N-NW 333 2 min 0,000 mm 0,0 UV-I 139 W/m 11,9 C 17,4 C 3,2 km/h (1 Bft) 100,00 %
14.10.2017 17:06 17,4 C 11,7 C 70 % 1027,1 hPa 0,0 l/m 0,1 km/h (0 Bft) N-NW 333 2 min 0,000 mm 0,0 UV-I 134 W/m 11,9 C 17,4 C 1,6 km/h (1 Bft) 100,00 %
14.10.2017 17:08 17,4 C 11,7 C 70 % 1027,1 hPa 0,0 l/m 0,8 km/h (0 Bft) N-NW 338 2 min 0,000 mm 0,0 UV-I 130 W/m 11,9 C 17,4 C 4,8 km/h (1 Bft) 100,00 %
14.10.2017 17:10 17,3 C 11,7 C 69 % 1027,1 hPa 0,0 l/m 0,0 km/h (0 Bft) N-NW 338 2 min 0,000 mm 0,0 UV-I 126 W/m 11,6 C 17,3 C 0,0 km/h (0 Bft) 100,00 %
14.10.2017 17:12 17,4 C 11,7 C 68 % 1027,1 hPa 0,0 l/m 0,0 km/h (0 Bft) N-NW 338 2 min 0,000 mm 0,0 UV-I 121 W/m 11,4 C 17,4 C 0,0 km/h (0 Bft) 100,00 %
14.10.2017 17:14 17,4 C 11,7 C 68 % 1027,1 hPa 0,0 l/m 0,1 km/h (0 Bft) N-NW 338 2 min 0,000 mm 0,0 UV-I 116 W/m 11,4 C 17,4 C 1,6 km/h (1 Bft) 100,00 %
14.10.2017 17:16 17,4 C 11,7 C 70 % 1027,0 hPa 0,0 l/m 0,1 km/h (0 Bft) N-NW 340 2 min 0,000 mm 0,0 UV-I 112 W/m 11,9 C 17,4 C 1,6 km/h (1 Bft) 96,00 %
14.10.2017 17:18 17,3 C 11,7 C 69 % 1027,0 hPa 0,0 l/m 0,0 km/h (0 Bft) N-NW 340 2 min 0,000 mm 0,0 UV-I 108 W/m 11,6 C 17,3 C 0,0 km/h (0 Bft) 97,87 %
14.10.2017 17:20 17,3 C 11,7 C 70 % 1027,0 hPa 0,0 l/m 0,0 km/h (0 Bft) N-NW 340 2 min 0,000 mm 0,0 UV-I 104 W/m 11,8 C 17,3 C 1,6 km/h (1 Bft) 98,00 %
14.10.2017 17:22 17,3 C 11,7 C 69 % 1027,0 hPa 0,0 l/m 0,0 km/h (0 Bft) N-NW 340 2 min 0,000 mm 0,0 UV-I 99 W/m 11,6 C 17,3 C 0,0 km/h (0 Bft) 97,44 %
14.10.2017 17:24 17,2 C 11,7 C 69 % 1027,0 hPa 0,0 l/m 0,0 km/h (0 Bft) N-NW 340 2 min 0,000 mm 0,0 UV-I 95 W/m 11,5 C 17,2 C 1,6 km/h (1 Bft) 97,78 %
14.10.2017 17:26 17,2 C 11,7 C 70 % 1027,0 hPa 0,0 l/m 0,0 km/h (0 Bft) N-NW 340 2 min 0,000 mm 0,0 UV-I 91 W/m 11,7 C 17,2 C 0,0 km/h (0 Bft) 97,87 %
14.10.2017 17:28 17,2 C 11,7 C 70 % 1027,0 hPa 0,0 l/m 0,4 km/h (0 Bft) N-NW 340 2 min 0,000 mm 0,0 UV-I 87 W/m 11,7 C 17,2 C 1,6 km/h (1 Bft) 98,08 %
14.10.2017 17:30 17,2 C 11,7 C 69 % 1027,0 hPa 0,0 l/m 0,0 km/h (0 Bft) N-NW 340 2 min 0,000 mm 0,0 UV-I 81 W/m 11,5 C 17,2 C 1,6 km/h (1 Bft) 97,62 %
14.10.2017 17:32 17,2 C 11,7 C 71 % 1027,0 hPa 0,0 l/m 0,0 km/h (0 Bft) N-NW 340 2 min 0,000 mm 0,0 UV-I 77 W/m 11,9 C 17,2 C 0,0 km/h (0 Bft) 95,74 %
14.10.2017 17:34 17,1 C 11,7 C 73 % 1027,0 hPa 0,0 l/m 0,0 km/h (0 Bft) N-NW 340 2 min 0,000 mm 0,0 UV-I 72 W/m 12,2 C 17,1 C 0,0 km/h (0 Bft) 96,00 %
14.10.2017 17:36 16,9 C 11,7 C 74 % 1027,0 hPa 0,0 l/m 0,0 km/h (0 Bft) N-NW 340 2 min 0,000 mm 0,0 UV-I 69 W/m 12,2 C 16,9 C 0,0 km/h (0 Bft) 97,56 %
14.10.2017 17:38 16,7 C 11,7 C 75 % 1027,0 hPa 0,0 l/m 0,1 km/h (0 Bft) N-NW 340 2 min 0,000 mm 0,0 UV-I 64 W/m 12,2 C 16,7 C 1,6 km/h (1 Bft) 92,00 %
14.10.2017 17:40 16,6 C 11,7 C 76 % 1027,0 hPa 0,0 l/m 0,0 km/h (0 Bft) N-NW 340 2 min 0,000 mm 0,0 UV-I 59 W/m 12,3 C 16,6 C 0,0 km/h (0 Bft) 98,11 %
14.10.2017 17:42 16,4 C 11,7 C 77 % 1027,0 hPa 0,0 l/m 1,0 km/h (0 Bft) N-NW 340 2 min 0,000 mm 0,0 UV-I 54 W/m 12,4 C 16,4 C 1,6 km/h (1 Bft) 97,37 %
14.10.2017 17:44 16,2 C 11,7 C 78 % 1027,0 hPa 0,0 l/m 1,5 km/h (1 Bft) N-NW 340 2 min 0,000 mm 0,0 UV-I 50 W/m 12,4 C 16,2 C 3,2 km/h (1 Bft) 98,00 %
14.10.2017 17:46 16,0 C 11,7 C 79 % 1027,0 hPa 0,0 l/m 0,9 km/h (0 Bft) N-NW 340 2 min 0,000 mm 0,0 UV-I 47 W/m 12,4 C 16,0 C 1,6 km/h (1 Bft) 97,87 %
14.10.2017 17:48 15,8 C 11,7 C 79 % 1027,0 hPa 0,0 l/m 0,5 km/h (0 Bft) N-NW 340 2 min 0,000 mm 0,0 UV-I 44 W/m 12,2 C 15,8 C 1,6 km/h (1 Bft) 98,11 %
14.10.2017 17:50 15,7 C 11,7 C 80 % 1027,0 hPa 0,0 l/m 0,4 km/h (0 Bft) N-NW 340 2 min 0,000 mm 0,0 UV-I 40 W/m 12,3 C 15,7 C 1,6 km/h (1 Bft) 97,56 %
14.10.2017 17:52 15,5 C 11,7 C 80 % 1027,0 hPa 0,0 l/m 1,7 km/h (1 Bft) N-NW 340 2 min 0,000 mm 0,0 UV-I 36 W/m 12,1 C 15,5 C 3,2 km/h (1 Bft) 96,23 %
14.10.2017 17:54 15,4 C 11,7 C 80 % 1027,0 hPa 0,0 l/m 1,5 km/h (1 Bft) N-NW 340 2 min 0,000 mm 0,0 UV-I 34 W/m 12,0 C 15,4 C 3,2 km/h (1 Bft) 94,74 %
14.10.2017 17:56 15,3 C 11,7 C 81 % 1027,0 hPa 0,0 l/m 1,9 km/h (1 Bft) N-NW 340 2 min 0,000 mm 0,0 UV-I 30 W/m 12,1 C 15,3 C 3,2 km/h (1 Bft) 98,11 %
14.10.2017 17:58 15,1 C 11,7 C 81 % 1027,0 hPa 0,0 l/m 2,2 km/h (1 Bft) N-NW 340 2 min 0,000 mm 0,0 UV-I 27 W/m 11,9 C 15,1 C 3,2 km/h (1 Bft) 98,00 %
14.10.2017 18:00 14,9 C 11,7 C 81 % 1026,9 hPa 0,0 l/m 2,1 km/h (1 Bft) N-NW 340 2 min 0,000 mm 0,0 UV-I 25 W/m 11,7 C 14,9 C 3,2 km/h (1 Bft) 94,74 %
14.10.2017 18:02 14,8 C 11,7 C 82 % 1027,0 hPa 0,0 l/m 2,5 km/h (1 Bft) N-NW 340 2 min 0,051 mm 0,0 UV-I 22 W/m 11,8 C 14,8 C 3,2 km/h (1 Bft) 98,00 %
14.10.2017 18:04 14,7 C 11,7 C 82 % 1026,9 hPa 0,0 l/m 2,4 km/h (1 Bft) N-NW 340 2 min 0,000 mm 0,0 UV-I 20 W/m 11,7 C 14,7 C 3,2 km/h (1 Bft) 97,87 %
14.10.2017 18:06 14,4 C 11,7 C 82 % 1027,0 hPa 0,0 l/m 2,7 km/h (1 Bft) N-NW 340 2 min 0,000 mm 0,0 UV-I 18 W/m 11,4 C 14,4 C 3,2 km/h (1 Bft) 98,00 %
14.10.2017 18:08 14,3 C 11,7 C 83 % 1026,9 hPa 0,0 l/m 2,4 km/h (1 Bft) N-NW 340 0 min 0,000 mm 0,0 UV-I 15 W/m 11,5 C 14,3 C 3,2 km/h (1 Bft) 100,00 %
14.10.2017 18:10 14,2 C 11,7 C 83 % 1026,9 hPa 0,0 l/m 2,2 km/h (1 Bft) N-NW 340 0 min 0,000 mm 0,0 UV-I 13 W/m 11,4 C 14,2 C 3,2 km/h (1 Bft) 97,87 %
14.10.2017 18:12 14,1 C 11,7 C 84 % 1027,0 hPa 0,0 l/m 1,7 km/h (1 Bft) N-NW 340 0 min 0,000 mm 0,0 UV-I 12 W/m 11,4 C 14,1 C 3,2 km/h (1 Bft) 100,00 %
14.10.2017 18:14 14,1 C 11,7 C 84 % 1027,0 hPa 0,0 l/m 1,9 km/h (1 Bft) N-NW 340 0 min 0,000 mm 0,0 UV-I 11 W/m 11,4 C 14,1 C 3,2 km/h (1 Bft) 97,87 %
14.10.2017 18:16 14,0 C 11,7 C 84 % 1026,9 hPa 0,0 l/m 2,5 km/h (1 Bft) N-NW 340 0 min 0,000 mm 0,0 UV-I 11 W/m 11,3 C 14,0 C 3,2 km/h (1 Bft) 100,00 %
14.10.2017 18:18 13,9 C 11,7 C 84 % 1026,9 hPa 0,0 l/m 2,2 km/h (1 Bft) N-NW 340 0 min 0,000 mm 0,0 UV-I 9 W/m 11,2 C 13,9 C 3,2 km/h (1 Bft) 100,00 %
14.10.2017 18:20 13,8 C 11,7 C 84 % 1027,0 hPa 0,0 l/m 1,2 km/h (1 Bft) N-NW 340 0 min 0,000 mm 0,0 UV-I 9 W/m 11,1 C 13,8 C 1,6 km/h (1 Bft) 98,11 %
14.10.2017 18:22 13,7 C 11,7 C 85 % 1027,0 hPa 0,0 l/m 0,0 km/h (0 Bft) N-NW 340 0 min 0,000 mm 0,0 UV-I 7 W/m 11,2 C 13,7 C 1,6 km/h (1 Bft) 97,56 %
14.10.2017 18:24 13,7 C 11,7 C 86 % 1027,0 hPa 0,0 l/m 0,0 km/h (0 Bft) N-NW 340 0 min 0,000 mm 0,0 UV-I 7 W/m 11,4 C 13,7 C 0,0 km/h (0 Bft) 100,00 %
14.10.2017 18:26 13,7 C 11,7 C 86 % 1027,0 hPa 0,0 l/m 0,0 km/h (0 Bft) N-NW 340 0 min 0,000 mm 0,0 UV-I 7 W/m 11,4 C 13,7 C 0,0 km/h (0 Bft) 100,00 %
14.10.2017 18:28 13,7 C 11,7 C 86 % 1027,1 hPa 0,0 l/m 0,0 km/h (0 Bft) N-NW 340 0 min 0,000 mm 0,0 UV-I 5 W/m 11,4 C 13,7 C 0,0 km/h (0 Bft) 98,11 %
14.10.2017 18:30 13,7 C 11,7 C 85 % 1027,0 hPa 0,0 l/m 0,0 km/h (0 Bft) N-NW 340 0 min 0,000 mm 0,0 UV-I 5 W/m 11,2 C 13,7 C 0,0 km/h (0 Bft) 95,74 %
14.10.2017 18:32 13,7 C 11,7 C 85 % 1027,1 hPa 0,0 l/m 1,1 km/h (1 Bft) N-NW 340 0 min 0,000 mm 0,0 UV-I 5 W/m 11,2 C 13,7 C 1,6 km/h (1 Bft) 100,00 %
14.10.2017 18:34 13,5 C 11,7 C 85 % 1027,1 hPa 0,0 l/m 2,2 km/h (1 Bft) N-NW 340 0 min 0,000 mm 0,0 UV-I 5 W/m 11,0 C 13,5 C 3,2 km/h (1 Bft) 100,00 %
14.10.2017 18:36 13,3 C 11,7 C 85 % 1027,1 hPa 0,0 l/m 2,1 km/h (1 Bft) N-NW 340 0 min 0,000 mm 0,0 UV-I 1 W/m 10,8 C 13,3 C 3,2 km/h (1 Bft) 100,00 %
14.10.2017 18:38 13,2 C 11,7 C 86 % 1027,1 hPa 0,0 l/m 1,2 km/h (1 Bft) N-NW 340 0 min 0,000 mm 0,0 UV-I 0 W/m 10,9 C 13,2 C 1,6 km/h (1 Bft) 100,00 %
14.10.2017 18:40 13,1 C 11,7 C 86 % 1027,2 hPa 0,0 l/m 1,8 km/h (1 Bft) N-NW 340 0 min 0,000 mm 0,0 UV-I 0 W/m 10,8 C 13,1 C 3,2 km/h (1 Bft) 100,00 %
14.10.2017 18:42 13,0 C 11,7 C 87 % 1027,2 hPa 0,0 l/m 1,9 km/h (1 Bft) N-NW 340 0 min 0,000 mm 0,0 UV-I 0 W/m 10,9 C 13,0 C 3,2 km/h (1 Bft) 98,00 %
14.10.2017 18:44 12,9 C 11,7 C 87 % 1027,2 hPa 0,0 l/m 1,6 km/h (1 Bft) N-NW 340 0 min 0,000 mm 0,0 UV-I 0 W/m 10,8 C 12,9 C 3,2 km/h (1 Bft) 96,00 %
14.10.2017 18:46 12,8 C 11,7 C 87 % 1027,3 hPa 0,0 l/m 1,1 km/h (1 Bft) N-NW 340 0 min 0,000 mm 0,0 UV-I 0 W/m 10,7 C 12,8 C 1,6 km/h (1 Bft) 98,08 %
14.10.2017 18:48 12,9 C 11,7 C 88 % 1027,3 hPa 0,0 l/m 0,7 km/h (0 Bft) N-NW 340 0 min 0,000 mm 0,0 UV-I 0 W/m 11,0 C 12,9 C 1,6 km/h (1 Bft) 94,87 %
14.10.2017 18:50 12,9 C 11,7 C 88 % 1027,3 hPa 0,0 l/m 0,0 km/h (0 Bft) N-NW 340 0 min 0,000 mm 0,0 UV-I 0 W/m 11,0 C 12,9 C 0,0 km/h (0 Bft) 97,87 %
14.10.2017 18:52 12,9 C 11,7 C 87 % 1027,3 hPa 0,0 l/m 0,0 km/h (0 Bft) N-NW 340 0 min 0,000 mm 0,0 UV-I 0 W/m 10,8 C 12,9 C 0,0 km/h (0 Bft) 97,87 %
14.10.2017 18:54 12,9 C 11,7 C 87 % 1027,3 hPa 0,0 l/m 0,0 km/h (0 Bft) N-NW 340 0 min 0,000 mm 0,0 UV-I 0 W/m 10,8 C 12,9 C 1,6 km/h (1 Bft) 98,00 %
14.10.2017 18:56 12,8 C 11,7 C 87 % 1027,3 hPa 0,0 l/m 0,0 km/h (0 Bft) N-NW 340 0 min 0,000 mm 0,0 UV-I 0 W/m 10,7 C 12,8 C 1,6 km/h (1 Bft) 98,04 %
14.10.2017 18:58 12,7 C 11,7 C 87 % 1027,3 hPa 0,0 l/m 1,8 km/h (1 Bft) N-NW 340 0 min 0,000 mm 0,0 UV-I 0 W/m 10,6 C 12,7 C 3,2 km/h (1 Bft) 97,87 %
14.10.2017 19:00 12,7 C 11,7 C 88 % 1027,3 hPa 0,0 l/m 1,0 km/h (0 Bft) N-NW 340 0 min 0,000 mm 0,0 UV-I 0 W/m 10,8 C 12,7 C 1,6 km/h (1 Bft) 97,73 %
14.10.2017 19:02 12,8 C 11,7 C 88 % 1027,3 hPa 0,0 l/m 0,9 km/h (0 Bft) N-NW 340 0 min 0,000 mm 0,0 UV-I 0 W/m 10,9 C 12,8 C 1,6 km/h (1 Bft) 98,00 %
14.10.2017 19:04 12,8 C 11,7 C 88 % 1027,3 hPa 0,0 l/m 1,8 km/h (1 Bft) N-NW 340 0 min 0,000 mm 0,0 UV-I 0 W/m 10,9 C 12,8 C 3,2 km/h (1 Bft) 95,45 %
14.10.2017 19:06 12,9 C 11,7 C 88 % 1027,4 hPa 0,0 l/m 1,1 km/h (1 Bft) N-NW 340 0 min 0,000 mm 0,0 UV-I 0 W/m 11,0 C 12,9 C 3,2 km/h (1 Bft) 100,00 %
14.10.2017 19:08 13,0 C 11,7 C 87 % 1027,4 hPa 0,0 l/m 0,0 km/h (0 Bft) N-NW 340 0 min 0,000 mm 0,0 UV-I 0 W/m 10,9 C 13,0 C 0,0 km/h (0 Bft) 96,23 %
14.10.2017 19:10 12,9 C 11,7 C 86 % 1027,4 hPa 0,0 l/m 0,0 km/h (0 Bft) N-NW 340 0 min 0,000 mm 0,0 UV-I 0 W/m 10,6 C 12,9 C 0,0 km/h (0 Bft) 98,00 %
14.10.2017 19:12 12,8 C 11,7 C 87 % 1027,4 hPa 0,0 l/m 0,0 km/h (0 Bft) N-NW 340 0 min 0,000 mm 0,0 UV-I 0 W/m 10,7 C 12,8 C 0,0 km/h (0 Bft) 97,37 %
14.10.2017 19:14 12,8 C 11,7 C 87 % 1027,4 hPa 0,0 l/m 0,0 km/h (0 Bft) N-NW 340 0 min 0,000 mm 0,0 UV-I 0 W/m 10,7 C 12,8 C 0,0 km/h (0 Bft) 98,00 %
14.10.2017 19:16 12,7 C 11,7 C 87 % 1027,4 hPa 0,0 l/m 0,0 km/h (0 Bft) N-NW 340 0 min 0,000 mm 0,0 UV-I 0 W/m 10,6 C 12,7 C 0,0 km/h (0 Bft) 98,00 %
14.10.2017 19:18 12,6 C 11,7 C 87 % 1027,4 hPa 0,0 l/m 0,0 km/h (0 Bft) N-NW 340 0 min 0,000 mm 0,0 UV-I 0 W/m 10,5 C 12,6 C 0,0 km/h (0 Bft) 98,00 %
14.10.2017 19:20 12,6 C 11,7 C 88 % 1027,4 hPa 0,0 l/m 0,0 km/h (0 Bft) N-NW 340 0 min 0,000 mm 0,0 UV-I 0 W/m 10,7 C 12,6 C 0,0 km/h (0 Bft) 97,37 %
14.10.2017 19:22 12,6 C 11,7 C 88 % 1027,5 hPa 0,0 l/m 0,0 km/h (0 Bft) N-NW 340 0 min 0,000 mm 0,0 UV-I 0 W/m 10,7 C 12,6 C 0,0 km/h (0 Bft) 97,92 %
14.10.2017 19:24 12,6 C 11,7 C 88 % 1027,5 hPa 0,0 l/m 0,0 km/h (0 Bft) N-NW 340 0 min 0,000 mm 0,0 UV-I 0 W/m 10,7 C 12,6 C 0,0 km/h (0 Bft) 97,87 %
14.10.2017 19:26 12,6 C 11,7 C 88 % 1027,6 hPa 0,0 l/m 0,0 km/h (0 Bft) N-NW 340 0 min 0,000 mm 0,0 UV-I 0 W/m 10,7 C 12,6 C 0,0 km/h (0 Bft) 98,00 %
14.10.2017 19:28 12,5 C 11,7 C 88 % 1027,6 hPa 0,0 l/m 0,3 km/h (0 Bft) N-NW 340 0 min 0,000 mm 0,0 UV-I 0 W/m 10,6 C 12,5 C 1,6 km/h (1 Bft) 95,74 %
14.10.2017 19:30 12,4 C 11,7 C 88 % 1027,5 hPa 0,0 l/m 0,4 km/h (0 Bft) N-NW 340 0 min 0,000 mm 0,0 UV-I 0 W/m 10,5 C 12,4 C 1,6 km/h (1 Bft) 97,87 %
14.10.2017 19:32 12,4 C 11,7 C 88 % 1027,5 hPa 0,0 l/m 0,0 km/h (0 Bft) N-NW 340 0 min 0,000 mm 0,0 UV-I 0 W/m 10,5 C 12,4 C 0,0 km/h (0 Bft) 95,74 %
14.10.2017 19:34 12,4 C 11,7 C 89 % 1027,6 hPa 0,0 l/m 0,0 km/h (0 Bft) N-NW 340 0 min 0,000 mm 0,0 UV-I 0 W/m 10,6 C 12,4 C 0,0 km/h (0 Bft) 98,00 %
14.10.2017 19:36 12,3 C 11,7 C 88 % 1027,5 hPa 0,0 l/m 0,0 km/h (0 Bft) N-NW 340 0 min 0,000 mm 0,0 UV-I 0 W/m 10,4 C 12,3 C 0,0 km/h (0 Bft) 97,37 %
14.10.2017 19:38 12,2 C 11,7 C 88 % 1027,6 hPa 0,0 l/m 0,0 km/h (0 Bft) N-NW 340 0 min 0,000 mm 0,0 UV-I 0 W/m 10,3 C 12,2 C 0,0 km/h (0 Bft) 98,00 %
14.10.2017 19:40 12,2 C 11,7 C 88 % 1027,6 hPa 0,0 l/m 0,3 km/h (0 Bft) N-NW 340 0 min 0,000 mm 0,0 UV-I 0 W/m 10,3 C 12,2 C 1,6 km/h (1 Bft) 95,74 %
14.10.2017 19:42 12,0 C 11,7 C 88 % 1027,6 hPa 0,0 l/m 0,1 km/h (0 Bft) N-NW 340 0 min 0,000 mm 0,0 UV-I 0 W/m 10,1 C 12,0 C 1,6 km/h (1 Bft) 96,00 %
14.10.2017 19:44 11,9 C 11,7 C 89 % 1027,6 hPa 0,0 l/m 1,4 km/h (1 Bft) N-NW 340 0 min 0,000 mm 0,0 UV-I 0 W/m 10,1 C 11,9 C 3,2 km/h (1 Bft) 100,00 %
14.10.2017 19:46 12,0 C 11,7 C 90 % 1027,6 hPa 0,0 l/m 2,6 km/h (1 Bft) N-NW 340 0 min 0,000 mm 0,0 UV-I 0 W/m 10,4 C 12,0 C 3,2 km/h (1 Bft) 100,00 %
14.10.2017 19:48 12,0 C 11,7 C 90 % 1027,6 hPa 0,0 l/m 2,5 km/h (1 Bft) N-NW 340 0 min 0,000 mm 0,0 UV-I 0 W/m 10,4 C 12,0 C 3,2 km/h (1 Bft) 98,11 %
14.10.2017 19:50 12,0 C 11,7 C 90 % 1027,5 hPa 0,0 l/m 2,1 km/h (1 Bft) N-NW 340 0 min 0,000 mm 0,0 UV-I 0 W/m 10,4 C 12,0 C 3,2 km/h (1 Bft) 100,00 %
14.10.2017 19:52 11,9 C 11,7 C 90 % 1027,5 hPa 0,0 l/m 0,4 km/h (0 Bft) N-NW 340 0 min 0,000 mm 0,0 UV-I 0 W/m 10,3 C 11,9 C 1,6 km/h (1 Bft) 100,00 %
14.10.2017 19:54 11,8 C 11,7 C 89 % 1027,6 hPa 0,0 l/m 0,0 km/h (0 Bft) N-NW 340 0 min 0,000 mm 0,0 UV-I 0 W/m 10,0 C 11,8 C 0,0 km/h (0 Bft) 100,00 %
14.10.2017 19:56 11,7 C 11,7 C 90 % 1027,5 hPa 0,0 l/m 0,5 km/h (0 Bft) N-NW 340 0 min 0,000 mm 0,0 UV-I 0 W/m 10,1 C 11,7 C 3,2 km/h (1 Bft) 100,00 %
14.10.2017 19:58 11,8 C 11,7 C 91 % 1027,6 hPa 0,0 l/m 1,4 km/h (1 Bft) N-NW 340 0 min 0,000 mm 0,0 UV-I 0 W/m 10,4 C 11,8 C 3,2 km/h (1 Bft) 98,00 %
14.10.2017 20:00 11,8 C 11,7 C 91 % 1027,6 hPa 0,0 l/m 0,0 km/h (0 Bft) N-NW 340 0 min 0,000 mm 0,0 UV-I 0 W/m 10,4 C 11,8 C 1,6 km/h (1 Bft) 97,73 %
14.10.2017 20:02 11,8 C 11,7 C 91 % 1027,6 hPa 0,0 l/m 0,0 km/h (0 Bft) N-NW 340 0 min 0,000 mm 0,0 UV-I 0 W/m 10,4 C 11,8 C 0,0 km/h (0 Bft) 96,00 %
14.10.2017 20:04 11,8 C 11,7 C 90 % 1027,6 hPa 0,0 l/m 0,1 km/h (0 Bft) N-NW 340 0 min 0,000 mm 0,0 UV-I 0 W/m 10,2 C 11,8 C 1,6 km/h (1 Bft) 97,44 %
14.10.2017 20:06 11,8 C 11,7 C 90 % 1027,6 hPa 0,0 l/m 0,9 km/h (0 Bft) N-NW 340 0 min 0,000 mm 0,0 UV-I 0 W/m 10,2 C 11,8 C 3,2 km/h (1 Bft) 98,11 %
14.10.2017 20:08 11,7 C 11,7 C 90 % 1027,6 hPa 0,0 l/m 1,6 km/h (1 Bft) N-NW 340 0 min 0,000 mm 0,0 UV-I 0 W/m 10,1 C 11,7 C 3,2 km/h (1 Bft) 100,00 %
14.10.2017 20:10 11,7 C 11,7 C 91 % 1027,6 hPa 0,0 l/m 0,8 km/h (0 Bft) N-NW 340 0 min 0,000 mm 0,0 UV-I 0 W/m 10,3 C 11,7 C 3,2 km/h (1 Bft) 95,74 %
14.10.2017 20:12 11,6 C 11,7 C 90 % 1027,6 hPa 0,0 l/m 0,0 km/h (0 Bft) N-NW 340 0 min 0,000 mm 0,0 UV-I 0 W/m 10,0 C 11,6 C 0,0 km/h (0 Bft) 97,87 %
14.10.2017 20:14 11,6 C 11,7 C 90 % 1027,6 hPa 0,0 l/m 0,0 km/h (0 Bft) N-NW 340 0 min 0,000 mm 0,0 UV-I 0 W/m 10,0 C 11,6 C 0,0 km/h (0 Bft) 97,56 %
14.10.2017 20:16 11,6 C 11,7 C 91 % 1027,6 hPa 0,0 l/m 0,0 km/h (0 Bft) N-NW 340 0 min 0,000 mm 0,0 UV-I 0 W/m 10,2 C 11,6 C 0,0 km/h (0 Bft) 97,87 %
14.10.2017 20:18 11,6 C 11,7 C 91 % 1027,6 hPa 0,0 l/m 0,0 km/h (0 Bft) N-NW 340 0 min 0,000 mm 0,0 UV-I 0 W/m 10,2 C 11,6 C 0,0 km/h (0 Bft) 96,00 %
14.10.2017 20:20 11,7 C 11,7 C 91 % 1027,6 hPa 0,0 l/m 0,0 km/h (0 Bft) N-NW 340 0 min 0,000 mm 0,0 UV-I 0 W/m 10,3 C 11,7 C 0,0 km/h (0 Bft) 94,74 %
14.10.2017 20:22 11,7 C 11,7 C 91 % 1027,6 hPa 0,0 l/m 0,0 km/h (0 Bft) N-NW 340 0 min 0,000 mm 0,0 UV-I 0 W/m 10,3 C 11,7 C 0,0 km/h (0 Bft) 98,00 %
14.10.2017 20:24 11,7 C 11,7 C 91 % 1027,6 hPa 0,0 l/m 0,9 km/h (0 Bft) NO 49 0 min 0,000 mm 0,0 UV-I 0 W/m 10,3 C 11,7 C 4,8 km/h (1 Bft) 97,87 %
14.10.2017 20:26 11,7 C 11,7 C 91 % 1027,6 hPa 0,0 l/m 2,6 km/h (1 Bft) O 90 0 min 0,000 mm 0,0 UV-I 0 W/m 10,3 C 11,7 C 4,8 km/h (1 Bft) 96,00 %
14.10.2017 20:28 11,8 C 11,7 C 91 % 1027,6 hPa 0,0 l/m 3,2 km/h (1 Bft) SO 130 0 min 0,000 mm 0,0 UV-I 0 W/m 10,4 C 11,8 C 4,8 km/h (1 Bft) 97,73 %
14.10.2017 20:30 11,9 C 11,7 C 91 % 1027,6 hPa 0,0 l/m 1,5 km/h (1 Bft) SO 130 0 min 0,000 mm 0,0 UV-I 0 W/m 10,5 C 11,9 C 4,8 km/h (1 Bft) 91,49 %
14.10.2017 20:32 11,9 C 11,7 C 90 % 1027,7 hPa 0,0 l/m 0,1 km/h (0 Bft) SO 130 0 min 0,000 mm 0,0 UV-I 0 W/m 10,3 C 11,9 C 1,6 km/h (1 Bft) 98,11 %
14.10.2017 20:34 11,9 C 11,7 C 90 % 1027,7 hPa 0,0 l/m 0,0 km/h (0 Bft) SO 130 0 min 0,000 mm 0,0 UV-I 0 W/m 10,3 C 11,9 C 0,0 km/h (0 Bft) 94,74 %
14.10.2017 20:36 11,9 C 11,7 C 90 % 1027,7 hPa 0,0 l/m 0,1 km/h (0 Bft) SO 130 0 min 0,000 mm 0,0 UV-I 0 W/m 10,3 C 11,9 C 1,6 km/h (1 Bft) 97,87 %
14.10.2017 20:38 11,8 C 11,7 C 90 % 1027,7 hPa 0,0 l/m 0,7 km/h (0 Bft) SO 130 0 min 0,000 mm 0,0 UV-I 0 W/m 10,2 C 11,8 C 3,2 km/h (1 Bft) 100,00 %
14.10.2017 20:40 11,8 C 11,7 C 91 % 1027,7 hPa 0,0 l/m 1,2 km/h (1 Bft) SO 130 0 min 0,000 mm 0,0 UV-I 0 W/m 10,4 C 11,8 C 3,2 km/h (1 Bft) 100,00 %
14.10.2017 20:42 11,7 C 11,7 C 91 % 1027,7 hPa 0,0 l/m 1,3 km/h (1 Bft) SO 130 0 min 0,000 mm 0,0 UV-I 0 W/m 10,3 C 11,7 C 3,2 km/h (1 Bft) 100,00 %
14.10.2017 20:44 11,7 C 11,7 C 91 % 1027,7 hPa 0,0 l/m 1,7 km/h (1 Bft) SO 130 0 min 0,000 mm 0,0 UV-I 0 W/m 10,3 C 11,7 C 3,2 km/h (1 Bft) 100,00 %
14.10.2017 20:46 11,7 C 11,7 C 91 % 1027,7 hPa 0,0 l/m 2,4 km/h (1 Bft) SO 130 0 min 0,000 mm 0,0 UV-I 0 W/m 10,3 C 11,7 C 3,2 km/h (1 Bft) 100,00 %
14.10.2017 20:48 11,6 C 11,7 C 91 % 1027,7 hPa 0,0 l/m 2,2 km/h (1 Bft) SO 130 0 min 0,000 mm 0,0 UV-I 0 W/m 10,2 C 11,6 C 3,2 km/h (1 Bft) 100,00 %
14.10.2017 20:50 11,4 C 11,7 C 91 % 1027,7 hPa 0,0 l/m 2,0 km/h (1 Bft) SO 130 0 min 0,000 mm 0,0 UV-I 0 W/m 10,0 C 11,4 C 3,2 km/h (1 Bft) 100,00 %
14.10.2017 20:52 11,3 C 11,7 C 91 % 1027,8 hPa 0,0 l/m 2,3 km/h (1 Bft) SO 130 0 min 0,000 mm 0,0 UV-I 0 W/m 9,9 C 11,3 C 3,2 km/h (1 Bft) 100,00 %
14.10.2017 20:54 11,3 C 11,7 C 91 % 1027,8 hPa 0,0 l/m 1,0 km/h (0 Bft) SO 130 0 min 0,000 mm 0,0 UV-I 0 W/m 9,9 C 11,3 C 3,2 km/h (1 Bft) 100,00 %
14.10.2017 20:56 11,3 C 11,7 C 91 % 1027,7 hPa 0,0 l/m 0,4 km/h (0 Bft) SO 130 0 min 0,000 mm 0,0 UV-I 0 W/m 9,9 C 11,3 C 1,6 km/h (1 Bft) 100,00 %
14.10.2017 20:58 11,3 C 11,7 C 92 % 1027,7 hPa 0,0 l/m 1,3 km/h (1 Bft) SO 130 0 min 0,000 mm 0,0 UV-I 0 W/m 10,0 C 11,3 C 3,2 km/h (1 Bft) 100,00 %
14.10.2017 21:00 11,3 C 11,7 C 92 % 1027,8 hPa 0,0 l/m 1,7 km/h (1 Bft) SO 130 0 min 0,000 mm 0,0 UV-I 0 W/m 10,0 C 11,3 C 3,2 km/h (1 Bft) 97,37 %
14.10.2017 21:02 11,4 C 11,7 C 92 % 1027,8 hPa 0,0 l/m 1,0 km/h (0 Bft) SO 130 0 min 0,000 mm 0,0 UV-I 0 W/m 10,1 C 11,4 C 3,2 km/h (1 Bft) 100,00 %
14.10.2017 21:04 11,4 C 11,7 C 92 % 1027,9 hPa 0,0 l/m 2,2 km/h (1 Bft) SO 130 0 min 0,000 mm 0,0 UV-I 0 W/m 10,1 C 11,4 C 3,2 km/h (1 Bft) 98,08 %
14.10.2017 21:06 11,4 C 11,7 C 92 % 1027,9 hPa 0,0 l/m 1,0 km/h (0 Bft) SO 130 0 min 0,000 mm 0,0 UV-I 0 W/m 10,1 C 11,4 C 3,2 km/h (1 Bft) 100,00 %
14.10.2017 21:08 11,5 C 11,7 C 92 % 1027,9 hPa 0,0 l/m 0,0 km/h (0 Bft) SO 130 0 min 0,000 mm 0,0 UV-I 0 W/m 10,2 C 11,5 C 0,0 km/h (0 Bft) 100,00 %
14.10.2017 21:10 11,5 C 11,7 C 92 % 1027,9 hPa 0,0 l/m 0,0 km/h (0 Bft) SO 130 0 min 0,000 mm 0,0 UV-I 0 W/m 10,2 C 11,5 C 0,0 km/h (0 Bft) 100,00 %
14.10.2017 21:12 11,4 C 11,7 C 92 % 1027,8 hPa 0,0 l/m 0,0 km/h (0 Bft) SO 130 0 min 0,000 mm 0,0 UV-I 0 W/m 10,1 C 11,4 C 0,0 km/h (0 Bft) 97,56 %
14.10.2017 21:14 11,4 C 11,7 C 92 % 1027,8 hPa 0,0 l/m 0,0 km/h (0 Bft) SO 130 0 min 0,000 mm 0,0 UV-I 0 W/m 10,1 C 11,4 C 1,6 km/h (1 Bft) 97,87 %
14.10.2017 21:16 11,4 C 11,7 C 92 % 1027,8 hPa 0,0 l/m 0,0 km/h (0 Bft) SO 130 0 min 0,000 mm 0,0 UV-I 0 W/m 10,1 C 11,4 C 0,0 km/h (0 Bft) 98,00 %
14.10.2017 21:18 11,4 C 11,7 C 92 % 1027,8 hPa 0,0 l/m 1,6 km/h (1 Bft) SO 130 0 min 0,000 mm 0,0 UV-I 0 W/m 10,1 C 11,4 C 3,2 km/h (1 Bft) 100,00 %
14.10.2017 21:20 11,4 C 11,7 C 91 % 1027,8 hPa 0,0 l/m 0,9 km/h (0 Bft) SO 130 0 min 0,000 mm 0,0 UV-I 0 W/m 10,0 C 11,4 C 3,2 km/h (1 Bft) 98,00 %
14.10.2017 21:22 11,3 C 11,7 C 91 % 1027,8 hPa 0,0 l/m 0,8 km/h (0 Bft) SO 130 0 min 0,000 mm 0,0 UV-I 0 W/m 9,9 C 11,3 C 3,2 km/h (1 Bft) 100,00 %
14.10.2017 21:24 11,3 C 11,7 C 92 % 1027,8 hPa 0,0 l/m 1,8 km/h (1 Bft) SO 130 0 min 0,000 mm 0,0 UV-I 0 W/m 10,0 C 11,3 C 3,2 km/h (1 Bft) 100,00 %
14.10.2017 21:26 11,3 C 11,7 C 92 % 1027,8 hPa 0,0 l/m 2,8 km/h (1 Bft) SO 130 0 min 0,000 mm 0,0 UV-I 0 W/m 10,0 C 11,3 C 3,2 km/h (1 Bft) 97,37 %
14.10.2017 21:28 11,3 C 11,7 C 91 % 1027,8 hPa 0,0 l/m 3,4 km/h (1 Bft) SO 130 0 min 0,000 mm 0,0 UV-I 0 W/m 9,9 C 11,3 C 4,8 km/h (1 Bft) 100,00 %
14.10.2017 21:30 11,2 C 11,7 C 91 % 1027,8 hPa 0,0 l/m 2,4 km/h (1 Bft) SO 130 0 min 0,000 mm 0,0 UV-I 0 W/m 9,8 C 11,2 C 3,2 km/h (1 Bft) 100,00 %
14.10.2017 21:32 11,1 C 11,7 C 91 % 1027,8 hPa 0,0 l/m 1,6 km/h (1 Bft) SO 130 0 min 0,000 mm 0,0 UV-I 0 W/m 9,7 C 11,1 C 3,2 km/h (1 Bft) 96,00 %
14.10.2017 21:34 11,0 C 11,7 C 92 % 1027,8 hPa 0,0 l/m 2,2 km/h (1 Bft) SO 130 0 min 0,000 mm 0,0 UV-I 0 W/m 9,8 C 11,0 C 3,2 km/h (1 Bft) 100,00 %
14.10.2017 21:36 10,9 C 11,7 C 92 % 1027,8 hPa 0,0 l/m 1,4 km/h (1 Bft) SO 130 0 min 0,000 mm 0,0 UV-I 0 W/m 9,7 C 10,9 C 3,2 km/h (1 Bft) 100,00 %
14.10.2017 21:38 11,0 C 11,7 C 92 % 1027,7 hPa 0,0 l/m 1,6 km/h (1 Bft) SO 130 0 min 0,000 mm 0,0 UV-I 0 W/m 9,8 C 11,0 C 3,2 km/h (1 Bft) 100,00 %
14.10.2017 21:40 11,1 C 11,7 C 92 % 1027,8 hPa 0,0 l/m 2,2 km/h (1 Bft) SO 130 0 min 0,000 mm 0,0 UV-I 0 W/m 9,8 C 11,1 C 3,2 km/h (1 Bft) 100,00 %
14.10.2017 21:43 11,1 C 11,7 C 92 % 1027,8 hPa 0,0 l/m 2,3 km/h (1 Bft) SO 130 0 min 0,000 mm 0,0 UV-I 0 W/m 9,8 C 11,1 C 3,2 km/h (1 Bft) 100,00 %
14.10.2017 21:44 11,1 C 11,7 C 92 % 1027,8 hPa 0,0 l/m 2,5 km/h (1 Bft) SO 130 0 min 0,000 mm 0,0 UV-I 0 W/m 9,8 C 11,1 C 3,2 km/h (1 Bft) 100,00 %
14.10.2017 21:46 11,1 C 11,7 C 92 % 1027,9 hPa 0,0 l/m 2,2 km/h (1 Bft) SO 130 0 min 0,000 mm 0,0 UV-I 0 W/m 9,8 C 11,1 C 3,2 km/h (1 Bft) 97,56 %
14.10.2017 21:48 11,0 C 11,7 C 92 % 1027,8 hPa 0,0 l/m 1,6 km/h (1 Bft) SO 130 0 min 0,000 mm 0,0 UV-I 0 W/m 9,8 C 11,0 C 3,2 km/h (1 Bft) 100,00 %
14.10.2017 21:50 10,9 C 11,7 C 92 % 1027,8 hPa 0,0 l/m 1,8 km/h (1 Bft) SO 130 0 min 0,000 mm 0,0 UV-I 0 W/m 9,7 C 10,9 C 3,2 km/h (1 Bft) 100,00 %
14.10.2017 21:52 10,9 C 11,7 C 92 % 1027,9 hPa 0,0 l/m 1,6 km/h (1 Bft) SO 130 0 min 0,000 mm 0,0 UV-I 0 W/m 9,7 C 10,9 C 3,2 km/h (1 Bft) 100,00 %
14.10.2017 21:54 10,8 C 11,7 C 92 % 1027,9 hPa 0,0 l/m 1,7 km/h (1 Bft) SO 130 0 min 0,000 mm 0,0 UV-I 0 W/m 9,6 C 10,8 C 3,2 km/h (1 Bft) 100,00 %
14.10.2017 21:56 10,8 C 11,7 C 92 % 1027,9 hPa 0,0 l/m 1,6 km/h (1 Bft) SO 130 0 min 0,000 mm 0,0 UV-I 0 W/m 9,6 C 10,8 C 3,2 km/h (1 Bft) 100,00 %
14.10.2017 21:58 10,8 C 11,7 C 92 % 1027,9 hPa 0,0 l/m 0,5 km/h (0 Bft) SO 130 0 min 0,000 mm 0,0 UV-I 0 W/m 9,6 C 10,8 C 1,6 km/h (1 Bft) 100,00 %
14.10.2017 22:00 10,7 C 11,7 C 92 % 1028,0 hPa 0,0 l/m 1,2 km/h (1 Bft) SO 130 0 min 0,000 mm 0,0 UV-I 0 W/m 9,5 C 10,7 C 3,2 km/h (1 Bft) 98,08 %
14.10.2017 22:02 10,8 C 11,7 C 93 % 1027,9 hPa 0,0 l/m 2,0 km/h (1 Bft) SO 130 0 min 0,000 mm 0,0 UV-I 0 W/m 9,7 C 10,8 C 3,2 km/h (1 Bft) 97,44 %
14.10.2017 22:04 10,8 C 11,7 C 93 % 1027,9 hPa 0,0 l/m 2,6 km/h (1 Bft) SO 130 0 min 0,000 mm 0,0 UV-I 0 W/m 9,7 C 10,8 C 3,2 km/h (1 Bft) 100,00 %
14.10.2017 22:06 10,9 C 11,7 C 93 % 1027,9 hPa 0,0 l/m 3,0 km/h (1 Bft) SO 130 0 min 0,000 mm 0,0 UV-I 0 W/m 9,8 C 10,9 C 4,8 km/h (1 Bft) 100,00 %
14.10.2017 22:08 10,8 C 11,7 C 92 % 1027,9 hPa 0,0 l/m 3,3 km/h (1 Bft) SO 130 0 min 0,000 mm 0,0 UV-I 0 W/m 9,6 C 10,8 C 4,8 km/h (1 Bft) 100,00 %
14.10.2017 22:10 10,7 C 11,7 C 92 % 1027,9 hPa 0,0 l/m 3,6 km/h (1 Bft) SO 130 0 min 0,000 mm 0,0 UV-I 0 W/m 9,5 C 10,7 C 4,8 km/h (1 Bft) 100,00 %
14.10.2017 22:12 10,6 C 11,7 C 92 % 1028,0 hPa 0,0 l/m 2,9 km/h (1 Bft) SO 130 0 min 0,000 mm 0,0 UV-I 0 W/m 9,4 C 10,6 C 4,8 km/h (1 Bft) 98,00 %
14.10.2017 22:14 10,4 C 11,7 C 92 % 1028,0 hPa 0,0 l/m 2,3 km/h (1 Bft) SO 130 0 min 0,000 mm 0,0 UV-I 0 W/m 9,2 C 10,4 C 3,2 km/h (1 Bft) 100,00 %
14.10.2017 22:16 10,3 C 11,7 C 92 % 1028,0 hPa 0,0 l/m 2,6 km/h (1 Bft) SO 130 0 min 0,000 mm 0,0 UV-I 0 W/m 9,1 C 10,3 C 4,8 km/h (1 Bft) 97,73 %
14.10.2017 22:18 10,3 C 11,7 C 93 % 1028,0 hPa 0,0 l/m 1,4 km/h (1 Bft) SO 130 0 min 0,000 mm 0,0 UV-I 0 W/m 9,2 C 10,3 C 3,2 km/h (1 Bft) 97,87 %
14.10.2017 22:20 10,4 C 11,7 C 93 % 1028,0 hPa 0,0 l/m 1,4 km/h (1 Bft) SO 130 0 min 0,000 mm 0,0 UV-I 0 W/m 9,3 C 10,4 C 3,2 km/h (1 Bft) 97,56 %
14.10.2017 22:22 10,4 C 11,7 C 93 % 1028,1 hPa 0,0 l/m 2,3 km/h (1 Bft) SO 130 0 min 0,000 mm 0,0 UV-I 0 W/m 9,3 C 10,4 C 3,2 km/h (1 Bft) 98,00 %
14.10.2017 22:24 10,4 C 11,7 C 93 % 1028,1 hPa 0,0 l/m 2,2 km/h (1 Bft) SO 130 0 min 0,000 mm 0,0 UV-I 0 W/m 9,3 C 10,4 C 3,2 km/h (1 Bft) 98,00 %
14.10.2017 22:26 10,4 C 11,7 C 93 % 1028,1 hPa 0,0 l/m 2,8 km/h (1 Bft) SO 130 0 min 0,000 mm 0,0 UV-I 0 W/m 9,3 C 10,4 C 3,2 km/h (1 Bft) 95,74 %
14.10.2017 22:28 10,4 C 11,7 C 93 % 1028,1 hPa 0,0 l/m 2,7 km/h (1 Bft) SO 130 0 min 0,000 mm 0,0 UV-I 0 W/m 9,3 C 10,4 C 3,2 km/h (1 Bft) 92,11 %
14.10.2017 22:30 10,3 C 11,7 C 93 % 1028,1 hPa 0,0 l/m 2,2 km/h (1 Bft) SO 130 0 min 0,000 mm 0,0 UV-I 0 W/m 9,2 C 10,3 C 3,2 km/h (1 Bft) 94,34 %
14.10.2017 22:32 10,4 C 11,7 C 94 % 1028,1 hPa 0,0 l/m 3,1 km/h (1 Bft) SO 130 0 min 0,000 mm 0,0 UV-I 0 W/m 9,5 C 10,4 C 3,2 km/h (1 Bft) 96,00 %
14.10.2017 22:34 10,4 C 11,7 C 94 % 1028,1 hPa 0,0 l/m 3,0 km/h (1 Bft) SO 130 0 min 0,000 mm 0,0 UV-I 0 W/m 9,5 C 10,4 C 4,8 km/h (1 Bft) 96,00 %
14.10.2017 22:36 10,4 C 11,7 C 94 % 1028,1 hPa 0,0 l/m 2,4 km/h (1 Bft) SO 130 0 min 0,000 mm 0,0 UV-I 0 W/m 9,5 C 10,4 C 3,2 km/h (1 Bft) 94,44 %
14.10.2017 22:38 10,3 C 11,7 C 93 % 1028,1 hPa 0,0 l/m 2,5 km/h (1 Bft) SO 130 0 min 0,000 mm 0,0 UV-I 0 W/m 9,2 C 10,3 C 4,8 km/h (1 Bft) 96,00 %
14.10.2017 22:40 10,3 C 11,7 C 93 % 1028,1 hPa 0,0 l/m 2,0 km/h (1 Bft) SO 130 0 min 0,000 mm 0,0 UV-I 0 W/m 9,2 C 10,3 C 3,2 km/h (1 Bft) 92,31 %
14.10.2017 22:42 10,3 C 11,7 C 94 % 1028,1 hPa 0,0 l/m 2,8 km/h (1 Bft) SO 130 0 min 0,000 mm 0,0 UV-I 0 W/m 9,4 C 10,3 C 4,8 km/h (1 Bft) 92,86 %
14.10.2017 22:44 10,4 C 11,7 C 94 % 1028,1 hPa 0,0 l/m 3,3 km/h (1 Bft) S 186 0 min 0,000 mm 0,0 UV-I 0 W/m 9,5 C 10,4 C 6,4 km/h (2 Bft) 96,00 %
14.10.2017 22:46 10,4 C 11,7 C 94 % 1028,1 hPa 0,0 l/m 2,1 km/h (1 Bft) S 186 0 min 0,000 mm 0,0 UV-I 0 W/m 9,5 C 10,4 C 3,2 km/h (1 Bft) 92,00 %
14.10.2017 22:48 10,5 C 11,7 C 94 % 1028,1 hPa 0,0 l/m 1,9 km/h (1 Bft) S 186 0 min 0,000 mm 0,0 UV-I 0 W/m 9,6 C 10,5 C 3,2 km/h (1 Bft) 97,37 %
14.10.2017 22:50 10,4 C 11,7 C 94 % 1028,1 hPa 0,0 l/m 1,5 km/h (1 Bft) S 186 0 min 0,000 mm 0,0 UV-I 0 W/m 9,5 C 10,4 C 3,2 km/h (1 Bft) 94,00 %
14.10.2017 22:52 10,3 C 11,7 C 93 % 1028,1 hPa 0,0 l/m 0,0 km/h (0 Bft) S 186 0 min 0,000 mm 0,0 UV-I 0 W/m 9,2 C 10,3 C 0,0 km/h (0 Bft) 96,00 %
14.10.2017 22:54 10,3 C 11,7 C 94 % 1028,2 hPa 0,0 l/m 0,0 km/h (0 Bft) S 186 0 min 0,000 mm 0,0 UV-I 0 W/m 9,4 C 10,3 C 0,0 km/h (0 Bft) 96,00 %
14.10.2017 22:56 10,3 C 11,7 C 94 % 1028,2 hPa 0,0 l/m 0,0 km/h (0 Bft) S 186 0 min 0,000 mm 0,0 UV-I 0 W/m 9,4 C 10,3 C 0,0 km/h (0 Bft) 95,74 %
14.10.2017 22:59 10,3 C 11,7 C 94 % 1028,1 hPa 0,0 l/m 0,5 km/h (0 Bft) S 186 0 min 0,000 mm 0,0 UV-I 0 W/m 9,4 C 10,3 C 3,2 km/h (1 Bft) 94,44 %
14.10.2017 23:00 10,3 C 11,7 C 94 % 1028,1 hPa 0,0 l/m 0,0 km/h (0 Bft) S 186 0 min 0,000 mm 0,0 UV-I 0 W/m 9,4 C 10,3 C 0,0 km/h (0 Bft) 100,00 %
14.10.2017 23:02 10,2 C 11,7 C 94 % 1028,2 hPa 0,0 l/m 0,0 km/h (0 Bft) S 186 0 min 0,000 mm 0,0 UV-I 0 W/m 9,3 C 10,2 C 0,0 km/h (0 Bft) 97,87 %
14.10.2017 23:04 10,1 C 11,7 C 94 % 1028,1 hPa 0,0 l/m 0,0 km/h (0 Bft) S 185 0 min 0,000 mm 0,0 UV-I 0 W/m 9,2 C 10,1 C 0,0 km/h (0 Bft) 93,62 %
14.10.2017 23:06 10,2 C 11,7 C 94 % 1028,1 hPa 0,0 l/m 2,1 km/h (1 Bft) O-NO 71 0 min 0,000 mm 0,0 UV-I 0 W/m 9,3 C 10,2 C 4,8 km/h (1 Bft) 97,87 %
14.10.2017 23:08 10,3 C 11,7 C 95 % 1028,1 hPa 0,0 l/m 0,1 km/h (0 Bft) O-NO 71 0 min 0,000 mm 0,0 UV-I 0 W/m 9,5 C 10,3 C 1,6 km/h (1 Bft) 97,87 %
14.10.2017 23:10 10,3 C 11,7 C 95 % 1028,1 hPa 0,0 l/m 0,0 km/h (0 Bft) O-NO 71 0 min 0,000 mm 0,0 UV-I 0 W/m 9,5 C 10,3 C 0,0 km/h (0 Bft) 98,11 %
14.10.2017 23:12 10,3 C 11,7 C 94 % 1028,1 hPa 0,0 l/m 1,7 km/h (1 Bft) O-NO 71 0 min 0,000 mm 0,0 UV-I 0 W/m 9,4 C 10,3 C 4,8 km/h (1 Bft) 95,83 %
14.10.2017 23:14 10,4 C 11,7 C 95 % 1028,1 hPa 0,0 l/m 2,2 km/h (1 Bft) O-NO 71 0 min 0,000 mm 0,0 UV-I 0 W/m 9,6 C 10,4 C 3,2 km/h (1 Bft) 97,87 %
14.10.2017 23:16 10,6 C 11,7 C 95 % 1028,1 hPa 0,0 l/m 1,6 km/h (1 Bft) O-NO 71 0 min 0,000 mm 0,0 UV-I 0 W/m 9,8 C 10,6 C 3,2 km/h (1 Bft) 97,56 %
14.10.2017 23:18 10,5 C 11,7 C 94 % 1028,1 hPa 0,0 l/m 2,0 km/h (1 Bft) O-NO 71 0 min 0,000 mm 0,0 UV-I 0 W/m 9,6 C 10,5 C 3,2 km/h (1 Bft) 96,00 %
14.10.2017 23:20 10,4 C 11,7 C 94 % 1028,1 hPa 0,0 l/m 1,6 km/h (1 Bft) O-NO 71 0 min 0,000 mm 0,0 UV-I 0 W/m 9,5 C 10,4 C 3,2 km/h (1 Bft) 97,87 %
14.10.2017 23:22 10,2 C 11,7 C 94 % 1028,1 hPa 0,0 l/m 1,7 km/h (1 Bft) O-NO 71 0 min 0,000 mm 0,0 UV-I 0 W/m 9,3 C 10,2 C 3,2 km/h (1 Bft) 97,44 %
14.10.2017 23:24 10,1 C 11,7 C 94 % 1028,0 hPa 0,0 l/m 1,2 km/h (1 Bft) O-NO 71 0 min 0,000 mm 0,0 UV-I 0 W/m 9,2 C 10,1 C 1,6 km/h (1 Bft) 96,43 %
14.10.2017 23:26 9,9 C 11,7 C 94 % 1028,0 hPa 0,0 l/m 0,8 km/h (0 Bft) O-NO 71 0 min 0,000 mm 0,0 UV-I 0 W/m 9,0 C 9,9 C 1,6 km/h (1 Bft) 98,00 %
14.10.2017 23:28 9,9 C 11,7 C 94 % 1028,0 hPa 0,0 l/m 1,0 km/h (0 Bft) O-NO 71 0 min 0,000 mm 0,0 UV-I 0 W/m 9,0 C 9,9 C 1,6 km/h (1 Bft) 97,56 %
14.10.2017 23:30 9,8 C 11,7 C 94 % 1028,0 hPa 0,0 l/m 1,3 km/h (1 Bft) O-NO 71 0 min 0,000 mm 0,0 UV-I 0 W/m 8,9 C 9,8 C 3,2 km/h (1 Bft) 98,00 %
14.10.2017 23:32 9,8 C 11,7 C 94 % 1028,0 hPa 0,0 l/m 1,2 km/h (1 Bft) O-NO 71 0 min 0,000 mm 0,0 UV-I 0 W/m 8,9 C 9,8 C 1,6 km/h (1 Bft) 100,00 %
14.10.2017 23:34 9,7 C 11,7 C 94 % 1028,0 hPa 0,0 l/m 1,1 km/h (1 Bft) O-NO 71 0 min 0,000 mm 0,0 UV-I 0 W/m 8,8 C 9,7 C 1,6 km/h (1 Bft) 100,00 %
14.10.2017 23:36 9,7 C 11,7 C 94 % 1028,0 hPa 0,0 l/m 2,1 km/h (1 Bft) O-NO 71 0 min 0,000 mm 0,0 UV-I 0 W/m 8,8 C 9,7 C 3,2 km/h (1 Bft) 100,00 %
14.10.2017 23:38 9,7 C 11,7 C 94 % 1028,0 hPa 0,0 l/m 1,8 km/h (1 Bft) O-NO 71 0 min 0,000 mm 0,0 UV-I 0 W/m 8,8 C 9,7 C 3,2 km/h (1 Bft) 100,00 %
14.10.2017 23:40 9,7 C 11,7 C 94 % 1027,9 hPa 0,0 l/m 0,1 km/h (0 Bft) O-NO 71 0 min 0,000 mm 0,0 UV-I 0 W/m 8,8 C 9,7 C 1,6 km/h (1 Bft) 97,87 %
14.10.2017 23:42 9,7 C 11,7 C 94 % 1028,0 hPa 0,0 l/m 0,6 km/h (0 Bft) O-NO 71 0 min 0,000 mm 0,0 UV-I 0 W/m 8,8 C 9,7 C 3,2 km/h (1 Bft) 100,00 %
14.10.2017 23:44 9,7 C 11,7 C 95 % 1027,9 hPa 0,0 l/m 1,8 km/h (1 Bft) O-NO 71 0 min 0,000 mm 0,0 UV-I 0 W/m 8,9 C 9,7 C 3,2 km/h (1 Bft) 100,00 %
14.10.2017 23:46 9,7 C 11,7 C 95 % 1028,0 hPa 0,0 l/m 0,8 km/h (0 Bft) O-NO 71 0 min 0,000 mm 0,0 UV-I 0 W/m 8,9 C 9,7 C 1,6 km/h (1 Bft) 96,00 %
14.10.2017 23:48 9,7 C 11,7 C 95 % 1028,0 hPa 0,0 l/m 0,2 km/h (0 Bft) O-NO 71 0 min 0,000 mm 0,0 UV-I 0 W/m 8,9 C 9,7 C 1,6 km/h (1 Bft) 100,00 %
14.10.2017 23:50 9,6 C 11,7 C 94 % 1028,0 hPa 0,0 l/m 0,0 km/h (0 Bft) O-NO 71 0 min 0,000 mm 0,0 UV-I 0 W/m 8,7 C 9,6 C 0,0 km/h (0 Bft) 100,00 %
14.10.2017 23:52 9,6 C 11,7 C 94 % 1028,1 hPa 0,0 l/m 0,0 km/h (0 Bft) O-NO 71 0 min 0,000 mm 0,0 UV-I 0 W/m 8,7 C 9,6 C 0,0 km/h (0 Bft) 98,04 %
14.10.2017 23:54 9,5 C 11,7 C 94 % 1028,0 hPa 0,0 l/m 0,0 km/h (0 Bft) O-NO 71 0 min 0,000 mm 0,0 UV-I 0 W/m 8,6 C 9,5 C 0,0 km/h (0 Bft) 100,00 %
14.10.2017 23:56 9,5 C 11,7 C 95 % 1028,0 hPa 0,0 l/m 0,0 km/h (0 Bft) O-NO 71 0 min 0,000 mm 0,0 UV-I 0 W/m 8,7 C 9,5 C 0,0 km/h (0 Bft) 100,00 %
14.10.2017 23:58 9,4 C 11,7 C 95 % 1028,0 hPa 0,0 l/m 0,0 km/h (0 Bft) O-NO 71 0 min 0,000 mm 0,0 UV-I 0 W/m 8,6 C 9,4 C 0,0 km/h (0 Bft) 97,87 %
_ Min-Zeit 07:38 00:00 14:52 18:00 - 03:26 - - - - - - 07:38 07:38 03:28 04:02
Minimum _ 5,9 C 11,7 C 62 % 1026,9 hPa - 0,0 km/h (0 Bft) - - - - - - 5,3 C 5,9 C 0,0 km/h (0 Bft) 88,89 %
_ Max-Zeit 15:24 00:00 05:42 10:08 08:22 01:08 - - 08:43 13:02 12:20 12:50 12:34 15:26 12:56 00:02
Maximum _ 18,4 C 11,7 C 97 % 1029,2 hPa 0,2 l/m 7,2 km/h
S (2 Bft)
- - 3 min 0,305 mm 2,6 UV-I 555 W/m 12,9 C 18,4 C 12,9 km/h
N-NO (3 Bft)
100,00 %
Durchschnitt _ 11,9 C 11,7 C 87 % 1027,9 hPa #0,2 l/m 1,9 km/h (1 Bft) S - #10:12 h #1,905 mm 1,7 UV-I 313 W/m 9,6 C 11,9 C 3,6 km/h (1 Bft) 97,77 %